[[{"header":{"parameterUnit":"m.s-1","parameterCategory":1,"la1":30.6,"la2":28.766,"lo1":-90.7593,"lo2":-88.6598,"dy":0.0162,"dx":0.0183,"nx":116,"ny":114,"refTime":"2023-07-21T00:00:00:Z","depth":0,"parameterNumber":2,"parameterNumberName":"U-component_of_WINDS"},"data":[0.0,0.0,0.0,0.0,0.0,0.0,0.0,0.0,0.0,0.0,0.0,0.0,0.0,0.0,0.0,0.0,0.0,0.0,0.0,0.0,0.0,0.0,0.0,0.0,0.0,0.0,0.0,0.0,0.0,0.0,0.0,0.0,0.0,0.0,0.0,0.0,0.0,0.0,0.0,0.0,0.0,0.0,0.0,0.0,0.0,0.0,0.0,0.0,0.0,0.0,0.0,0.0,0.0,0.0,0.0,0.0,0.0,0.0,0.0,0.0,0.0,0.0,0.0,0.0,0.0,0.0,0.0,0.0,0.0,0.0,0.0,0.0,0.0,0.0,0.0,0.0,0.0,0.0,0.0,0.0,0.0,0.0,0.0,0.0,0.0,0.0,0.0,0.0,0.0,0.0,0.0,0.0,0.0,0.0,0.0,0.0,0.0,0.0,0.0,0.0,0.0,0.0,0.0,0.0,0.0,0.0,0.0,0.0,0.0,0.0,0.0,0.0,0.0,0.0,0.0,0.0,0.0,0.0,0.0,0.0,0.0,0.0,0.0,0.0,0.0,0.0,0.0,0.0,0.0,0.0,0.0,0.0,0.0,0.0,0.0,0.0,0.0,0.0,0.0,0.0,0.0,0.0,0.0,0.0,0.0,0.0,0.0,0.0,0.0,0.0,0.0,0.0,0.0,0.0,0.0,0.0,0.0,0.0,0.0,0.0,0.0,0.0,0.0,0.0,0.0,0.0,0.0,0.0,0.0,0.0,0.0,0.0,0.0,0.0,0.0,0.0,0.0,0.0,0.0,0.0,0.0,0.0,0.0,0.0,0.0,0.0,0.0,0.0,0.0,0.0,0.0,0.0,0.0,0.0,0.0,0.0,0.0,0.0,0.0,0.0,0.0,0.0,0.0,0.0,0.0,0.0,0.0,0.0,0.0,0.0,0.0,0.0,0.0,0.0,0.0,0.0,0.0,0.0,0.0,0.0,0.0,0.0,0.0,0.0,0.0,0.0,0.0,0.0,0.0,0.0,0.0,0.0,0.0,0.0,0.0,0.0,0.0,0.0,0.0,0.0,0.0,0.0,0.0,0.0,0.0,0.0,0.0,0.0,0.0,0.0,0.0,0.0,0.0,0.0,0.0,0.0,0.0,0.0,0.0,0.0,0.0,0.0,0.0,0.0,0.0,0.0,0.0,0.0,0.0,0.0,0.0,0.0,0.0,0.0,0.0,0.0,0.0,0.0,0.0,0.0,0.0,0.0,0.0,0.0,0.0,0.0,0.0,0.0,0.0,0.0,0.0,0.0,0.0,0.0,0.0,0.0,0.0,0.0,0.0,0.0,0.0,0.0,0.0,0.0,0.0,0.0,0.0,0.0,0.0,0.0,0.0,0.0,0.0,0.0,0.0,0.0,0.0,0.0,0.0,0.0,0.0,0.0,0.0,0.0,0.0,0.0,0.0,0.0,0.0,0.0,0.0,0.0,0.0,0.0,0.0,0.0,0.0,0.0,0.0,0.0,0.0,0.0,0.0,0.0,0.0,0.0,0.0,0.0,0.0,0.0,0.0,0.0,0.0,0.0,0.0,0.0,0.0,0.0,0.0,0.0,0.0,0.0,0.0,0.0,0.0,0.0,0.0,0.0,0.0,0.0,0.0,0.0,0.0,0.0,0.0,0.0,0.0,0.0,0.0,0.0,0.0,0.0,0.0,0.0,0.0,0.0,0.0,0.0,0.0,0.0,0.0,0.0,0.0,0.0,0.0,0.0,0.0,0.0,0.0,0.0,0.0,0.0,0.0,0.0,0.0,0.0,0.0,0.0,0.0,0.0,0.0,0.0,0.0,0.0,0.0,0.0,0.0,0.0,0.0,0.0,0.0,0.0,0.0,0.0,0.0,0.0,0.0,0.0,0.0,0.0,0.0,0.0,0.0,0.0,0.0,0.0,0.0,0.0,0.0,0.0,0.0,0.0,0.0,0.0,0.0,0.0,0.0,0.0,0.0,0.0,0.0,0.0,0.0,0.0,0.0,0.0,0.0,0.0,0.0,0.0,0.0,0.0,0.0,0.0,0.0,0.0,0.0,0.0,0.0,0.0,0.0,0.0,0.0,0.0,0.0,0.0,0.0,0.0,0.0,0.0,0.0,0.0,0.0,0.0,0.0,0.0,0.0,0.0,0.0,0.0,0.0,0.0,0.0,0.0,0.0,0.0,0.0,0.0,0.0,0.0,0.0,0.0,0.0,0.0,0.0,0.0,0.0,0.0,0.0,0.0,0.0,0.0,0.0,0.0,0.0,0.0,0.0,0.0,0.0,0.0,0.0,0.0,0.0,0.0,0.0,0.0,0.0,0.0,0.0,0.0,0.0,0.0,0.0,0.0,0.0,0.0,0.0,0.0,0.0,0.0,0.0,0.0,0.0,0.0,0.0,0.0,0.0,0.0,0.0,0.0,0.0,0.0,0.0,0.0,0.0,0.0,0.0,0.0,0.0,0.0,0.0,0.0,0.0,0.0,0.0,0.0,0.0,0.0,0.0,0.0,0.0,0.0,0.0,0.0,0.0,0.0,0.0,0.0,0.0,0.0,0.0,0.0,0.0,0.0,0.0,0.0,0.0,0.0,0.0,0.0,0.0,0.0,0.0,0.0,0.0,0.0,0.0,0.0,0.0,0.0,0.0,0.0,0.0,0.0,0.0,0.0,0.0,0.0,0.0,0.0,0.0,0.0,0.0,0.0,0.0,0.0,0.0,0.0,0.0,0.0,0.0,0.0,0.0,0.0,0.0,0.0,0.0,0.0,0.0,0.0,0.0,0.0,0.0,0.0,0.0,0.0,0.0,0.0,0.0,0.0,0.0,0.0,0.0,0.0,0.0,0.0,0.0,0.0,0.0,0.0,0.0,0.0,0.0,0.0,0.0,0.0,0.0,0.0,0.0,0.0,0.0,0.0,0.0,0.0,0.0,0.0,0.0,0.0,0.0,0.0,0.0,0.0,0.0,0.0,0.0,0.0,0.0,0.0,0.0,0.0,0.0,0.0,0.0,0.0,0.0,0.0,0.0,0.0,0.0,0.0,0.0,0.0,0.0,0.0,0.0,0.0,0.0,0.0,0.0,0.0,0.0,0.0,0.0,0.0,0.0,0.0,0.0,0.0,0.0,0.0,0.0,0.0,0.0,0.0,0.0,0.0,0.0,0.0,0.0,0.0,0.0,0.0,0.0,0.0,0.0,0.0,0.0,0.0,0.0,0.0,0.0,0.0,0.0,0.0,0.0,0.0,0.0,0.0,0.0,0.0,0.0,0.0,0.0,0.0,0.0,0.0,0.0,0.0,0.0,0.0,0.0,0.0,0.0,0.0,0.0,0.0,0.0,0.0,0.0,0.0,0.0,0.0,0.0,0.0,0.0,0.0,0.0,0.0,0.0,0.0,0.0,0.0,0.0,0.0,0.0,0.0,0.0,0.0,0.0,0.0,0.0,0.0,0.0,0.0,0.0,0.0,0.0,0.0,0.0,0.0,0.0,0.0,0.0,0.0,0.0,0.0,0.0,0.0,0.0,0.0,0.0,0.0,0.0,0.0,0.0,0.0,0.0,0.0,0.0,0.0,0.0,0.0,0.0,0.0,0.0,0.0,0.0,0.0,0.0,0.0,0.0,0.0,0.0,0.0,0.0,0.0,0.0,0.0,0.0,0.0,0.0,0.0,0.0,0.0,0.0,0.0,0.0,0.0,0.0,0.0,0.0,0.0,0.0,0.0,0.0,0.0,0.0,0.0,0.0,0.0,0.0,0.0,0.0,0.0,0.0,0.0,0.0,0.0,0.0,0.0,0.0,0.0,0.0,0.0,0.0,0.0,0.0,0.0,0.0,0.0,0.0,0.0,0.0,0.0,0.0,0.0,0.0,0.0,0.0,0.0,0.0,0.0,0.0,0.0,0.0,0.0,0.0,0.0,0.0,0.0,0.0,0.0,0.0,0.0,0.0,0.0,0.0,0.0,0.0,0.0,0.0,0.0,0.0,0.0,0.0,0.0,0.0,0.0,0.0,0.0,0.0,0.0,0.0,0.0,0.0,0.0,0.0,0.0,0.0,0.0,0.0,0.0,0.0,0.0,0.0,0.0,0.0,0.0,0.0,0.0,0.0,0.0,0.0,0.0,0.0,0.0,0.0,0.0,0.0,0.0,0.0,0.0,0.0,0.0,0.0,0.0,0.0,0.0,0.0,0.0,0.0,0.0,0.0,0.0,0.0,0.0,0.0,0.0,0.0,0.0,0.0,0.0,0.0,0.0,0.0,0.0,0.0,0.0,0.0,0.0,0.0,0.0,0.0,0.0,0.0,0.0,0.0,0.0,0.0,0.0,0.0,0.0,0.0,0.0,0.0,0.0,0.0,0.0,0.0,0.0,0.0,0.0,0.0,0.0,0.0,0.0,0.0,0.0,0.0,0.0,0.0,0.0,0.0,0.0,0.0,0.0,0.0,0.0,0.0,0.0,0.0,0.0,0.0,0.0,0.0,0.0,0.0,0.0,0.0,0.0,0.0,0.0,0.0,0.0,0.0,0.0,0.0,0.0,0.0,0.0,0.0,0.0,0.0,0.0,0.0,0.0,0.0,0.0,0.0,0.0,0.0,0.0,0.0,0.0,0.0,0.0,0.0,0.0,0.0,0.0,0.0,0.0,0.0,0.0,0.0,0.0,0.0,0.0,0.0,0.0,0.0,0.0,0.0,0.0,0.0,0.0,0.0,0.0,0.0,0.0,0.0,0.0,0.0,0.0,0.0,0.0,0.0,0.0,0.0,0.0,0.0,0.0,0.0,0.0,0.0,0.0,0.0,0.0,0.0,0.0,0.0,0.0,0.0,0.0,0.0,0.0,0.0,0.0,0.0,0.0,0.0,0.0,0.0,0.0,0.0,0.0,0.0,0.0,0.0,0.0,0.0,0.0,0.0,0.0,0.0,0.0,0.0,0.0,0.0,0.0,0.0,0.0,0.0,0.0,0.0,0.0,0.0,0.0,0.0,0.0,0.0,0.0,0.0,0.0,0.0,0.0,0.0,0.0,0.0,0.0,0.0,0.0,0.0,0.0,0.0,0.0,0.0,0.0,0.0,0.0,0.0,0.0,0.0,0.0,0.0,0.0,0.0,0.0,0.0,0.0,0.0,0.0,0.0,0.0,0.0,0.0,0.0,0.0,0.0,0.0,0.0,0.0,0.0,0.0,0.0,0.0,0.0,0.0,0.0,0.0,0.0,0.0,0.0,0.0,0.0,0.0,0.0,0.0,0.0,0.0,0.0,0.0,0.0,0.0,0.0,0.0,0.0,0.0,0.0,0.0,0.0,0.0,0.0,0.0,0.0,0.0,0.0,0.0,0.0,0.0,0.0,0.0,0.0,0.0,0.0,0.0,0.0,0.0,0.0,0.0,0.0,0.0,0.0,0.0,0.0,0.0,0.0,0.0,0.0,0.0,0.0,0.0,0.0,0.0,0.0,0.0,0.0,0.0,0.0,0.0,0.0,0.0,0.0,0.0,0.0,0.0,0.0,0.0,0.0,0.0,0.0,0.0,0.0,0.0,0.0,0.0,0.0,0.0,0.0,0.0,0.0,0.0,0.0,0.0,0.0,0.0,0.0,0.0,0.0,0.0,0.0,0.0,0.0,0.0,0.0,0.0,0.0,0.0,0.0,0.0,0.0,0.0,0.0,0.0,0.0,0.0,0.0,0.0,0.0,0.0,0.0,0.0,0.0,0.0,0.0,0.0,0.0,0.0,0.0,0.0,0.0,0.0,0.0,0.0,0.0,0.0,0.0,0.0,0.0,0.0,0.0,0.0,0.0,0.0,0.0,0.0,0.0,0.0,0.0,0.0,0.0,0.0,0.0,0.0,0.0,0.0,0.0,0.0,0.0,0.0,0.0,0.0,0.0,0.0,0.0,0.0,0.0,0.0,0.0,0.0,0.0,0.0,0.0,0.0,0.0,0.0,0.0,0.0,0.0,0.0,0.0,0.0,0.0,0.0,0.0,0.0,0.0,0.0,0.0,0.0,0.0,0.0,0.0,0.0,0.0,0.0,0.0,0.0,0.0,0.0,0.0,0.0,0.0,0.0,0.0,0.0,0.0,0.0,0.0,0.0,-4.1849,0.0,0.0,0.0,0.0,0.0,0.0,0.0,0.0,0.0,0.0,0.0,0.0,0.0,0.0,0.0,0.0,0.0,0.0,0.0,0.0,0.0,0.0,0.0,0.0,0.0,0.0,0.0,0.0,0.0,0.0,0.0,0.0,0.0,0.0,0.0,0.0,0.0,0.0,0.0,0.0,0.0,0.0,0.0,0.0,0.0,0.0,0.0,0.0,0.0,0.0,0.0,0.0,0.0,0.0,0.0,0.0,0.0,0.0,0.0,0.0,0.0,0.0,0.0,0.0,0.0,0.0,0.0,0.0,0.0,0.0,0.0,0.0,0.0,0.0,0.0,0.0,0.0,0.0,0.0,0.0,0.0,0.0,0.0,0.0,0.0,0.0,0.0,0.0,0.0,0.0,0.0,0.0,0.0,0.0,0.0,0.0,0.0,0.0,0.0,0.0,0.0,0.0,0.0,0.0,0.0,0.0,0.0,0.0,0.0,0.0,0.0,0.0,0.0,0.0,0.0,0.0,-4.118,0.0,0.0,0.0,0.0,0.0,0.0,0.0,0.0,0.0,0.0,0.0,0.0,0.0,0.0,0.0,0.0,0.0,0.0,0.0,0.0,0.0,0.0,0.0,0.0,0.0,0.0,0.0,0.0,0.0,0.0,0.0,0.0,0.0,0.0,0.0,0.0,0.0,0.0,0.0,0.0,0.0,0.0,0.0,0.0,0.0,0.0,0.0,0.0,0.0,0.0,0.0,0.0,0.0,0.0,0.0,0.0,0.0,0.0,0.0,0.0,0.0,0.0,0.0,0.0,0.0,0.0,0.0,0.0,0.0,0.0,0.0,0.0,0.0,0.0,0.0,0.0,0.0,0.0,0.0,0.0,0.0,0.0,0.0,0.0,0.0,0.0,0.0,0.0,0.0,0.0,0.0,0.0,0.0,0.0,0.0,0.0,0.0,0.0,0.0,0.0,0.0,0.0,0.0,0.0,0.0,0.0,0.0,0.0,-4.1471,-4.1363,-4.1163,-4.1024,-4.0884,-4.0772,-4.0836,-4.0758,-4.06,0.0,0.0,0.0,0.0,0.0,0.0,0.0,0.0,0.0,0.0,0.0,0.0,0.0,0.0,0.0,0.0,0.0,0.0,0.0,0.0,0.0,0.0,0.0,0.0,0.0,0.0,0.0,0.0,0.0,0.0,0.0,0.0,0.0,0.0,0.0,0.0,0.0,0.0,0.0,-4.0602,-4.0681,-4.0761,-4.0837,0.0,0.0,0.0,0.0,0.0,0.0,0.0,0.0,0.0,0.0,0.0,0.0,0.0,0.0,0.0,0.0,0.0,0.0,0.0,0.0,0.0,0.0,0.0,0.0,0.0,0.0,0.0,0.0,0.0,0.0,0.0,0.0,0.0,0.0,0.0,0.0,0.0,0.0,0.0,0.0,0.0,0.0,0.0,0.0,-4.3649,-4.3532,0.0,0.0,0.0,0.0,0.0,0.0,0.0,0.0,0.0,0.0,0.0,0.0,0.0,-4.1719,-4.1675,-4.1346,-4.1146,-4.1071,-4.1012,-4.0965,-4.0918,-4.0793,-4.0745,-4.068,-4.0485,0.0,-4.0355,-4.0188,0.0,0.0,0.0,0.0,0.0,0.0,0.0,0.0,0.0,0.0,0.0,0.0,0.0,0.0,0.0,0.0,0.0,0.0,0.0,0.0,0.0,0.0,0.0,0.0,0.0,0.0,0.0,0.0,0.0,0.0,0.0,0.0,0.0,0.0,0.0,0.0,-4.0508,-4.0554,-4.0598,-4.0626,-4.0668,-4.0752,-4.0807,-4.0878,-4.0953,-4.0974,0.0,0.0,0.0,0.0,0.0,0.0,0.0,0.0,0.0,0.0,0.0,0.0,0.0,0.0,0.0,0.0,0.0,0.0,0.0,0.0,0.0,0.0,0.0,0.0,0.0,0.0,0.0,0.0,0.0,0.0,0.0,0.0,0.0,0.0,0.0,0.0,0.0,0.0,0.0,-4.3809,-4.3532,-4.3446,-4.3446,-4.3376,0.0,0.0,0.0,0.0,0.0,0.0,0.0,0.0,0.0,-4.1753,-4.1418,-4.1226,-4.1105,-4.0918,-4.0776,-4.0614,-4.0583,-4.0534,-4.0436,-4.0387,-4.0387,-4.0337,-4.0238,-4.0188,-4.0188,-4.0121,-4.007,-4.007,0.0,0.0,0.0,0.0,-4.007,-4.007,0.0,0.0,0.0,0.0,0.0,0.0,0.0,0.0,0.0,0.0,0.0,0.0,0.0,0.0,0.0,0.0,0.0,0.0,0.0,0.0,0.0,0.0,0.0,0.0,0.0,0.0,0.0,0.0,-4.0489,-4.0523,-4.0573,-4.0573,-4.0603,-4.066,-4.066,-4.0713,-4.0849,-4.0869,-4.091,0.0,0.0,0.0,0.0,0.0,0.0,0.0,0.0,0.0,0.0,0.0,0.0,0.0,0.0,0.0,0.0,0.0,0.0,0.0,0.0,0.0,0.0,0.0,0.0,0.0,0.0,0.0,0.0,0.0,0.0,0.0,0.0,0.0,0.0,0.0,0.0,0.0,0.0,-4.3682,-4.3428,-4.334,-4.3305,-4.3196,0.0,0.0,0.0,0.0,0.0,0.0,-4.1906,-4.1596,-4.1363,-4.1209,-4.0977,-4.0758,-4.06,-4.0551,-4.0453,-4.0238,-4.0238,-4.0188,-4.007,-4.007,-4.007,-4.007,-4.007,-4.007,-4.007,-4.007,-4.007,-4.007,-4.007,-4.007,-4.007,-4.007,-4.007,-4.007,0.0,0.0,0.0,0.0,0.0,0.0,0.0,0.0,0.0,0.0,0.0,0.0,0.0,0.0,0.0,0.0,0.0,0.0,0.0,0.0,0.0,0.0,0.0,0.0,0.0,0.0,0.0,-4.0489,-4.0489,0.0,0.0,0.0,0.0,-4.0504,-4.0504,-4.0574,-4.0706,-4.0776,0.0,0.0,0.0,0.0,0.0,0.0,0.0,0.0,0.0,0.0,0.0,0.0,0.0,0.0,0.0,0.0,0.0,0.0,0.0,0.0,0.0,0.0,0.0,0.0,0.0,0.0,0.0,0.0,0.0,0.0,0.0,0.0,0.0,0.0,0.0,0.0,0.0,0.0,0.0,0.0,0.0,-4.3214,-4.305,0.0,0.0,0.0,0.0,-4.1675,-4.1648,-4.1453,-4.1071,-4.0913,-4.0836,-4.0745,-4.0502,-4.0355,-4.0305,-4.0188,-4.0121,-4.0121,-4.0121,-4.0138,-4.007,-4.007,-4.007,-4.007,-4.007,-4.007,-4.007,-4.007,-4.007,-4.007,-4.007,-4.007,-4.007,-4.007,-4.007,-4.007,0.0,0.0,0.0,0.0,0.0,0.0,0.0,0.0,0.0,0.0,0.0,0.0,0.0,0.0,0.0,0.0,0.0,0.0,0.0,0.0,0.0,0.0,0.0,0.0,0.0,0.0,0.0,0.0,0.0,0.0,0.0,0.0,0.0,0.0,0.0,0.0,0.0,0.0,0.0,0.0,0.0,0.0,0.0,0.0,0.0,0.0,0.0,0.0,0.0,0.0,0.0,0.0,0.0,0.0,0.0,0.0,0.0,0.0,0.0,0.0,0.0,0.0,0.0,0.0,0.0,0.0,0.0,0.0,0.0,0.0,0.0,0.0,0.0,0.0,0.0,0.0,0.0,0.0,0.0,-4.316,-4.288,0.0,-4.2133,-4.1839,-4.1552,-4.1255,-4.1088,-4.0965,-4.0823,-4.0614,-4.0485,-4.0453,-4.0288,-4.0188,-4.0188,-4.0121,-4.007,-4.007,-4.007,-4.007,-4.007,-4.007,-4.007,-4.007,-4.007,-4.007,-4.007,-4.007,-4.007,-4.007,-4.007,-4.007,-4.007,-4.007,-4.007,-4.007,0.0,0.0,0.0,0.0,0.0,0.0,0.0,0.0,0.0,0.0,0.0,0.0,0.0,0.0,0.0,0.0,0.0,0.0,0.0,0.0,0.0,0.0,0.0,0.0,0.0,0.0,0.0,0.0,0.0,0.0,0.0,0.0,0.0,0.0,0.0,0.0,0.0,0.0,0.0,0.0,0.0,0.0,-4.1067,0.0,0.0,0.0,0.0,0.0,0.0,0.0,0.0,0.0,0.0,0.0,0.0,0.0,0.0,0.0,0.0,0.0,0.0,0.0,0.0,0.0,0.0,0.0,0.0,0.0,0.0,0.0,0.0,0.0,0.0,0.0,0.0,0.0,0.0,0.0,-4.3233,-4.2994,-4.2649,-4.221,-4.1709,-4.1373,-4.1117,-4.0806,-4.0631,-4.0551,-4.0485,-4.0593,-4.0629,-4.0629,-4.0747,-4.0815,-4.0815,-4.0815,-4.0815,-4.0815,-4.0815,-4.0815,-4.0815,-4.0815,-4.0696,-4.046,-4.046,-4.0307,-4.007,-4.007,-4.007,-4.007,-4.007,-4.007,-4.007,-4.007,-4.007,-4.007,0.0,0.0,0.0,0.0,0.0,0.0,0.0,0.0,0.0,0.0,0.0,0.0,0.0,0.0,0.0,0.0,0.0,0.0,0.0,0.0,0.0,0.0,0.0,0.0,0.0,0.0,0.0,0.0,0.0,0.0,0.0,0.0,0.0,0.0,0.0,0.0,0.0,0.0,0.0,0.0,0.0,0.0,-4.1,0.0,0.0,0.0,0.0,0.0,0.0,0.0,0.0,0.0,0.0,0.0,0.0,0.0,0.0,0.0,0.0,0.0,0.0,0.0,0.0,0.0,0.0,0.0,0.0,0.0,0.0,0.0,0.0,0.0,0.0,0.0,0.0,0.0,-4.3929,-4.3497,-4.3087,-4.275,-4.2333,-4.1874,-4.1255,-4.0995,-4.0728,-4.0337,-4.0322,-4.0272,-4.0155,-4.0832,-4.1238,-4.1238,-4.1931,-4.2286,-4.2286,-4.2286,-4.2286,-4.2286,-4.2286,-4.2286,-4.2286,-4.2286,-4.1914,-4.1238,-4.1221,-4.0781,-4.0104,-4.0087,-4.007,-4.007,-4.007,-4.007,-4.007,-4.007,-4.007,-4.007,0.0,0.0,0.0,0.0,0.0,0.0,0.0,0.0,0.0,0.0,0.0,0.0,0.0,0.0,0.0,0.0,0.0,0.0,0.0,0.0,0.0,0.0,0.0,0.0,0.0,0.0,0.0,0.0,0.0,0.0,0.0,0.0,0.0,0.0,0.0,0.0,0.0,0.0,0.0,0.0,0.0,0.0,-4.1072,0.0,0.0,0.0,0.0,0.0,0.0,0.0,0.0,0.0,0.0,0.0,0.0,0.0,0.0,0.0,0.0,0.0,0.0,0.0,0.0,0.0,0.0,0.0,0.0,0.0,0.0,0.0,0.0,0.0,0.0,0.0,0.0,-4.4718,-4.4003,-4.3497,-4.3087,-4.275,-4.2257,-4.1727,-4.1117,-4.0806,-4.0468,-4.0188,-4.0646,-4.0951,-4.0899,-4.1593,-4.1999,-4.1999,-4.2185,-4.2286,-4.2286,-4.2286,-4.2286,-4.2286,-4.2286,-4.2286,-4.2286,-4.2286,-4.2185,-4.1965,-4.1441,-4.1085,-4.0849,-4.0307,-4.007,-4.007,-4.007,-4.007,-4.007,-4.007,-4.007,-4.007,0.0,0.0,0.0,0.0,0.0,0.0,0.0,0.0,0.0,0.0,0.0,0.0,0.0,0.0,0.0,0.0,0.0,0.0,0.0,0.0,0.0,0.0,0.0,0.0,0.0,0.0,0.0,0.0,0.0,0.0,0.0,0.0,0.0,0.0,0.0,0.0,0.0,0.0,0.0,0.0,0.0,0.0,-4.11,-4.1103,-4.1094,-4.1219,-4.2013,-4.2755,-4.3485,-4.4247,0.0,0.0,0.0,0.0,0.0,0.0,0.0,0.0,0.0,0.0,0.0,0.0,0.0,0.0,0.0,0.0,0.0,0.0,0.0,0.0,0.0,0.0,0.0,0.0,-4.5443,-4.4915,-4.3878,-4.3393,-4.2975,-4.2537,-4.2068,-4.1525,-4.0948,-4.0583,-4.0474,-4.0578,-4.0967,-4.1339,-4.1644,-4.2354,-4.276,-4.276,-4.3081,-4.325,-4.325,-4.325,-4.325,-4.325,-4.325,-4.325,-4.325,-4.325,-4.3064,0.0,-4.232,-4.1779,-4.117,-4.073,-4.0358,0.0,0.0,0.0,0.0,0.0,-4.007,-4.007,0.0,0.0,0.0,0.0,0.0,0.0,0.0,0.0,0.0,0.0,0.0,0.0,0.0,0.0,0.0,0.0,0.0,0.0,0.0,0.0,0.0,0.0,0.0,0.0,0.0,0.0,0.0,0.0,0.0,0.0,0.0,0.0,0.0,0.0,0.0,0.0,0.0,0.0,0.0,0.0,0.0,0.0,-4.1105,-4.109,-4.109,-4.1228,-4.2109,-4.281,-4.3446,-4.4341,0.0,0.0,0.0,0.0,0.0,0.0,0.0,0.0,0.0,0.0,0.0,0.0,0.0,0.0,0.0,0.0,0.0,0.0,0.0,0.0,0.0,0.0,0.0,0.0,-4.5618,-4.4934,-4.3771,-4.3287,-4.288,-4.2257,-4.1831,-4.138,-4.0745,-4.0521,-4.0646,-4.1153,-4.1356,-4.1728,-4.2388,0.0,0.0,0.0,0.0,-4.4587,-4.4587,-4.4587,-4.4587,-4.4587,-4.4587,-4.4587,-4.4587,-4.4587,-4.4198,-4.3538,-4.3453,-4.2675,-4.1441,-4.1373,-4.0882,-4.0206,-4.0104,-4.007,-4.007,-4.007,-4.007,-4.007,0.0,0.0,0.0,0.0,0.0,0.0,0.0,0.0,0.0,0.0,0.0,0.0,0.0,0.0,0.0,0.0,0.0,0.0,0.0,0.0,0.0,0.0,0.0,0.0,0.0,0.0,0.0,0.0,0.0,0.0,0.0,0.0,0.0,0.0,0.0,0.0,0.0,0.0,0.0,0.0,0.0,0.0,-4.1108,-4.1093,-4.1103,-4.1289,-4.274,-4.3287,-4.3537,-4.5037,-4.5568,-4.5586,-4.5586,0.0,0.0,0.0,0.0,0.0,0.0,0.0,0.0,0.0,0.0,0.0,0.0,0.0,0.0,0.0,0.0,0.0,0.0,0.0,0.0,-4.7728,-4.6786,-4.5805,-4.4419,-4.3487,-4.2768,-4.2257,-4.1831,-4.138,-4.0745,-4.0982,-4.1189,-4.1187,-4.232,-4.3047,-4.32,-4.3944,-4.435,-4.435,-4.4502,-4.4587,-4.4587,-4.4587,-4.4587,-4.4587,0.0,0.0,-4.4587,-4.4587,-4.4502,-4.4316,-4.369,-4.325,-4.2946,-4.2337,-4.1644,-4.0933,-4.0307,-4.007,-4.007,-4.007,-4.007,-4.007,0.0,0.0,0.0,0.0,0.0,0.0,0.0,0.0,0.0,0.0,0.0,0.0,0.0,0.0,0.0,0.0,0.0,0.0,0.0,0.0,-3.6767,0.0,0.0,0.0,0.0,0.0,0.0,0.0,0.0,0.0,0.0,0.0,0.0,0.0,0.0,0.0,0.0,0.0,0.0,0.0,0.0,0.0,-4.1099,-4.1093,-4.1072,-4.1262,-4.286,-4.3382,-4.3556,-4.5156,-4.5637,-4.555,-4.5515,-4.5495,-4.5667,0.0,0.0,0.0,0.0,0.0,0.0,0.0,0.0,0.0,0.0,0.0,0.0,0.0,0.0,-5.0913,0.0,0.0,-4.9648,-4.8269,-4.7508,-4.649,-4.4766,-4.3942,-4.3123,-4.2187,-4.1683,-4.118,-4.0631,-4.1018,-4.1408,-4.1728,-4.2794,-4.3589,-4.3978,-4.4367,-4.4587,-4.4587,-4.4587,-4.4587,-4.4587,-4.4587,-4.4587,-4.4587,-4.4587,-4.4587,-4.4587,-4.4587,-4.4587,-4.4553,-4.4181,-4.3775,-4.3352,-4.2591,-4.1863,-4.117,-4.0781,-4.0409,-4.007,-4.007,-4.007,-4.007,0.0,0.0,0.0,0.0,0.0,0.0,0.0,0.0,0.0,0.0,0.0,0.0,0.0,0.0,0.0,0.0,0.0,0.0,0.0,-3.5474,-3.6026,0.0,0.0,0.0,0.0,0.0,0.0,0.0,0.0,0.0,0.0,0.0,0.0,0.0,0.0,0.0,0.0,0.0,0.0,0.0,0.0,0.0,-4.1103,-4.1108,-4.1055,-4.1214,-4.282,-4.3354,-4.3515,-4.5079,-4.5568,-4.5476,-4.5419,-4.54,-4.5592,-4.6567,-4.7452,0.0,0.0,0.0,0.0,0.0,0.0,0.0,0.0,0.0,-5.1386,-5.1302,-5.1142,-5.0928,-5.0641,-5.0339,-4.9732,-4.8604,-4.8021,-4.7043,-4.5113,-4.4378,-4.3534,-4.2055,-4.1507,-4.1024,-4.0534,-4.1036,-4.166,-4.2252,-4.3132,-4.3927,-4.4553,-4.4587,-4.4587,-4.4587,-4.4587,-4.4587,-4.4587,-4.4587,-4.4587,-4.4587,-4.4587,-4.4587,-4.4587,-4.4587,-4.4587,-4.4587,-4.4587,-4.4215,-4.3589,-4.2811,-4.2083,-4.1407,-4.1271,-4.0747,-4.007,-4.007,-4.007,-4.007,0.0,0.0,0.0,0.0,0.0,0.0,0.0,0.0,0.0,0.0,0.0,0.0,0.0,0.0,0.0,0.0,0.0,0.0,0.0,-3.5113,-3.5581,0.0,0.0,0.0,0.0,0.0,0.0,0.0,0.0,0.0,0.0,0.0,0.0,0.0,0.0,0.0,0.0,0.0,0.0,0.0,0.0,0.0,-4.1108,-4.1105,-4.1066,-4.1214,-4.283,-4.3318,-4.3468,-4.506,-4.5568,-4.5476,-4.5419,-4.54,-4.5707,-4.7294,0.0,-4.8433,-5.0027,-5.0717,-5.1015,-5.115,-5.1257,-5.1327,0.0,0.0,-5.1386,-5.1302,-5.1142,-5.0928,-5.0641,-5.0383,-5.0,-4.9375,-4.8426,-4.7296,-4.5865,-4.4667,-4.3418,-4.2055,-4.1507,-4.1024,-4.0534,-4.1494,-4.2202,-4.2286,-4.3639,-4.4485,-4.4587,-4.4587,-4.4587,-4.4587,-4.4587,-4.4587,-4.4587,-4.4587,-4.4587,-4.4587,-4.4587,-4.4587,-4.4587,-4.4587,-4.4587,-4.4587,-4.4587,-4.4536,-4.4384,-4.3623,-4.2844,-4.21,-4.1457,-4.0747,-4.007,-4.007,-4.007,-4.007,0.0,0.0,0.0,0.0,0.0,0.0,0.0,0.0,0.0,0.0,0.0,0.0,0.0,0.0,0.0,0.0,0.0,0.0,-3.5089,-3.5141,-3.5359,0.0,0.0,0.0,0.0,0.0,0.0,0.0,0.0,0.0,0.0,0.0,0.0,0.0,0.0,0.0,0.0,0.0,0.0,0.0,0.0,0.0,-4.1107,-4.1105,-4.1061,-4.122,-4.2779,-4.3266,0.0,0.0,-4.5457,-4.5419,-4.5277,-4.5602,-4.6277,-4.7395,-4.8211,0.0,-5.0375,-5.0844,-5.1029,0.0,-5.1257,-5.1327,-5.1374,-5.1404,-5.1386,-5.1302,-5.1142,-5.0942,-5.075,-5.0425,-5.007,0.0,-4.8984,-4.7872,-4.6103,-4.5142,-4.3899,-4.1972,-4.1346,-4.1103,-4.115,-4.1834,-4.2472,-4.2912,-4.3961,-4.4587,-4.4587,-4.4587,-4.4587,-4.4587,-4.4587,-4.4587,-4.4587,-4.4587,-4.4587,-4.4587,-4.4587,-4.4587,-4.4587,-4.4587,-4.4587,-4.4587,-4.4587,-4.4587,-4.4553,-4.4231,-4.3386,-4.2252,-4.1948,-4.1119,-4.007,-4.007,-4.007,-4.007,0.0,0.0,0.0,0.0,0.0,0.0,0.0,0.0,0.0,0.0,0.0,0.0,0.0,0.0,0.0,0.0,0.0,0.0,0.0,-3.5239,-3.5304,0.0,0.0,0.0,0.0,0.0,0.0,0.0,0.0,0.0,0.0,0.0,0.0,0.0,0.0,0.0,0.0,0.0,0.0,0.0,0.0,0.0,-4.1101,-4.109,-4.107,-4.1201,-4.2768,-4.3272,0.0,0.0,-4.5438,-4.54,-4.5216,-4.5829,-4.6694,-4.7465,-4.8592,-4.9758,-5.0583,0.0,0.0,-5.118,-5.1257,-5.1327,-5.1374,-5.1404,-5.1386,-5.1302,-5.1142,-5.0942,-5.0784,-5.0486,-5.012,-4.9803,-4.9171,-4.8036,-4.614,-4.5212,-4.396,-4.1833,-4.1226,-4.1185,-4.1767,-4.214,-4.2608,-4.3352,-4.4147,-4.4587,-4.4587,-4.4587,-4.4587,-4.4587,-4.4587,-4.4587,-4.4587,-4.4587,-4.4587,-4.4587,-4.4587,-4.4587,-4.4587,-4.4587,-4.4587,-4.4587,-4.4587,-4.4587,-4.4587,-4.4587,-4.3673,-4.2286,-4.2286,-4.139,-4.007,-4.007,-4.007,-4.007,0.0,0.0,0.0,0.0,0.0,0.0,0.0,0.0,0.0,0.0,0.0,0.0,0.0,0.0,0.0,0.0,0.0,0.0,0.0,-3.5364,-3.5412,-3.5493,0.0,0.0,0.0,0.0,0.0,0.0,0.0,0.0,0.0,0.0,0.0,0.0,0.0,0.0,0.0,0.0,0.0,0.0,0.0,0.0,-4.1094,-4.1094,-4.1052,-4.1214,-4.283,0.0,0.0,0.0,-4.555,-4.5476,-4.5419,-4.5993,0.0,-4.7658,-4.9158,0.0,0.0,0.0,-5.1029,-5.118,-5.1257,-5.1327,-5.1374,-5.1404,-5.1386,-5.1302,-5.1142,-5.0942,-5.0731,-5.0486,-5.0163,-4.9684,-4.8652,-4.7434,-4.6012,-4.4681,-4.3286,-4.178,-4.1198,-4.1329,0.0,-4.2392,-4.2608,-4.3352,-4.4147,-4.4587,-4.4587,-4.4587,-4.4587,-4.4587,-4.4587,-4.4587,-4.4587,-4.4587,-4.4587,-4.4587,-4.4587,-4.4587,-4.4587,-4.4587,-4.4587,-4.4587,-4.4587,-4.4587,-4.4587,-4.4587,-4.3673,-4.2286,-4.2286,-4.139,-4.007,-4.007,-4.007,-4.007,0.0,0.0,0.0,0.0,0.0,0.0,0.0,0.0,0.0,0.0,0.0,0.0,0.0,0.0,0.0,0.0,0.0,0.0,0.0,-3.5398,-3.5427,-3.5493,-3.5493,0.0,0.0,0.0,0.0,0.0,0.0,0.0,0.0,0.0,0.0,0.0,0.0,0.0,0.0,0.0,0.0,0.0,0.0,0.0,-4.1046,-4.1089,-4.1089,-4.128,0.0,0.0,0.0,0.0,-4.5616,-4.5565,-4.5476,0.0,0.0,-4.849,-4.974,-5.0702,-5.0825,0.0,-5.103,-5.1162,-5.1258,-5.1312,-5.1381,-5.1402,-5.1386,-5.1302,-5.1142,-5.0942,-5.0803,-5.0507,-5.0188,-4.9776,-4.8705,-4.7378,-4.5938,-4.4626,-4.3209,-4.1523,-4.1509,0.0,0.0,0.0,0.0,-4.4096,-4.4434,-4.4587,-4.4587,-4.4587,-4.4587,-4.4587,-4.4587,-4.4587,-4.4587,-4.4587,-4.4587,-4.4587,-4.4587,-4.4587,-4.4587,-4.4587,-4.4587,-4.4587,-4.4587,-4.4587,-4.4587,-4.4587,-4.3673,-4.2286,-4.2286,-4.139,-4.007,-4.007,-4.007,-4.007,0.0,0.0,0.0,0.0,0.0,0.0,0.0,0.0,0.0,0.0,0.0,0.0,0.0,0.0,0.0,0.0,0.0,0.0,0.0,0.0,-3.6344,-3.6392,-3.6103,0.0,0.0,0.0,0.0,0.0,0.0,0.0,0.0,0.0,0.0,0.0,0.0,0.0,0.0,0.0,0.0,0.0,0.0,0.0,-4.1017,-4.1074,-4.1094,0.0,0.0,0.0,0.0,0.0,0.0,0.0,0.0,-4.6213,-4.7236,-4.8966,-4.9869,-5.0385,-5.0828,-5.0976,-5.1062,-5.117,-5.1271,-5.1355,-5.1382,-5.14,-5.1386,-5.1302,-5.1142,-5.0942,-5.0784,-5.0507,-5.0073,-4.9424,-4.8273,-4.695,-4.5462,-4.417,-4.2846,-4.1398,-4.1687,-4.2071,0.0,0.0,0.0,-4.4485,-4.4587,-4.4587,-4.4587,-4.4587,-4.4587,-4.4587,-4.4587,-4.4587,-4.4587,-4.4587,-4.4587,-4.4587,-4.4587,-4.4587,-4.4587,-4.4587,-4.4587,-4.4587,-4.4587,-4.4587,-4.4553,-4.4282,-4.342,-4.2269,-4.1999,-4.1153,-4.007,-4.007,-4.007,-4.007,0.0,0.0,0.0,0.0,0.0,0.0,0.0,0.0,0.0,0.0,0.0,0.0,0.0,0.0,0.0,0.0,0.0,0.0,0.0,0.0,0.0,-3.8007,-3.7219,-3.6757,0.0,0.0,0.0,0.0,0.0,0.0,0.0,0.0,0.0,0.0,0.0,0.0,0.0,0.0,0.0,0.0,0.0,0.0,-4.0994,-4.107,0.0,0.0,0.0,0.0,0.0,0.0,0.0,0.0,0.0,-4.646,-4.7424,-4.9064,-4.9586,-4.9819,-5.0753,-5.1063,-5.112,-5.1187,-5.1297,-5.1402,-5.1403,-5.14,-5.1386,-5.1302,-5.1142,-5.0942,0.0,0.0,-4.9896,-4.8634,-4.7443,-4.615,-4.462,-4.3369,-4.2251,0.0,0.0,0.0,0.0,0.0,0.0,-4.4519,0.0,-4.4587,-4.4587,-4.4587,-4.4587,-4.4587,-4.4587,-4.4587,-4.4587,-4.4587,-4.4587,-4.4587,-4.4587,-4.4587,-4.4587,-4.4587,-4.4587,-4.4587,-4.4587,-4.4553,-4.4468,-4.3724,-4.2946,-4.2168,-4.1474,-4.0747,-4.007,-4.007,-4.007,-4.007,0.0,0.0,0.0,0.0,0.0,0.0,0.0,0.0,0.0,0.0,0.0,0.0,0.0,0.0,0.0,0.0,0.0,0.0,0.0,0.0,0.0,0.0,0.0,0.0,0.0,0.0,0.0,0.0,0.0,0.0,0.0,0.0,0.0,0.0,0.0,0.0,0.0,0.0,0.0,0.0,0.0,0.0,-4.0932,0.0,0.0,0.0,0.0,0.0,0.0,0.0,0.0,0.0,0.0,-4.6549,-4.7453,-4.8487,-4.9283,-5.0025,-5.0914,-5.1152,-5.1189,-5.1265,-5.1347,-5.1391,-5.1405,-5.1398,-5.1386,-5.1302,-5.1142,-5.0942,0.0,0.0,0.0,-4.8742,-4.7513,0.0,-4.4674,-4.3389,0.0,-4.1283,0.0,-4.2671,-4.2323,-4.3504,0.0,0.0,-4.4587,-4.4587,-4.4587,-4.4587,-4.4587,-4.4587,-4.4587,-4.4587,-4.4587,-4.4587,-4.4587,-4.4587,-4.4587,-4.4587,-4.4587,-4.4587,-4.4587,-4.4587,-4.4587,-4.4248,-4.3707,-4.3504,-4.2658,-4.1457,-4.1271,-4.0747,-4.007,-4.007,-4.007,-4.007,0.0,0.0,0.0,0.0,0.0,0.0,0.0,0.0,0.0,0.0,0.0,0.0,0.0,0.0,0.0,0.0,0.0,0.0,0.0,0.0,0.0,0.0,0.0,0.0,0.0,0.0,0.0,0.0,0.0,0.0,0.0,0.0,0.0,0.0,0.0,0.0,0.0,0.0,0.0,0.0,0.0,0.0,0.0,0.0,0.0,0.0,0.0,0.0,0.0,0.0,0.0,-4.6144,-4.6103,-4.6415,-4.698,-4.7812,0.0,-4.9565,-5.043,-5.0953,-5.1257,-5.1338,-5.1379,-5.1394,-5.1406,-5.1398,-5.1386,-5.1302,-5.1142,0.0,0.0,0.0,0.0,0.0,0.0,0.0,-4.4125,-4.3172,-4.2251,0.0,-4.2327,0.0,-4.2339,-4.3673,-4.4587,0.0,-4.4587,-4.4587,-4.4587,-4.4587,-4.4587,-4.4587,-4.4587,-4.4587,-4.4587,-4.4587,-4.4587,-4.4587,-4.4587,-4.4587,-4.4587,-4.4587,-4.4587,-4.4553,0.0,-4.3826,-4.3369,-4.2709,-4.1965,-4.117,-4.0832,-4.0443,-4.007,-4.007,-4.007,-4.007,0.0,0.0,0.0,0.0,0.0,0.0,0.0,0.0,0.0,0.0,0.0,0.0,0.0,0.0,0.0,0.0,0.0,0.0,0.0,0.0,0.0,0.0,0.0,0.0,0.0,0.0,0.0,0.0,0.0,0.0,0.0,0.0,0.0,0.0,0.0,0.0,0.0,0.0,0.0,0.0,0.0,0.0,0.0,0.0,0.0,0.0,0.0,0.0,0.0,0.0,-4.6254,-4.6214,-4.621,-4.6206,-4.6372,-4.7245,-4.7995,-4.8769,-4.9744,-5.0563,-5.118,-5.1351,-5.1408,-5.1398,-5.1406,-5.1396,-5.1362,-5.1297,0.0,-5.0947,-5.075,-4.9776,-4.86,-4.7432,0.0,-4.4947,-4.3431,-4.2862,-4.2251,-4.1346,-4.2258,-4.2774,-4.2392,-4.3589,-4.4468,-4.457,-4.4587,-4.4587,-4.4587,-4.4587,-4.4587,-4.4587,-4.4587,-4.4587,-4.4587,-4.4587,-4.4587,-4.4587,-4.4587,-4.4587,-4.4587,-4.4468,-4.4418,-4.4384,0.0,0.0,-4.3031,-4.1745,-4.1136,-4.0984,-4.0341,-4.007,-4.007,-4.007,-4.007,-4.007,0.0,0.0,0.0,0.0,0.0,0.0,0.0,0.0,0.0,0.0,0.0,0.0,0.0,0.0,0.0,0.0,0.0,0.0,0.0,0.0,0.0,0.0,0.0,0.0,0.0,0.0,0.0,0.0,0.0,0.0,0.0,0.0,0.0,0.0,0.0,0.0,0.0,0.0,0.0,0.0,0.0,0.0,0.0,0.0,0.0,0.0,0.0,0.0,0.0,0.0,-4.6288,-4.6278,-4.627,-4.6273,-4.6432,-4.7263,-4.7592,-4.806,-4.9641,-5.0188,-5.0484,-5.1218,-5.1402,-5.1406,-5.1406,-5.1366,0.0,0.0,0.0,-5.0956,-5.0808,-4.9775,-4.8577,-4.7517,0.0,0.0,0.0,0.0,-4.2351,0.0,0.0,0.0,0.0,0.0,0.0,0.0,0.0,-4.4587,-4.4587,-4.4587,-4.4587,-4.4587,-4.4587,-4.4587,-4.4587,-4.4587,-4.4587,-4.4587,-4.4587,-4.4587,-4.4553,-4.391,-4.3623,-4.3589,-4.2811,0.0,-4.1559,-4.1322,-4.0832,-4.0257,-4.0121,-4.007,-4.007,-4.007,-4.007,-4.007,0.0,0.0,0.0,0.0,0.0,0.0,0.0,0.0,0.0,0.0,0.0,0.0,0.0,0.0,0.0,0.0,0.0,0.0,0.0,0.0,0.0,0.0,0.0,0.0,0.0,0.0,0.0,0.0,0.0,0.0,0.0,0.0,0.0,0.0,0.0,0.0,0.0,0.0,0.0,0.0,0.0,0.0,0.0,0.0,0.0,0.0,0.0,0.0,0.0,0.0,-4.6258,-4.6246,-4.6289,-4.6289,-4.6326,-4.6758,-4.7168,-4.7695,-4.8553,-4.9431,-5.0192,-5.0625,-5.1054,-5.1382,-5.1352,0.0,0.0,0.0,0.0,-5.0755,-5.0121,0.0,0.0,0.0,0.0,0.0,0.0,0.0,0.0,0.0,0.0,0.0,0.0,0.0,0.0,0.0,0.0,-4.4147,-4.4553,-4.4587,-4.4587,-4.4587,-4.4587,-4.4587,-4.4587,-4.4587,-4.4367,-4.3978,-4.3978,-4.3758,-4.3369,-4.2997,-4.2828,-4.2794,-4.2049,0.0,-4.117,-4.0781,-4.0409,-4.007,-4.007,-4.007,-4.007,-4.007,-4.007,-4.007,0.0,0.0,0.0,0.0,0.0,0.0,0.0,0.0,-4.0631,-4.0681,-4.0765,-4.0859,-4.0908,-4.0868,0.0,0.0,0.0,0.0,0.0,0.0,0.0,0.0,0.0,0.0,0.0,0.0,0.0,0.0,0.0,0.0,0.0,0.0,0.0,0.0,0.0,0.0,0.0,0.0,0.0,0.0,0.0,0.0,0.0,0.0,0.0,0.0,0.0,0.0,0.0,0.0,-4.6167,-4.6162,-4.6221,-4.621,-4.6218,-4.6264,-4.6722,-4.7274,-4.7512,-4.8531,-4.9587,-4.9775,-5.0471,-5.1089,-5.1021,-5.1128,0.0,0.0,-5.0862,-5.0323,-4.9432,0.0,0.0,0.0,0.0,0.0,0.0,0.0,0.0,0.0,0.0,0.0,0.0,0.0,0.0,0.0,0.0,0.0,-4.4536,-4.4587,-4.4502,-4.4333,-4.4333,-4.4248,-4.4096,-4.4096,-4.3775,-4.3166,-4.3166,-4.2861,-4.2286,-4.2134,-4.2049,-4.2016,-4.1271,0.0,0.0,-4.0324,-4.007,-4.007,-4.007,-4.007,-4.007,-4.007,-4.007,-4.007,0.0,0.0,0.0,0.0,0.0,0.0,0.0,0.0,-4.0615,-4.0681,-4.0818,-4.0917,-4.098,-4.0932,0.0,0.0,0.0,0.0,0.0,0.0,0.0,0.0,0.0,0.0,0.0,0.0,0.0,0.0,0.0,0.0,0.0,0.0,0.0,0.0,0.0,0.0,0.0,0.0,0.0,0.0,0.0,0.0,0.0,0.0,0.0,0.0,0.0,0.0,0.0,0.0,0.0,-4.6027,-4.6027,-4.6115,-4.6192,-4.6211,0.0,0.0,-4.7288,-4.7619,-4.7936,-4.8712,-4.9527,-5.0134,-5.0127,0.0,0.0,-5.103,-5.0283,-4.9542,-4.9258,-4.7687,0.0,0.0,0.0,0.0,0.0,0.0,0.0,0.0,0.0,0.0,0.0,0.0,0.0,0.0,0.0,0.0,-4.4502,-4.4587,-4.4265,-4.3538,-4.3521,-4.32,-4.2506,-4.2506,-4.2455,-4.2388,-4.2388,-4.2354,-4.2269,-4.161,-4.1305,-4.1271,-4.051,0.0,0.0,-4.0104,-4.007,-4.007,-4.007,-4.007,-4.007,-4.007,-4.007,-4.007,0.0,0.0,0.0,0.0,0.0,0.0,0.0,0.0,-4.0626,-4.0694,-4.0776,-4.0859,-4.0932,-4.0913,0.0,0.0,0.0,0.0,0.0,0.0,0.0,0.0,0.0,0.0,0.0,0.0,0.0,0.0,0.0,0.0,0.0,0.0,0.0,0.0,0.0,0.0,0.0,0.0,0.0,0.0,0.0,0.0,0.0,0.0,0.0,0.0,0.0,0.0,0.0,0.0,0.0,0.0,-4.5893,-4.5922,0.0,0.0,-4.608,-4.6166,-4.6546,-4.7021,-4.7462,-4.7809,-4.8505,-4.909,-4.9057,0.0,-4.9431,-4.9388,-4.8993,-4.8451,-4.7758,-4.6832,-4.5893,0.0,0.0,0.0,0.0,0.0,0.0,0.0,0.0,0.0,0.0,0.0,0.0,0.0,0.0,0.0,-4.3166,-4.32,-4.3064,-4.2743,-4.2743,-4.2591,-4.2286,-4.2286,-4.2066,-4.1644,-4.1644,-4.1407,-4.095,-4.0663,-4.0527,-4.051,-4.0206,0.0,0.0,-4.007,-4.007,-4.007,-4.007,-4.007,-4.007,-4.007,-4.007,-4.007,0.0,0.0,0.0,0.0,0.0,0.0,-4.0476,-4.0558,-4.0617,-4.0687,-4.0761,-4.0819,-4.0897,-4.0878,-4.0869,0.0,0.0,0.0,0.0,0.0,0.0,0.0,0.0,0.0,0.0,0.0,0.0,0.0,0.0,0.0,0.0,0.0,0.0,0.0,0.0,0.0,0.0,0.0,0.0,0.0,0.0,0.0,0.0,0.0,0.0,0.0,0.0,0.0,0.0,0.0,0.0,0.0,0.0,0.0,0.0,0.0,-4.5953,-4.5975,-4.6026,-4.6455,-4.6892,-4.6888,-4.7486,-4.8031,0.0,0.0,-4.8327,-4.8279,-4.7966,-4.7473,-4.668,-4.6115,-4.5394,0.0,0.0,0.0,0.0,0.0,0.0,0.0,0.0,0.0,0.0,0.0,0.0,0.0,0.0,0.0,0.0,-4.1644,-4.1745,-4.1965,-4.1965,-4.1863,-4.1644,-4.1644,-4.1373,-4.0865,-4.0865,-4.0595,-4.007,-4.007,-4.007,-4.007,0.0,0.0,0.0,-4.007,-4.007,-4.007,-4.007,-4.007,-4.007,-4.007,-4.007,-4.007,0.0,0.0,0.0,0.0,0.0,0.0,0.0,0.0,-4.0617,-4.0687,-4.0752,-4.0823,0.0,0.0,0.0,0.0,0.0,0.0,0.0,0.0,0.0,0.0,0.0,0.0,0.0,0.0,0.0,0.0,0.0,0.0,0.0,0.0,0.0,0.0,0.0,0.0,0.0,0.0,0.0,0.0,0.0,0.0,0.0,0.0,0.0,0.0,0.0,0.0,0.0,0.0,0.0,0.0,0.0,0.0,0.0,0.0,-4.5847,-4.5906,-4.5906,-4.5906,-4.5906,-4.5906,-4.6457,-4.7017,0.0,0.0,-4.8195,-4.8214,-4.7451,-4.6743,-4.6459,-4.5589,-4.4726,-4.4181,0.0,0.0,0.0,0.0,0.0,0.0,0.0,0.0,0.0,0.0,0.0,0.0,0.0,0.0,0.0,-4.0104,-4.0443,-4.1187,-4.1221,-4.0849,-4.0104,-4.0104,-4.0104,-4.0087,-4.0087,-4.0087,-4.007,-4.007,-4.007,0.0,0.0,0.0,0.0,-4.007,-4.007,-4.007,-4.007,-4.007,-4.007,-4.007,-4.007,-4.007,0.0,0.0,0.0,0.0,0.0,0.0,0.0,0.0,-4.0766,-4.1427,0.0,0.0,0.0,0.0,0.0,0.0,0.0,0.0,0.0,0.0,0.0,0.0,0.0,0.0,0.0,0.0,0.0,0.0,0.0,0.0,0.0,0.0,0.0,0.0,0.0,0.0,0.0,0.0,0.0,0.0,0.0,0.0,0.0,0.0,0.0,0.0,0.0,0.0,0.0,0.0,0.0,0.0,0.0,0.0,0.0,0.0,0.0,0.0,-4.5761,-4.5761,-4.5761,-4.577,-4.5931,-4.6092,-4.6056,-4.6234,-4.6429,-4.6429,-4.6109,-4.5801,-4.5617,-4.5028,-4.4476,-4.4151,-4.386,0.0,0.0,0.0,0.0,0.0,0.0,0.0,0.0,0.0,0.0,0.0,0.0,0.0,0.0,-4.007,-4.0189,-4.0426,-4.0443,-4.0324,-4.007,-4.007,-4.007,-4.007,-4.007,-4.007,-4.007,-4.007,0.0,0.0,0.0,0.0,0.0,-4.007,-4.007,-4.007,-4.007,-4.007,-4.007,-4.007,-4.007,-4.007,0.0,0.0,0.0,0.0,0.0,0.0,0.0,0.0,-4.1296,-4.2225,0.0,0.0,0.0,0.0,0.0,0.0,0.0,0.0,0.0,0.0,0.0,0.0,0.0,0.0,0.0,0.0,0.0,0.0,0.0,0.0,0.0,0.0,0.0,0.0,0.0,0.0,0.0,0.0,0.0,0.0,0.0,0.0,-4.0527,0.0,0.0,0.0,0.0,0.0,0.0,0.0,0.0,0.0,0.0,0.0,0.0,0.0,-4.564,0.0,0.0,-4.5651,-4.5651,-4.5657,-4.5657,0.0,0.0,-4.5586,-4.5586,-4.5568,-4.5477,-4.5338,-4.5125,-4.4714,-4.4318,-4.4079,-4.3781,0.0,0.0,0.0,0.0,0.0,0.0,0.0,0.0,0.0,0.0,0.0,0.0,0.0,0.0,-4.007,-4.007,-4.007,-4.007,-4.007,-4.007,-4.007,-4.007,-4.007,-4.007,-4.007,-4.007,-4.007,0.0,0.0,0.0,0.0,0.0,-4.007,-4.007,-4.007,-4.007,-4.007,-4.007,-4.007,-4.007,-4.007,0.0,0.0,0.0,0.0,0.0,0.0,0.0,0.0,0.0,0.0,0.0,0.0,0.0,0.0,0.0,0.0,0.0,0.0,0.0,0.0,0.0,0.0,0.0,0.0,0.0,0.0,0.0,0.0,-4.0489,-4.0489,-4.0489,0.0,0.0,0.0,0.0,0.0,0.0,0.0,0.0,0.0,0.0,0.0,0.0,0.0,0.0,0.0,0.0,0.0,0.0,0.0,0.0,0.0,0.0,0.0,0.0,0.0,0.0,0.0,0.0,0.0,0.0,0.0,0.0,0.0,0.0,-4.5605,0.0,-4.5513,-4.5419,-4.5275,-4.4943,-4.461,-4.426,-4.3942,-4.3734,0.0,0.0,0.0,0.0,0.0,0.0,0.0,0.0,0.0,0.0,0.0,0.0,0.0,0.0,-4.007,-4.007,-4.007,-4.007,-4.007,-4.007,-4.007,-4.007,-4.007,-4.007,-4.007,-4.007,-4.007,0.0,0.0,0.0,0.0,0.0,-4.007,-4.007,-4.007,-4.007,-4.007,-4.007,-4.007,-4.007,-4.007,0.0,0.0,0.0,0.0,0.0,0.0,0.0,0.0,0.0,0.0,0.0,0.0,0.0,0.0,0.0,0.0,0.0,0.0,0.0,0.0,0.0,0.0,0.0,0.0,0.0,0.0,0.0,-4.0489,-4.0489,-4.0489,-4.0489,-4.0489,0.0,0.0,0.0,0.0,0.0,0.0,0.0,0.0,0.0,0.0,0.0,0.0,0.0,0.0,-4.422,-4.4855,0.0,0.0,0.0,0.0,0.0,0.0,0.0,0.0,-4.5586,-4.5586,-4.5586,0.0,-4.5586,-4.5586,-4.5586,-4.5586,0.0,-4.5568,-4.5495,-4.5438,0.0,0.0,-4.487,-4.4467,-4.4091,-4.3929,-4.3701,0.0,0.0,0.0,0.0,0.0,0.0,0.0,0.0,0.0,0.0,0.0,0.0,0.0,0.0,-4.007,-4.007,-4.007,-4.007,-4.007,-4.007,-4.007,-4.007,-4.007,-4.007,-4.007,-4.007,-4.007,0.0,0.0,0.0,0.0,-4.007,-4.007,-4.007,-4.007,-4.007,-4.007,-4.007,-4.007,-4.007,-4.007,0.0,0.0,0.0,0.0,0.0,0.0,0.0,0.0,0.0,0.0,0.0,0.0,0.0,0.0,0.0,0.0,0.0,0.0,0.0,0.0,0.0,0.0,0.0,0.0,0.0,0.0,0.0,0.0,0.0,-4.0495,0.0,0.0,0.0,0.0,0.0,0.0,0.0,0.0,0.0,0.0,-4.1342,0.0,0.0,0.0,0.0,0.0,-4.4633,-4.5055,0.0,-4.5458,-4.5477,-4.5515,0.0,0.0,0.0,0.0,-4.5568,-4.5568,-4.5568,-4.5568,-4.5586,-4.5586,-4.5568,-4.5568,-4.5568,0.0,0.0,0.0,0.0,0.0,0.0,0.0,0.0,0.0,-4.3615,0.0,0.0,0.0,0.0,0.0,0.0,0.0,0.0,0.0,0.0,0.0,0.0,0.0,0.0,-4.007,-4.007,-4.007,-4.007,-4.007,-4.007,-4.007,-4.007,-4.007,-4.007,-4.007,-4.007,-4.007,-4.007,0.0,0.0,0.0,-4.007,-4.007,-4.007,-4.007,-4.007,-4.007,-4.007,-4.007,-4.007,-4.007,0.0,0.0,0.0,0.0,0.0,0.0,0.0,0.0,0.0,0.0,0.0,0.0,0.0,0.0,0.0,0.0,0.0,0.0,0.0,0.0,0.0,0.0,0.0,0.0,0.0,0.0,0.0,0.0,0.0,0.0,0.0,0.0,0.0,0.0,0.0,0.0,0.0,0.0,0.0,0.0,-4.2468,0.0,0.0,0.0,0.0,0.0,0.0,0.0,0.0,-4.5275,-4.5317,-4.5378,-4.5378,0.0,0.0,0.0,0.0,0.0,-4.5457,-4.5514,-4.555,-4.555,-4.5532,-4.5457,-4.5457,0.0,0.0,0.0,0.0,0.0,0.0,0.0,0.0,0.0,0.0,0.0,0.0,0.0,0.0,0.0,0.0,0.0,0.0,0.0,0.0,0.0,0.0,0.0,0.0,-4.007,-4.007,-4.007,-4.007,-4.007,-4.007,-4.007,-4.007,-4.007,-4.007,-4.007,-4.007,-4.007,-4.007,0.0,0.0,0.0,-4.007,-4.007,-4.007,-4.007,-4.007,-4.007,-4.007,-4.007,-4.007,-4.0054,0.0,0.0,0.0,0.0,0.0,0.0,0.0,0.0,0.0,0.0,0.0,0.0,0.0,0.0,0.0,0.0,0.0,0.0,0.0,0.0,0.0,0.0,0.0,0.0,0.0,0.0,0.0,0.0,0.0,0.0,-4.2374,-4.2276,-4.2153,0.0,0.0,0.0,-4.1825,-4.1938,-4.1995,-4.1995,-4.1995,0.0,0.0,0.0,0.0,0.0,0.0,0.0,0.0,-4.5125,-4.5148,-4.5148,-4.5213,0.0,0.0,0.0,0.0,0.0,-4.5256,-4.5256,-4.5277,-4.5399,-4.5379,-4.5338,-4.5256,0.0,0.0,0.0,0.0,0.0,0.0,0.0,0.0,0.0,0.0,0.0,0.0,0.0,0.0,0.0,0.0,0.0,0.0,0.0,0.0,0.0,0.0,0.0,0.0,-4.007,-4.007,-4.007,-4.007,-4.007,-4.007,-4.007,-4.007,-4.007,-4.007,-4.007,-4.007,-4.007,-4.007,0.0,0.0,-4.007,-4.007,-4.007,-4.007,-4.007,-4.007,-4.007,-4.007,-4.007,-4.007,-3.9986,0.0,0.0,0.0,0.0,0.0,0.0,0.0,0.0,0.0,0.0,0.0,0.0,0.0,0.0,0.0,0.0,0.0,0.0,0.0,0.0,0.0,0.0,0.0,0.0,0.0,0.0,0.0,0.0,0.0,-4.2677,-4.2533,-4.2314,-4.2146,-4.1987,0.0,0.0,-4.2473,-4.2874,-4.3013,-4.3032,0.0,0.0,0.0,0.0,0.0,0.0,0.0,0.0,0.0,0.0,-4.4662,-4.4739,-4.4764,0.0,0.0,0.0,0.0,0.0,-4.5057,-4.49,-4.4789,-4.4838,-4.4972,-4.508,-4.5038,0.0,0.0,0.0,0.0,0.0,0.0,0.0,0.0,0.0,0.0,0.0,0.0,0.0,0.0,0.0,0.0,0.0,0.0,0.0,0.0,0.0,0.0,0.0,0.0,0.0,-4.007,-4.007,-4.007,-4.007,-4.007,-4.007,-4.007,-4.007,-4.007,-4.007,-4.007,-4.007,-4.007,-4.007,0.0,-4.007,-4.007,-4.007,-4.007,-4.007,-4.007,-4.007,-4.002,-3.9631,-3.9495,-3.9377,0.0,0.0,0.0,0.0,0.0,0.0,0.0,0.0,0.0,0.0,0.0,0.0,0.0,0.0,0.0,0.0,0.0,0.0,0.0,0.0,0.0,0.0,0.0,0.0,0.0,0.0,-4.4536,-4.4423,-4.3594,-4.3057,-4.281,-4.2524,-4.2324,0.0,0.0,0.0,-4.3083,-4.3682,-4.391,-4.391,0.0,0.0,0.0,0.0,0.0,0.0,0.0,0.0,0.0,0.0,0.0,0.0,0.0,0.0,0.0,-4.4726,-4.4726,-4.4726,-4.4726,-4.4549,-4.4318,-4.4318,0.0,-4.4726,-4.4726,0.0,0.0,0.0,0.0,0.0,0.0,0.0,0.0,0.0,0.0,0.0,0.0,0.0,0.0,0.0,0.0,0.0,0.0,0.0,0.0,0.0,0.0,0.0,0.0,0.0,-4.0138,-4.0138,-4.0138,-4.007,-4.007,-4.007,-4.007,-4.007,-4.007,-4.007,-4.007,-4.007,-4.007,-4.007,-4.007,-4.007,-4.007,-4.007,-4.007,-4.007,-4.007,-3.9969,-3.9749,-3.9191,-3.8768,-3.8396,0.0,0.0,0.0,0.0,0.0,0.0,0.0,0.0,0.0,0.0,0.0,0.0,0.0,0.0,0.0,0.0,0.0,0.0,0.0,0.0,0.0,0.0,0.0,0.0,0.0,-4.5493,-4.5304,-4.5145,-4.4935,-4.4562,-4.4082,-4.3923,-4.3806,-4.3743,0.0,0.0,-4.3542,-4.3597,-4.3615,-4.3615,-4.3649,0.0,0.0,0.0,0.0,0.0,0.0,0.0,0.0,0.0,0.0,0.0,0.0,0.0,-4.4181,-4.4221,-4.425,-4.424,-4.4181,-4.4121,-4.4091,-4.4048,-4.4121,0.0,-4.4181,-4.4109,0.0,0.0,0.0,0.0,0.0,0.0,0.0,0.0,0.0,0.0,0.0,0.0,0.0,0.0,0.0,0.0,0.0,0.0,0.0,0.0,0.0,0.0,0.0,0.0,0.0,-4.0305,-4.0188,-4.007,-4.007,-4.007,-4.007,-4.007,-4.007,-4.007,-4.007,-4.007,-4.007,-4.007,-4.007,-4.007,-4.007,-4.007,-4.007,-4.007,-4.007,-3.9665,-3.9056,-3.9005,-3.8125,-3.6924,0.0,0.0,0.0,0.0,0.0,0.0,0.0,0.0,0.0,0.0,0.0,0.0,0.0,0.0,0.0,0.0,0.0,0.0,0.0,0.0,0.0,0.0,0.0,-4.5321,-4.536,-4.5339,-4.5197,-4.5019,-4.4629,-4.4269,-4.3961,-4.3814,0.0,0.0,0.0,0.0,-4.3532,-4.3532,-4.3532,-4.3532,-4.3532,-4.3582,0.0,0.0,0.0,0.0,0.0,0.0,0.0,0.0,-4.3716,-4.3749,0.0,0.0,-4.3974,-4.4005,-4.3986,-4.4005,-4.3974,-4.386,-4.3763,-4.3749,-4.3763,0.0,0.0,0.0,0.0,0.0,0.0,0.0,0.0,0.0,0.0,0.0,0.0,0.0,0.0,0.0,0.0,0.0,0.0,0.0,0.0,0.0,0.0,0.0,0.0,0.0,0.0,0.0,0.0,-4.0436,-4.0288,-4.0188,-4.007,-4.007,-4.007,-4.007,-4.007,-4.007,-4.007,-4.007,-4.007,-4.007,-4.007,-4.007,-4.007,-4.007,-4.007,-4.0037,-3.958,-3.9242,-3.8886,-3.7956,-3.7263,-3.6705,0.0,0.0,0.0,0.0,0.0,0.0,0.0,0.0,0.0,0.0,0.0,0.0,0.0,0.0,0.0,0.0,0.0,0.0,0.0,0.0,0.0,0.0,0.0,-4.5109,-4.5014,-4.4948,-4.49,-4.4821,-4.4317,-4.3942,-4.3719,0.0,0.0,0.0,0.0,0.0,0.0,-4.3497,-4.3497,-4.3497,-4.3497,-4.3497,0.0,0.0,0.0,0.0,0.0,0.0,0.0,0.0,0.0,0.0,0.0,0.0,0.0,0.0,-4.3767,-4.3767,-4.3767,-4.3649,-4.3548,0.0,0.0,0.0,0.0,0.0,0.0,0.0,0.0,0.0,0.0,0.0,0.0,0.0,0.0,0.0,0.0,0.0,0.0,0.0,0.0,0.0,0.0,0.0,0.0,0.0,0.0,0.0,0.0,0.0,0.0,0.0,-4.0387,-4.0255,-4.007,-4.007,-4.007,-4.007,-4.007,-4.007,-4.007,-4.007,-4.007,-4.007,-4.007,-4.007,-4.007,-4.007,-3.9935,-3.9665,-3.8937,-3.8497,-3.8176,-3.7097,-3.6574,-3.6257,0.0,0.0,0.0,0.0,0.0,0.0,0.0,0.0,0.0,0.0,0.0,0.0,0.0,0.0,0.0,0.0,0.0,0.0,0.0,0.0,0.0,0.0,0.0,-4.487,-4.4605,-4.4412,-4.4439,-4.4685,-4.4158,-4.38,-4.3582,-4.3513,0.0,0.0,0.0,0.0,0.0,0.0,-4.3497,-4.3497,-4.3497,-4.3497,-4.3497,0.0,0.0,0.0,0.0,0.0,0.0,0.0,-4.3497,0.0,0.0,0.0,0.0,0.0,-4.3497,-4.3497,-4.3497,-4.3497,-4.3479,0.0,0.0,0.0,0.0,0.0,0.0,0.0,0.0,0.0,0.0,0.0,0.0,0.0,0.0,0.0,0.0,0.0,0.0,0.0,0.0,0.0,0.0,0.0,0.0,0.0,0.0,0.0,0.0,0.0,0.0,0.0,-4.0453,-4.0238,-4.007,-4.007,-4.007,-4.007,-4.007,-4.007,-4.007,-4.007,-4.007,-4.007,-4.007,-4.007,-4.007,-4.0054,-3.9631,-3.8903,-3.8176,-3.7432,-3.6772,-3.6616,-3.6114,-3.54,0.0,0.0,0.0,0.0,0.0,0.0,0.0,0.0,0.0,0.0,0.0,0.0,0.0,0.0,0.0,0.0,0.0,0.0,0.0,0.0,0.0,0.0,0.0,0.0,0.0,0.0,-4.4036,-4.4055,-4.3814,-4.3615,0.0,0.0,0.0,-4.3497,0.0,0.0,0.0,0.0,-4.3497,-4.3497,-4.3497,-4.3497,-4.3497,0.0,0.0,0.0,0.0,0.0,0.0,0.0,0.0,0.0,0.0,0.0,0.0,-4.3411,-4.334,-4.3233,-4.3233,-4.3142,0.0,-4.3087,0.0,0.0,0.0,0.0,0.0,0.0,0.0,0.0,0.0,0.0,0.0,0.0,0.0,0.0,0.0,0.0,0.0,0.0,0.0,0.0,0.0,0.0,0.0,0.0,0.0,0.0,0.0,0.0,0.0,0.0,-4.0583,-4.0337,-4.007,-4.007,-4.007,-4.007,-4.007,-4.007,-4.007,-4.007,-4.007,-4.007,-4.007,-3.9783,-3.9276,-3.8768,-3.8364,-3.7997,-3.7239,-3.6723,-3.6312,-3.5746,-3.5271,-3.4899,0.0,0.0,0.0,0.0,0.0,0.0,0.0,0.0,0.0,0.0,0.0,0.0,0.0,0.0,0.0,0.0,0.0,0.0,0.0,0.0,0.0,0.0,0.0,0.0,0.0,-4.3814,-4.3701,0.0,0.0,0.0,0.0,0.0,0.0,-4.3497,0.0,-4.3497,0.0,0.0,-4.3463,-4.3428,-4.3358,-4.3322,-4.334,0.0,0.0,0.0,0.0,0.0,0.0,0.0,0.0,0.0,0.0,0.0,0.0,-4.3142,-4.3031,-4.2918,-4.2899,-4.2842,0.0,-4.2786,-4.2842,-4.2899,-4.2918,0.0,0.0,0.0,0.0,0.0,0.0,0.0,0.0,0.0,0.0,0.0,0.0,0.0,0.0,0.0,0.0,0.0,0.0,0.0,0.0,0.0,0.0,0.0,0.0,0.0,0.0,0.0,-4.0534,-4.0337,-4.007,-4.007,-4.007,-4.007,-4.007,-4.007,-4.007,-4.007,-4.007,-4.0054,-3.9766,-3.9225,-3.8514,-3.777,-3.7401,-3.7175,-3.6387,-3.5944,-3.564,-3.5,-3.4643,-3.4399,0.0,0.0,0.0,0.0,0.0,0.0,0.0,0.0,0.0,0.0,0.0,0.0,0.0,0.0,0.0,0.0,0.0,0.0,0.0,0.0,0.0,0.0,0.0,0.0,0.0,0.0,0.0,0.0,0.0,0.0,0.0,0.0,-4.3497,-4.3497,0.0,-4.3497,0.0,-4.3411,-4.3376,-4.334,-4.3123,-4.3067,-4.303,-4.29,0.0,0.0,0.0,0.0,0.0,0.0,0.0,0.0,-4.2882,0.0,-4.2806,-4.2711,-4.2634,-4.2595,-4.2512,0.0,0.0,-4.2472,-4.2472,0.0,-4.2634,0.0,0.0,0.0,0.0,0.0,0.0,0.0,0.0,0.0,0.0,0.0,0.0,0.0,0.0,0.0,0.0,0.0,0.0,0.0,0.0,0.0,0.0,0.0,0.0,0.0,0.0,-4.0745,-4.0453,-4.0238,-4.007,-4.007,-4.007,0.0,-4.007,-4.0037,-3.9986,-3.9986,-3.9935,-3.9834,-3.9106,-3.8413,-3.7736,-3.6992,-3.6624,-3.64,-3.5589,-3.5088,-3.4804,-3.4399,-3.4151,-3.3882,0.0,0.0,0.0,0.0,0.0,0.0,0.0,0.0,0.0,0.0,0.0,0.0,0.0,0.0,0.0,0.0,0.0,0.0,0.0,0.0,0.0,0.0,0.0,0.0,0.0,0.0,0.0,0.0,0.0,0.0,0.0,0.0,0.0,-4.3497,0.0,-4.3463,-4.3411,-4.3286,-4.3142,-4.3013,-4.2844,-4.2747,-4.2688,-4.2688,-4.267,0.0,0.0,0.0,0.0,0.0,0.0,0.0,-4.267,-4.2534,-4.2338,-4.2338,-4.2092,-4.1831,-4.1805,-4.1657,0.0,0.0,-4.1657,-4.1892,0.0,0.0,0.0,0.0,0.0,0.0,0.0,0.0,0.0,0.0,0.0,0.0,0.0,0.0,0.0,0.0,0.0,0.0,0.0,0.0,0.0,0.0,0.0,0.0,0.0,0.0,0.0,-4.0871,-4.0583,-4.032,-4.007,-4.007,-4.007,0.0,-4.007,-3.9783,-3.9225,-3.9225,-3.892,-3.8328,-3.7584,-3.7161,-3.6975,-3.618,-3.5739,-3.5555,-3.5155,-3.4691,-3.4201,-3.3797,-3.3419,-3.3018,0.0,0.0,0.0,0.0,0.0,0.0,0.0,0.0,0.0,0.0,0.0,0.0,0.0,0.0,0.0,0.0,0.0,0.0,0.0,0.0,0.0,0.0,0.0,0.0,0.0,0.0,0.0,0.0,0.0,0.0,0.0,0.0,0.0,-4.3497,0.0,-4.3463,-4.3376,-4.3142,-4.2938,-4.2747,-4.2378,-4.2192,-4.2103,-4.2002,-4.1941,-4.1941,-4.1941,0.0,0.0,0.0,0.0,0.0,0.0,0.0,-4.1709,-4.1648,-4.1463,-4.1318,0.0,0.0,0.0,0.0,0.0,0.0,0.0,0.0,0.0,0.0,0.0,0.0,0.0,0.0,0.0,0.0,0.0,0.0,0.0,0.0,0.0,0.0,0.0,0.0,0.0,0.0,0.0,0.0,0.0,0.0,0.0,-4.1762,-4.1272,-4.084,-4.0534,-4.0288,-4.007,-4.007,-3.9901,-3.9546,-3.9546,-3.8988,-3.7956,-3.8311,-3.8075,-3.7347,-3.6958,-3.6569,-3.6197,-3.5763,-3.5412,-3.5198,-3.4851,-3.4399,-3.3848,-3.3366,-3.2926,-3.2547,0.0,0.0,0.0,0.0,0.0,0.0,0.0,0.0,0.0,0.0,0.0,0.0,0.0,0.0,0.0,0.0,0.0,0.0,0.0,0.0,0.0,0.0,0.0,0.0,0.0,0.0,0.0,0.0,0.0,0.0,0.0,0.0,0.0,-4.3497,0.0,0.0,-4.3305,-4.2975,-4.2652,-4.2391,-4.1839,-4.1552,-4.1453,-4.1209,-4.1163,-4.1163,-4.1163,-4.1163,-4.1163,-4.1163,0.0,0.0,0.0,0.0,-4.1071,-4.0977,-4.0948,-4.0853,0.0,0.0,0.0,0.0,0.0,0.0,0.0,0.0,0.0,0.0,0.0,0.0,0.0,0.0,0.0,0.0,0.0,0.0,0.0,0.0,0.0,0.0,0.0,0.0,0.0,0.0,0.0,0.0,0.0,0.0,-4.2145,-4.1657,-4.1226,-4.0697,-4.0453,-4.0187,-3.9884,-3.9884,-3.9529,-3.8802,-3.8667,-3.7973,-3.6806,-3.7297,-3.7178,-3.6586,-3.6586,-3.6185,-3.5577,-3.5475,-3.5291,-3.4994,-3.4546,-3.4034,-3.3523,-3.2911,-3.2547,-3.2247,0.0,0.0,0.0,0.0,0.0,0.0,0.0,0.0,0.0,0.0,0.0,0.0,0.0,0.0,0.0,0.0,0.0,0.0,-4.4745,0.0,0.0,-4.3513,-4.3479,0.0,0.0,0.0,0.0,0.0,0.0,0.0,0.0,0.0,0.0,-4.3429,0.0,0.0,0.0,-4.2595,-4.2216,-4.1796,-4.1418,-4.118,-4.0965,-4.0965,-4.0918,-4.0918,-4.0918,-4.0918,-4.0918,-4.0918,-4.0918,0.0,0.0,0.0,-4.0745,-4.0745,-4.0583,-4.0387,0.0,0.0,0.0,0.0,0.0,0.0,0.0,0.0,0.0,0.0,0.0,0.0,0.0,0.0,0.0,0.0,0.0,0.0,0.0,0.0,0.0,0.0,0.0,0.0,0.0,0.0,0.0,0.0,0.0,0.0,-4.2145,-4.1762,-4.1272,-4.0697,-4.0534,-4.0031,-3.914,-3.914,-3.8768,-3.8041,-3.7398,-3.6975,-3.6755,-3.618,-3.5876,-3.5774,-3.5717,-3.5621,-3.5492,-3.5245,-3.4994,-3.4691,-3.4201,-3.361,-3.3002,-3.2492,-3.2094,-3.1841,0.0,0.0,0.0,0.0,0.0,0.0,0.0,0.0,0.0,0.0,0.0,0.0,0.0,0.0,0.0,-4.7205,-4.6838,-4.6049,-4.4782,-4.3956,-4.3497,-4.3497,-4.3497,-4.3497,0.0,0.0,0.0,0.0,0.0,0.0,0.0,-4.3323,-4.3233,0.0,0.0,0.0,0.0,0.0,-4.1881,-4.1507,-4.1088,-4.0776,-4.0551,-4.0485,-4.0419,-4.0419,-4.0419,-4.0419,-4.0419,-4.0419,-4.0419,-4.0419,-4.0419,0.0,0.0,0.0,-4.0288,0.0,-3.9679,0.0,0.0,0.0,0.0,0.0,0.0,0.0,0.0,0.0,0.0,0.0,0.0,0.0,0.0,0.0,0.0,0.0,0.0,0.0,0.0,0.0,0.0,0.0,0.0,0.0,0.0,0.0,0.0,-4.101,-4.0541,-4.0202,-3.9805,-3.9316,-3.9238,-3.8894,-3.8396,-3.8379,-3.8007,-3.7263,-3.6502,-3.6129,-3.6129,-3.5774,-3.5594,-3.552,-3.5429,-3.5291,-3.5152,-3.4787,-3.4497,-3.4184,-3.361,-3.3124,-3.2749,-3.2247,-3.194,-3.1784,0.0,0.0,0.0,0.0,0.0,0.0,0.0,0.0,0.0,0.0,0.0,0.0,0.0,0.0,0.0,0.0,-4.7572,-4.6434,-4.4819,-4.3956,-4.3497,-4.3497,-4.3497,-4.3497,-4.3497,0.0,0.0,0.0,0.0,0.0,-4.334,-4.3123,-4.2994,0.0,-4.2824,0.0,0.0,0.0,0.0,0.0,0.0,0.0,0.0,0.0,0.0,-4.007,-4.007,-4.007,-4.007,-4.007,-4.007,-4.007,-4.007,-4.007,0.0,0.0,0.0,0.0,0.0,0.0,0.0,0.0,0.0,0.0,0.0,0.0,0.0,0.0,0.0,0.0,0.0,0.0,0.0,0.0,0.0,0.0,0.0,0.0,0.0,0.0,0.0,0.0,0.0,0.0,0.0,0.0,0.0,-3.9682,-3.921,-3.8972,-3.8622,-3.8184,-3.8108,-3.7946,-3.7618,-3.7432,-3.7043,-3.6485,-3.5893,-3.5622,-3.5622,-3.5622,-3.5549,-3.54,-3.5245,-3.5041,-3.4739,-3.43,-3.3933,-3.3626,-3.3055,-3.2695,-3.2398,-3.2094,-3.1826,-3.1727,0.0,0.0,0.0,0.0,0.0,0.0,0.0,0.0,0.0,0.0,0.0,0.0,0.0,-4.6636,-4.7443,-4.8233,-4.7572,-4.6434,-4.4819,-4.3956,-4.3497,-4.3497,-4.3497,0.0,-4.3497,0.0,0.0,0.0,0.0,0.0,-4.3214,-4.2864,-4.2537,-4.2239,-4.231,-4.2187,-4.1917,0.0,0.0,0.0,0.0,0.0,0.0,0.0,0.0,0.0,0.0,0.0,-4.007,-4.007,-4.007,-4.007,-4.007,-4.007,-3.9935,0.0,0.0,0.0,0.0,0.0,0.0,0.0,0.0,0.0,0.0,0.0,0.0,0.0,0.0,0.0,0.0,0.0,0.0,0.0,0.0,0.0,0.0,0.0,0.0,0.0,0.0,0.0,0.0,0.0,0.0,0.0,0.0,-3.9562,-3.8946,-3.8851,-3.8594,-3.8125,-3.8125,-3.7691,-3.6857,-3.6113,-3.5723,-3.5673,-3.5639,-3.5622,-3.5622,-3.5622,-3.5396,-3.5088,-3.4994,-3.4756,-3.4448,-3.3797,-3.3366,-3.3002,-3.2586,-3.2247,-3.1996,-3.1841,-3.167,-3.1539,0.0,0.0,0.0,0.0,0.0,0.0,0.0,0.0,0.0,0.0,0.0,0.0,0.0,-4.5828,-4.6452,-4.6728,-4.603,-4.5314,-4.4745,-4.3956,-4.3497,-4.3497,-4.3497,-4.3497,-4.3497,0.0,0.0,0.0,0.0,-4.3123,-4.2864,-4.2537,-4.2175,-4.1831,-4.1849,-4.1719,-4.1436,-4.1041,0.0,0.0,0.0,0.0,0.0,0.0,0.0,0.0,0.0,0.0,0.0,-3.9694,-3.9694,-3.9662,-3.9176,-3.9143,-3.9159,-3.8466,-3.777,0.0,0.0,0.0,0.0,0.0,0.0,0.0,0.0,0.0,0.0,0.0,0.0,0.0,0.0,0.0,0.0,0.0,0.0,0.0,0.0,0.0,0.0,0.0,0.0,0.0,0.0,0.0,0.0,0.0,0.0,0.0,-3.7051,-3.6938,-3.6751,-3.6525,-3.648,-3.6361,-3.6045,-3.5757,-3.5622,-3.5622,-3.5622,-3.5622,-3.5622,-3.5549,-3.5383,-3.5088,-3.4594,-3.4201,-3.3797,-3.3245,-3.2819,-3.2453,-3.215,-3.194,-3.1841,-3.1655,-3.1539,-3.1482,0.0,0.0,0.0,0.0,0.0,0.0,0.0,0.0,0.0,0.0,0.0,0.0,0.0,0.0,-4.5389,-4.548,-4.4949,-4.4527,-4.4288,-4.3775,-4.3428,-4.3358,-4.3358,-4.3339,-4.3304,0.0,0.0,0.0,0.0,0.0,0.0,0.0,-4.177,-4.1408,-4.1272,-4.118,0.0,0.0,0.0,-4.0436,0.0,0.0,-4.0037,0.0,0.0,0.0,0.0,0.0,0.0,0.0,-3.8579,-3.8496,-3.8066,-3.7886,-3.7868,-3.7461,0.0,0.0,0.0,0.0,0.0,0.0,0.0,0.0,0.0,0.0,0.0,0.0,0.0,0.0,0.0,0.0,0.0,0.0,0.0,0.0,0.0,0.0,0.0,0.0,0.0,0.0,0.0,0.0,0.0,0.0,0.0,0.0,-3.5932,-3.5861,-3.5728,-3.5622,-3.5622,-3.5622,-3.5622,-3.5622,-3.5622,-3.5622,-3.5622,-3.5622,-3.5577,-3.552,-3.5291,-3.4947,-3.4349,-3.3832,-3.3382,-3.2819,-3.2398,-3.2038,-3.1784,-3.1727,-3.167,-3.1539,-3.1482,-3.1482,0.0,0.0,0.0,0.0,0.0,0.0,0.0,0.0,0.0,0.0,0.0,0.0,0.0,0.0,0.0,-4.4529,-4.4565,-4.4236,-4.3431,-4.3394,-4.3287,-4.3104,-4.3067,-4.3012,-4.2882,0.0,0.0,0.0,0.0,0.0,0.0,0.0,-4.1363,0.0,-4.0662,-4.0566,-4.0614,0.0,-4.0288,-4.0221,0.0,-3.985,-3.9782,0.0,0.0,0.0,-3.8025,-3.7458,0.0,-3.6694,0.0,0.0,0.0,0.0,0.0,0.0,0.0,0.0,0.0,0.0,0.0,0.0,0.0,0.0,0.0,0.0,0.0,0.0,0.0,0.0,0.0,0.0,0.0,0.0,0.0,0.0,0.0,0.0,0.0,0.0,0.0,0.0,0.0,0.0,0.0,0.0,0.0,-3.6079,-3.5817,-3.5773,-3.5728,-3.5622,-3.5622,-3.5622,-3.5622,-3.5622,-3.5622,-3.5622,-3.5577,-3.5577,-3.5577,-3.552,-3.5198,-3.4643,-3.425,-3.3713,-3.314,-3.2453,-3.2038,-3.1784,-3.1597,-3.1482,-3.1482,-3.1482,-3.1482,-3.1482,0.0,0.0,0.0,0.0,0.0,0.0,0.0,0.0,0.0,0.0,0.0,0.0,0.0,0.0,-4.3208,-4.3358,-4.3451,-4.3415,-4.3196,-4.3105,-4.2975,-4.2806,-4.2747,-4.2727,0.0,0.0,0.0,0.0,0.0,0.0,0.0,0.0,0.0,0.0,-4.0436,-4.0048,-3.9474,-3.9968,0.0,0.0,-3.9026,-3.8505,0.0,0.0,0.0,0.0,0.0,-3.6384,-3.5828,0.0,-3.5774,-3.5748,0.0,0.0,0.0,0.0,0.0,0.0,-3.5152,0.0,0.0,0.0,0.0,0.0,0.0,0.0,0.0,0.0,0.0,0.0,0.0,0.0,0.0,0.0,0.0,0.0,0.0,0.0,0.0,0.0,0.0,0.0,0.0,0.0,0.0,0.0,-3.5756,-3.5711,-3.5667,-3.5667,-3.5622,-3.5622,-3.5622,-3.5622,-3.5622,-3.5622,-3.5622,-3.5622,-3.5566,-3.552,-3.552,-3.5088,-3.4739,-3.4349,-3.3646,-3.3071,-3.2602,-3.2302,-3.1981,-3.1597,-3.1539,-3.1482,-3.1482,-3.1482,-3.1482,-3.1482,0.0,0.0,0.0,0.0,0.0,0.0,0.0,0.0,0.0,0.0,0.0,0.0,0.0,0.0,0.0,-4.2595,-4.2729,-4.2786,-4.2747,-4.2634,-4.2516,-4.2234,-4.221,-4.2145,0.0,0.0,0.0,0.0,0.0,0.0,0.0,0.0,0.0,0.0,0.0,0.0,0.0,0.0,0.0,0.0,-3.8054,0.0,0.0,-3.6522,-3.6011,0.0,0.0,0.0,-3.4242,-3.4187,-3.4187,0.0,0.0,0.0,0.0,0.0,0.0,0.0,0.0,0.0,0.0,0.0,0.0,0.0,-3.4899,-3.4707,0.0,0.0,0.0,0.0,0.0,0.0,0.0,0.0,0.0,0.0,0.0,0.0,0.0,0.0,0.0,0.0,0.0,0.0,0.0,-3.5622,-3.5622,-3.5622,-3.5622,-3.5622,-3.5622,-3.5622,-3.5622,-3.5622,-3.5622,-3.5622,-3.5577,-3.5549,-3.5475,-3.5354,-3.5245,-3.4739,-3.4349,-3.4,-3.3282,-3.2695,-3.2287,-3.2094,-3.1811,-3.1482,-3.1482,-3.1482,-3.1482,-3.1482,-3.1467,-3.1409,0.0,0.0,0.0,0.0,0.0,0.0,0.0,0.0,0.0,0.0,0.0,0.0,0.0,0.0,0.0,0.0,0.0,-4.2257,-4.2133,-4.2133,0.0,0.0,0.0,-4.1408,0.0,0.0,0.0,0.0,0.0,0.0,0.0,0.0,0.0,0.0,0.0,0.0,0.0,0.0,0.0,-3.7347,-3.707,-3.6684,0.0,0.0,-3.4809,0.0,-3.3668,-3.3058,-3.2492,-3.2398,-3.2382,0.0,0.0,0.0,0.0,0.0,-3.3507,0.0,0.0,0.0,0.0,0.0,0.0,0.0,-3.43,-3.4,-3.3797,0.0,0.0,0.0,0.0,0.0,0.0,0.0,0.0,0.0,0.0,0.0,0.0,0.0,0.0,0.0,0.0,-3.5622,-3.5622,-3.5622,-3.5622,-3.5622,-3.5622,-3.5622,-3.5622,-3.5622,-3.5622,-3.5577,-3.5577,-3.5577,-3.5549,-3.5446,-3.5291,-3.5088,-3.4804,-3.4399,-3.4,-3.3591,-3.2964,-3.2492,-3.215,-3.1883,-3.167,-3.1482,-3.1482,-3.1482,-3.1467,-3.1467,-3.1351,-3.1219,-3.6784,0.0,0.0,0.0,0.0,0.0,0.0,0.0,0.0,0.0,0.0,0.0,0.0,0.0,0.0,0.0,0.0,0.0,0.0,0.0,0.0,0.0,-4.1059,-4.1012,0.0,0.0,0.0,0.0,0.0,0.0,0.0,0.0,0.0,0.0,0.0,0.0,0.0,0.0,0.0,-3.5476,-3.5629,0.0,-3.4058,-3.3534,-3.3022,-3.2598,-3.2486,-3.2257,-3.194,0.0,-3.194,-3.1996,0.0,0.0,0.0,0.0,0.0,0.0,0.0,0.0,0.0,0.0,0.0,0.0,-3.3949,-3.3559,-3.3177,0.0,0.0,0.0,0.0,0.0,0.0,0.0,0.0,0.0,0.0,0.0,0.0,0.0,0.0,0.0,0.0,-3.5622,-3.5622,-3.5622,-3.5622,-3.5622,-3.5622,-3.5622,-3.5622,-3.5622,-3.5622,-3.5594,-3.5537,-3.5537,-3.5383,-3.5198,-3.4947,-3.4707,-3.4399,-3.3797,-3.333,-3.2964,-3.2398,-3.2038,-3.1841,-3.1655,-3.1539,-3.1482,-3.1482,-3.1409,-3.1351,-3.1351,-3.1176,-3.0881,-3.6738,0.0,0.0,0.0,0.0,0.0,0.0,0.0,0.0,0.0,0.0,0.0,0.0,0.0,0.0,0.0,0.0,0.0,0.0,0.0,0.0,0.0,-4.0631,-4.0583,-4.0485,0.0,0.0,0.0,0.0,0.0,0.0,0.0,0.0,0.0,0.0,0.0,0.0,0.0,-3.5278,-3.4627,-3.4725,0.0,-3.3193,-3.2711,-3.2287,-3.1996,-3.1868,-3.1754,-3.167,-3.167,-3.167,0.0,0.0,-3.1925,-3.2053,0.0,-3.2302,-3.2437,0.0,0.0,0.0,-3.3298,0.0,0.0,0.0,-3.2873,-3.2602,0.0,0.0,0.0,0.0,0.0,0.0,0.0,0.0,0.0,0.0,0.0,0.0,0.0,0.0,0.0,0.0,-3.5566,-3.5549,-3.5577,-3.5622,-3.5622,-3.5622,-3.5622,-3.5622,-3.5622,-3.5622,-3.5549,-3.5492,-3.5446,-3.5198,-3.4804,-3.4546,-3.4134,-3.3646,-3.3156,-3.278,-3.2492,-3.2094,-3.1841,-3.1784,-3.1597,-3.1467,-3.1409,-3.1409,-3.1278,-3.1146,-3.0984,-3.0687,-3.0251,-3.66,0.0,0.0,0.0,0.0,0.0,0.0,0.0,0.0,0.0,0.0,0.0,0.0,0.0,0.0,0.0,0.0,0.0,0.0,0.0,0.0,0.0,0.0,-4.0188,-4.007,-3.9935,0.0,0.0,0.0,0.0,0.0,0.0,0.0,0.0,0.0,0.0,0.0,0.0,0.0,-3.4151,0.0,-3.3491,-3.2841,-3.2342,-3.194,-3.1727,-3.1539,-3.1482,-3.1482,-3.1482,0.0,-3.1482,-3.1482,-3.1597,0.0,0.0,0.0,0.0,0.0,0.0,0.0,0.0,0.0,-3.2437,0.0,0.0,0.0,0.0,0.0,0.0,0.0,0.0,0.0,0.0,0.0,0.0,0.0,0.0,0.0,0.0,0.0,0.0,0.0,-3.5446,-3.5475,-3.5577,-3.5532,-3.5532,-3.5532,-3.5532,-3.5532,-3.5594,-3.5549,-3.5503,-3.5446,-3.5245,-3.4899,-3.4349,-3.4034,-3.3559,-3.2895,-3.2602,-3.2342,-3.2094,-3.1826,-3.1727,-3.1727,-3.1539,-3.1351,-3.1219,-3.1219,-3.1102,-3.0851,-3.0568,-3.0068,-2.956,-3.6414,-3.6952,0.0,0.0,0.0,0.0,0.0,0.0,0.0,0.0,0.0,0.0,0.0,0.0,0.0,0.0,0.0,0.0,-4.0003,0.0,0.0,0.0,0.0,0.0,-4.007,-3.9445,-3.9106,0.0,0.0,0.0,0.0,0.0,0.0,0.0,-3.5346,0.0,0.0,0.0,-3.4151,0.0,-3.3282,-3.2857,0.0,-3.1981,-3.1727,-3.1539,-3.1539,-3.1482,-3.1482,0.0,-3.1482,-3.1482,0.0,-3.1539,-3.1539,0.0,0.0,0.0,0.0,0.0,0.0,0.0,-3.215,0.0,0.0,0.0,0.0,0.0,0.0,0.0,0.0,0.0,0.0,0.0,0.0,0.0,0.0,0.0,0.0,0.0,0.0,0.0,0.0,0.0,-3.54,-3.5492,-3.5291,-3.5182,-3.5337,-3.5228,-3.5291,-3.5492,-3.5383,-3.5291,-3.5152,-3.4804,-3.43,-3.3797,-3.3335,-3.2895,-3.2437,-3.2191,-3.1996,-3.1841,-3.1597,-3.1539,-3.1539,-3.1409,-3.1219,-3.1029,-3.1029,-3.0792,-3.0312,-3.0007,-2.9498,-2.8853,-3.61,-3.66,0.0,0.0,0.0,0.0,0.0,0.0,0.0,0.0,0.0,0.0,0.0,0.0,0.0,0.0,0.0,-3.9451,0.0,0.0,0.0,0.0,0.0,0.0,0.0,-3.8636,-3.8248,0.0,-3.7618,0.0,0.0,0.0,0.0,0.0,-3.4823,0.0,-3.4151,0.0,0.0,0.0,0.0,0.0,0.0,-3.1841,-3.167,-3.1482,-3.1482,-3.1482,-3.1482,0.0,-3.1482,0.0,0.0,0.0,0.0,0.0,0.0,0.0,0.0,0.0,0.0,0.0,0.0,0.0,-3.1754,0.0,-3.1597,0.0,0.0,0.0,0.0,0.0,0.0,0.0,0.0,0.0,0.0,0.0,0.0,0.0,0.0,0.0,0.0,0.0,0.0,0.0,0.0,-3.4851,-3.4851,-3.4851,-3.4899,-3.5041,-3.5041,-3.4947,-3.4739,-3.4448,-3.3933,-3.3282,-3.2964,-3.2492,-3.2053,-3.1955,-3.1784,-3.1597,-3.1467,-3.1409,-3.1351,-3.1117,-3.0866,-3.0553,-3.0312,-3.0083,-2.9837,-2.9275,-2.8753,-2.8157,-3.5797,0.0,0.0,0.0,0.0,0.0,0.0,0.0,0.0,0.0,0.0,0.0,-3.9798,-3.9573,0.0,0.0,-3.8843,-3.8652,0.0,0.0,-3.8735,0.0,0.0,0.0,0.0,0.0,-3.7393,0.0,0.0,0.0,0.0,0.0,0.0,0.0,0.0,-3.4034,-3.3575,0.0,0.0,-3.2602,-3.2398,-3.2038,-3.167,-3.167,-3.1539,-3.1292,-3.1292,-3.1292,-3.1234,-3.1234,-3.1234,0.0,-3.1234,0.0,0.0,0.0,0.0,0.0,-3.1366,0.0,0.0,0.0,0.0,0.0,0.0,0.0,0.0,0.0,0.0,0.0,0.0,0.0,0.0,0.0,0.0,0.0,0.0,0.0,0.0,0.0,0.0,0.0,0.0,0.0,0.0,-3.4546,-3.4382,-3.4284,-3.43,-3.4284,-3.4382,-3.4546,-3.4546,-3.4497,-3.4349,-3.3933,-3.3439,-3.2841,-3.2547,-3.2135,-3.1727,-3.1727,-3.1597,-3.1409,-3.1278,-3.1161,-3.1102,-3.0687,-3.0312,-2.9993,-2.9463,-2.9212,-2.9022,-2.8573,-2.8052,-2.751,-3.5504,-3.591,0.0,0.0,0.0,0.0,0.0,0.0,0.0,0.0,0.0,0.0,0.0,0.0,0.0,0.0,0.0,-3.7867,-3.7189,0.0,-3.7376,0.0,0.0,-3.7468,0.0,0.0,0.0,0.0,0.0,0.0,0.0,0.0,0.0,0.0,0.0,-3.3403,-3.2841,-3.2841,-3.2602,-3.2191,-3.2038,-3.1754,-3.1351,0.0,-3.1117,-3.0821,-3.0821,0.0,0.0,-3.0642,-3.0642,0.0,0.0,0.0,0.0,0.0,0.0,0.0,0.0,0.0,0.0,-3.1292,0.0,0.0,0.0,0.0,-3.1482,0.0,0.0,0.0,0.0,0.0,0.0,0.0,0.0,0.0,0.0,0.0,0.0,0.0,0.0,0.0,0.0,0.0,0.0,-3.4101,-3.3559,-3.3403,-3.3694,-3.3403,-3.3507,-3.4101,-3.3848,-3.3797,-3.3899,-3.3177,-3.2695,-3.2382,-3.1996,-3.1727,-3.1539,-3.1539,-3.1409,-3.1278,-3.1087,-3.0851,-3.0568,-3.0068,-2.9623,-2.9247,-2.861,-2.8157,-2.7855,-2.7842,-2.751,-2.6973,0.0,0.0,0.0,0.0,0.0,0.0,0.0,-3.8678,0.0,0.0,0.0,0.0,0.0,-3.7812,-3.7342,0.0,0.0,-3.5916,-3.571,-3.5864,0.0,0.0,0.0,-3.5938,0.0,0.0,0.0,0.0,0.0,0.0,0.0,0.0,0.0,0.0,0.0,-3.2911,0.0,0.0,0.0,0.0,0.0,-3.0925,-3.0553,0.0,0.0,-3.0642,-3.0507,-3.0387,0.0,-3.0251,-3.0251,-3.0251,-3.0251,-3.0251,-3.0251,-3.0312,-3.0326,0.0,0.0,0.0,-3.0628,-3.0881,0.0,0.0,0.0,0.0,0.0,0.0,0.0,0.0,0.0,0.0,0.0,0.0,0.0,0.0,0.0,0.0,0.0,0.0,0.0,0.0,0.0,0.0,0.0,-3.3124,-3.2926,-3.2819,0.0,-3.2819,-3.2911,-3.3071,-3.314,-3.3071,-3.3033,-3.2695,-3.2398,-3.215,-3.1898,-3.167,-3.1482,-3.1409,-3.1278,-3.1087,-3.0673,-3.0372,-3.0007,-2.9435,-2.8917,-2.861,-2.7973,-2.7577,-2.7242,-2.7242,-2.704,-2.6782,-3.4673,0.0,0.0,0.0,0.0,0.0,0.0,0.0,0.0,0.0,-3.7637,0.0,-3.6731,0.0,-3.5878,0.0,-3.4763,-3.4596,-3.4436,-3.4591,0.0,-3.4892,-3.4622,0.0,0.0,0.0,0.0,0.0,0.0,-3.4018,0.0,0.0,0.0,0.0,0.0,0.0,0.0,0.0,-3.1625,0.0,0.0,-3.0326,0.0,0.0,-3.0237,-2.9931,0.0,-2.956,-2.9373,-2.9373,-2.9373,-2.9373,-2.9373,-2.9373,-2.9373,-2.9498,-2.956,-2.956,-2.9822,-2.9884,0.0,-3.0266,-3.0387,0.0,-3.0866,0.0,0.0,0.0,0.0,0.0,0.0,0.0,0.0,0.0,0.0,0.0,0.0,-3.1482,0.0,0.0,0.0,0.0,0.0,0.0,-3.2492,-3.2437,-3.2342,-3.2287,0.0,0.0,-3.2342,-3.2437,-3.2492,-3.2492,-3.2437,-3.2302,-3.2094,-3.1955,-3.1712,-3.1539,-3.1409,-3.1234,-3.0984,-3.0732,-3.0251,-2.9761,-2.9324,-2.8675,-2.8222,-2.7908,-2.739,-2.7053,-2.6905,-2.6905,-2.6782,-2.6589,0.0,0.0,0.0,0.0,-3.453,0.0,0.0,0.0,-3.5427,0.0,-3.5483,-3.5331,-3.53,-3.4888,-3.4512,-3.438,-3.4219,-3.3885,-3.3341,-3.3465,0.0,0.0,-3.3346,-3.3591,-3.4,0.0,0.0,0.0,0.0,0.0,0.0,0.0,0.0,0.0,-3.2247,0.0,-3.1784,-3.1567,-3.1263,-3.0911,-3.0433,-2.9931,-2.9498,-2.931,-2.898,-2.8675,-2.8546,-2.8287,-2.7973,-2.7973,-2.7973,-2.7973,-2.7973,-2.7973,-2.8039,-2.8352,-2.8481,-2.856,-2.8894,-2.9035,-2.9085,-2.9435,0.0,0.0,0.0,0.0,-3.0507,0.0,0.0,0.0,0.0,0.0,0.0,0.0,0.0,0.0,0.0,0.0,0.0,0.0,0.0,0.0,0.0,-3.2038,-3.2038,-3.2135,-3.194,0.0,0.0,0.0,-3.1883,-3.2135,-3.2038,-3.2038,-3.2135,-3.1883,-3.1799,-3.1727,-3.1409,-3.1278,-3.1219,-3.094,-3.0568,-3.019,-2.9713,-2.9162,-2.8522,-2.7987,-2.759,-2.7201,-2.685,-2.6714,-2.6714,-2.6714,-2.6589,-2.6533,-3.322,-3.3004,-3.2766,0.0,-3.3396,-3.3894,0.0,0.0,0.0,0.0,-3.4398,-3.4155,-3.3548,-3.3429,-3.3099,-3.2324,-3.2382,0.0,0.0,0.0,0.0,-3.2484,-3.2523,-3.2672,-3.298,-3.2926,0.0,-3.298,0.0,0.0,-3.2453,0.0,0.0,0.0,0.0,0.0,-3.1539,-3.1307,-3.0702,-2.9898,-2.9373,-2.8853,0.0,0.0,-2.7762,-2.7497,-2.796,-2.7908,-2.7656,-2.7656,-2.7656,-2.7656,-2.7656,-2.7656,-2.7656,-2.7723,-2.7789,-2.7776,-2.8052,-2.8105,-2.8235,-2.8675,-2.8803,-2.898,0.0,0.0,0.0,0.0,0.0,0.0,0.0,0.0,0.0,0.0,0.0,0.0,0.0,0.0,0.0,0.0,0.0,0.0,-3.1697,-3.1655,-3.1582,-3.1509,-3.1467,0.0,0.0,0.0,0.0,-3.1366,-3.1467,-3.1467,-3.1366,-3.1307,-3.1264,-3.1264,-3.1058,-3.0881,-3.0747,-3.0251,-2.987,-2.9498,-2.8867,-2.8365,-2.7987,-2.7443,-2.7053,-2.685,-2.6658,-2.6521,-2.6521,-2.6521,-2.6521,-2.6465,-3.1842,0.0,0.0,-3.1857,0.0,0.0,-3.2646,0.0,0.0,-3.2646,-3.2646,0.0,-3.1975,-3.193,-3.1723,-3.1249,-3.1292,0.0,-3.164,0.0,0.0,-3.2094,-3.2094,-3.2191,-3.2453,-3.2342,0.0,-3.2453,0.0,0.0,-3.2038,0.0,0.0,0.0,0.0,-3.1597,0.0,-3.0881,-3.0144,-2.9352,-2.8817,0.0,0.0,-2.7523,-2.7188,-2.6918,-2.731,-2.7242,-2.7053,-2.7053,-2.7053,-2.7053,-2.7053,-2.7053,-2.7053,-2.7121,-2.7121,-2.7188,-2.7403,-2.7469,-2.7523,-2.7908,-2.8039,-2.8157,-2.8675,-2.8688,-2.8688,0.0,0.0,0.0,0.0,0.0,0.0,0.0,0.0,0.0,0.0,0.0,0.0,0.0,-3.1117,0.0,-3.1117,-3.1351,-3.1409,-3.1278,0.0,0.0,0.0,0.0,0.0,-3.1073,-3.1234,-3.1176,-3.0955,-3.0955,-3.0895,-3.0762,-3.0507,-3.0312,-3.0129,-2.9498,-2.9107,-2.8867,-2.8222,-2.7776,-2.7443,-2.704,-2.6782,-2.6589,-2.6396,-2.6396,-2.6339,-2.6176,-2.6245,-2.6327,0.0,0.0,0.0,0.0,0.0,0.0,0.0,-3.0658,0.0,-3.0732,0.0,-3.0598,-3.0598,-3.0493,-3.0507,-3.0642,0.0,-3.0925,-3.1321,-3.1379,-3.1495,-3.1811,-3.1811,-3.1868,-3.2023,-3.1925,-3.1925,0.0,0.0,0.0,0.0,0.0,0.0,0.0,0.0,0.0,0.0,-3.0312,-2.9637,0.0,-2.8365,-2.7842,-2.7403,-2.7268,-2.6998,-2.6658,-2.6658,-2.6589,-2.6533,-2.6533,-2.6533,-2.6533,-2.6533,-2.6533,-2.6521,-2.6658,-2.6658,-2.6726,-2.6875,-2.6943,-2.6943,-2.7201,-2.7335,-2.7456,-2.7656,-2.7776,-2.7908,-2.7908,-2.8039,-2.8287,0.0,0.0,0.0,0.0,0.0,0.0,0.0,0.0,0.0,0.0,0.0,0.0,0.0,-3.1043,-3.1351,0.0,0.0,0.0,0.0,0.0,0.0,-3.1014,-3.1117,0.0,-3.0702,0.0,-3.0447,-3.019,-2.9808,-2.956,-2.9435,-2.8675,-2.8287,-2.8157,-2.7656,-2.7255,-2.6973,-2.6782,-2.6589,-2.6465,-2.627,-2.6131,-2.605,-2.5606,-2.5688,-2.591,0.0,0.0,0.0,0.0,0.0,-2.9822,-2.9449,-2.9498,-2.956,-2.9449,-2.9401,-2.9401,-2.9401,-2.9637,-2.9808,-2.9808,-3.019,0.0,0.0,0.0,0.0,-3.0866,-3.0866,-3.0925,-3.1058,-3.0999,-3.1176,0.0,0.0,0.0,0.0,0.0,0.0,0.0,0.0,0.0,-3.0433,-2.9747,0.0,-2.8352,-2.7723,-2.7188,-2.685,-2.6658,-2.6589,-2.6521,-2.6521,-2.6521,-2.6533,-2.6533,-2.6533,-2.6533,-2.6533,-2.6533,-2.6533,-2.6521,-2.6521,-2.6521,-2.6602,-2.6602,-2.6589,-2.6794,-2.685,-2.693,-2.7323,-2.7268,-2.7214,-2.7403,-2.7469,-2.759,-2.7908,0.0,0.0,0.0,0.0,0.0,0.0,0.0,0.0,0.0,0.0,0.0,0.0,0.0,0.0,0.0,0.0,0.0,0.0,0.0,0.0,0.0,-3.0447,0.0,0.0,0.0,-2.956,-2.9498,-2.898,-2.8675,-2.8481,-2.7908,-2.759,-2.7469,-2.6985,-2.6782,-2.6714,-2.6589,-2.6396,-2.6201,-2.605,-2.5758,-2.5382,-2.4791,-2.4576,-2.4587,0.0,0.0,0.0,0.0,0.0,0.0,0.0,-2.8495,0.0,-2.8509,-2.8509,-2.8509,-2.8509,-2.8675,-2.8853,-2.898,-2.9233,-2.956,-2.9931,-3.0007,-3.019,-3.0312,-3.0326,0.0,-3.0507,-3.0507,-3.0687,-3.1058,0.0,0.0,0.0,0.0,0.0,0.0,0.0,-2.9508,0.0,0.0,0.0,-2.7133,-2.6505,-2.6114,-2.5851,-2.5665,-2.5774,-2.6013,-2.6013,-2.6201,-2.6533,-2.6533,-2.6533,-2.6533,-2.6533,-2.6533,-2.6533,-2.6533,-2.6533,-2.6533,-2.6533,-2.6533,-2.6521,-2.6589,-2.6589,-2.6658,-2.6863,-2.6807,-2.6739,-2.6863,-2.693,-2.7121,-2.7709,-2.8509,0.0,0.0,0.0,0.0,0.0,0.0,0.0,0.0,0.0,0.0,0.0,0.0,0.0,0.0,0.0,0.0,0.0,0.0,0.0,0.0,0.0,0.0,0.0,0.0,0.0,-2.861,-2.8157,-2.7908,-2.7776,-2.7323,-2.7053,-2.6998,-2.6726,-2.6589,-2.6589,-2.6396,-2.6201,-2.598,-2.5606,-2.5158,-2.4719,-2.407,-2.3644,-2.3423,0.0,-2.9574,0.0,0.0,-2.9373,0.0,-2.8222,-2.7643,-2.7456,-2.7789,-2.7776,-2.7776,-2.7776,-2.7842,-2.7973,-2.8222,-2.8287,-2.861,-2.917,-2.9233,-2.9373,-2.9623,-2.9623,-2.9747,-2.9931,-2.9931,-3.019,0.0,0.0,0.0,0.0,0.0,0.0,0.0,0.0,0.0,0.0,0.0,-2.6356,-2.5861,-2.5421,-2.518,-2.5,-2.4885,-2.5071,-2.5435,-2.5435,-2.5724,-2.6138,-2.6239,-2.642,-2.6533,-2.6533,-2.6533,-2.6533,-2.6533,-2.6533,-2.6533,-2.6533,-2.6533,-2.6533,-2.6533,-2.6533,-2.6533,-2.6533,-2.6533,-2.6533,-2.6533,-2.6589,-2.6918,-2.759,-2.8118,0.0,0.0,0.0,0.0,0.0,0.0,0.0,0.0,0.0,0.0,0.0,0.0,0.0,0.0,0.0,0.0,0.0,0.0,0.0,0.0,0.0,-2.9247,-2.8894,0.0,-2.8105,0.0,-2.7523,-2.7255,-2.7134,-2.6794,-2.6658,-2.6658,-2.6521,-2.6465,-2.6396,-2.6201,-2.598,-2.5688,-2.5028,-2.4504,-2.3986,-2.3287,-2.2777,-2.2478,0.0,0.0,0.0,0.0,0.0,0.0,0.0,-2.7121,-2.6863,-2.7079,-2.7079,-2.7079,-2.7079,-2.7268,-2.7403,-2.7403,-2.7723,-2.7908,-2.7973,-2.8105,-2.8157,-2.8222,-2.8222,-2.8352,-2.8675,-2.8853,-2.9233,0.0,0.0,0.0,0.0,0.0,0.0,0.0,0.0,0.0,0.0,-2.6356,-2.5874,-2.5358,-2.518,-2.5,-2.482,-2.482,-2.4858,-2.4895,-2.4895,-2.4921,-2.5046,-2.5523,-2.6025,-2.6533,-2.6533,-2.6533,-2.6533,-2.6533,-2.6533,-2.6533,-2.6533,-2.6533,-2.6533,-2.6533,-2.6533,-2.6533,-2.6533,-2.6533,-2.6533,-2.6533,-2.6589,-2.685,-2.7268,-2.7656,-2.7973,0.0,0.0,0.0,0.0,0.0,0.0,0.0,0.0,0.0,0.0,0.0,0.0,0.0,0.0,0.0,0.0,0.0,0.0,-2.8917,0.0,-2.8352,-2.8105,-2.7656,-2.7403,-2.7335,-2.6985,-2.6782,-2.6726,-2.6589,-2.6521,-2.6521,-2.6533,-2.6396,-2.6201,-2.598,-2.5606,-2.5016,-2.4467,-2.3813,-2.3075,-2.2478,-2.1949,-2.1578,0.0,0.0,0.0,0.0,0.0,0.0,0.0,-2.6918,-2.6726,-2.6671,-2.6671,-2.6671,-2.6671,-2.6807,-2.6863,-2.693,-2.7053,-2.7255,-2.7456,-2.7523,-2.759,-2.7723,-2.7723,-2.7842,-2.8157,-2.7937,-2.8143,0.0,0.0,0.0,0.0,0.0,0.0,0.0,0.0,-2.5755,-2.5288,-2.4826,-2.4416,-2.4111,-2.3988,-2.3865,-2.3816,-2.3816,-2.4029,-2.433,-2.433,-2.4544,-2.4858,-2.5059,-2.5485,-2.6,-2.642,-2.6533,-2.6533,-2.6533,-2.6533,-2.6533,-2.6533,-2.6533,-2.6533,-2.6533,-2.6533,-2.6533,-2.6533,-2.6533,-2.6533,-2.6533,-2.6589,-2.6726,-2.6918,-2.7134,-2.7335,0.0,0.0,0.0,0.0,0.0,0.0,0.0,0.0,0.0,0.0,0.0,0.0,0.0,0.0,0.0,0.0,0.0,0.0,-2.8222,0.0,-2.7723,-2.759,-2.7121,-2.693,-2.693,-2.6726,-2.6589,-2.6589,-2.6521,-2.6533,-2.6533,-2.6533,-2.6396,-2.6131,-2.5688,-2.5158,-2.4564,-2.3801,-2.3075,-2.2402,-2.1807,-2.1359,-2.1128,-2.7188,0.0,-2.759,0.0,-2.739,-2.7188,-2.6973,-2.6782,-2.6589,-2.6533,-2.6533,-2.6533,-2.6533,-2.6533,-2.6521,-2.6658,-2.6658,-2.6794,-2.7066,-2.7066,-2.7134,-2.7201,-2.7033,0.0,-2.7394,-2.6893,-2.697,-2.7557,-2.7051,0.0,0.0,0.0,0.0,0.0,-2.4835,-2.4421,-2.4073,-2.3675,-2.345,-2.3271,-2.3138,-2.3078,-2.3078,-2.3078,-2.3389,-2.3753,-2.3753,-2.3991,-2.4356,-2.4519,-2.482,-2.5247,-2.5975,-2.6214,-2.6239,-2.6483,-2.6533,-2.6533,-2.6533,-2.6533,-2.6533,-2.6533,-2.6533,-2.6533,-2.6533,-2.6533,-2.6533,-2.6533,-2.6589,-2.6658,-2.6714,-2.6794,-2.6943,-2.7024,0.0,0.0,0.0,0.0,0.0,0.0,-2.6589,-2.6533,-2.6533,0.0,0.0,0.0,0.0,0.0,0.0,0.0,0.0,0.0,0.0,0.0,0.0,-2.6794,-2.6658,-2.6658,-2.6521,-2.6533,-2.6533,-2.6465,-2.6396,-2.6396,-2.6314,-2.6107,-2.5828,-2.5253,-2.4587,-2.3913,-2.3065,-2.2402,-2.1807,-2.1282,-2.0974,-2.0819,-2.6714,-2.6863,-2.7024,-2.7024,-2.6863,-2.6714,-2.6714,-2.6589,-2.6533,-2.6533,-2.6533,-2.6533,-2.6533,-2.6533,-2.6533,-2.6533,-2.6533,-2.6533,-2.6533,-2.6533,-2.6533,0.0,0.0,-2.5744,-2.5902,-2.5537,-2.556,-2.6136,0.0,0.0,-2.6106,0.0,-2.4962,-2.4778,-2.4305,-2.3897,-2.3628,-2.3463,-2.3271,-2.3078,-2.3078,-2.3078,-2.3078,-2.3078,-2.3078,-2.3078,-2.3078,-2.309,-2.3178,-2.3816,-2.4017,-2.4205,-2.5272,-2.5598,-2.5724,-2.6302,-2.6533,-2.6533,-2.6533,-2.6533,-2.6533,-2.6533,-2.6533,-2.6533,-2.6533,-2.6533,-2.6533,-2.6533,-2.6533,-2.6521,-2.6658,-2.6714,-2.6794,-2.6943,0.0,0.0,0.0,0.0,0.0,0.0,-2.6533,-2.6533,-2.6533,0.0,0.0,0.0,0.0,0.0,0.0,0.0,0.0,-2.7024,-2.6794,0.0,-2.6714,-2.6589,-2.6533,-2.6533,-2.6533,-2.6533,-2.6465,-2.627,-2.6213,-2.6201,-2.5758,-2.5382,-2.4945,-2.4394,-2.374,-2.2927,-2.2327,-2.1731,-2.1205,-2.0984,-2.0819,-2.0566,-2.6589,-2.6602,-2.6671,-2.6671,-2.6602,-2.6589,-2.6589,-2.6521,-2.6533,-2.6533,-2.6533,-2.6533,-2.6533,-2.6533,-2.6533,0.0,-2.6533,-2.6533,0.0,-2.6088,-2.5875,-2.5875,-2.536,-2.5136,-2.5318,-2.4836,-2.473,-2.5149,0.0,0.0,0.0,-2.4514,-2.4319,-2.4171,-2.3806,-2.3569,-2.3463,-2.3271,-2.3138,-2.3078,-2.3078,-2.3078,-2.3078,-2.3078,-2.3078,-2.3078,-2.3078,-2.3078,-2.3103,-2.3351,-2.3414,-2.354,-2.4268,-2.477,-2.5172,-2.5711,-2.5875,-2.5963,-2.642,-2.6533,-2.6533,-2.6533,-2.6533,-2.6533,-2.6533,-2.6533,-2.6533,-2.6533,-2.6533,-2.6533,-2.6589,-2.6589,-2.6589,-2.6671,-2.6602,0.0,0.0,0.0,0.0,0.0,-2.6533,-2.6533,0.0,-2.6533,0.0,0.0,0.0,0.0,0.0,0.0,0.0,0.0,-2.6589,0.0,-2.6589,-2.6521,-2.6533,-2.6533,-2.6533,-2.6533,-2.6465,-2.627,-2.6131,-2.598,-2.5535,-2.5087,-2.4564,-2.402,-2.3298,-2.2553,-2.1959,-2.1436,-2.0984,-2.0741,-2.0644,-2.0566,-2.6533,-2.6533,-2.6533,-2.6533,-2.6533,-2.6533,-2.6533,-2.6533,-2.6533,-2.6533,-2.6533,-2.6533,-2.6533,-2.6533,0.0,-2.6533,-2.6533,-2.6433,-2.6151,-2.5799,-2.5511,-2.531,-2.4795,-2.457,-2.4684,0.0,0.0,-2.4201,-2.3927,-2.3806,-2.3897,-2.3852,-2.3806,-2.3713,-2.339,-2.3271,-2.3271,-2.3138,-2.3078,-2.3078,-2.3078,-2.3078,-2.3078,-2.3078,-2.3078,-2.3078,-2.3078,-2.3078,-2.3078,-2.3078,-2.3078,-2.3201,-2.3552,-2.3904,-2.433,-2.5084,-2.5435,-2.5674,-2.6038,-2.6302,-2.6533,-2.6533,-2.6533,-2.6533,-2.6533,-2.6533,-2.6533,-2.6533,-2.6533,-2.6533,-2.6533,-2.6533,-2.6533,-2.6533,-2.6533,-2.6533,-2.6533,0.0,0.0,0.0,0.0,0.0,0.0,-2.6533,0.0,0.0,0.0,0.0,0.0,0.0,0.0,-2.6533,-2.6533,0.0,-2.6533,-2.6533,-2.6533,-2.6533,-2.6533,-2.6465,-2.6396,-2.6119,-2.5758,-2.5382,-2.4886,-2.4299,-2.3694,-2.3139,-2.2553,-2.1883,-2.1425,-2.1051,-2.0741,-2.0644,-2.0566,-2.0566,-2.6533,-2.6533,0.0,0.0,-2.6533,0.0,-2.6533,-2.6533,-2.6533,-2.6533,-2.6533,-2.6533,-2.6533,-2.6496,-2.6471,-2.6471,0.0,0.0,0.0,-2.5498,-2.5272,-2.4795,-2.4243,-2.3941,-2.3941,-2.3414,-2.3198,-2.3403,-2.3509,-2.3569,-2.3569,-2.3463,-2.3403,-2.3403,-2.3198,-2.3078,-2.3078,-2.3078,-2.3078,-2.3078,-2.3078,-2.3078,-2.3078,-2.3078,-2.3078,-2.3078,-2.3078,-2.3078,-2.3078,-2.3078,-2.3078,-2.3078,-2.3078,-2.3078,-2.3351,-2.4443,-2.5134,-2.5548,-2.5586,-2.6013,-2.6533,-2.6533,-2.6533,-2.6533,-2.6533,-2.6533,-2.6533,-2.6533,-2.6533,-2.6533,-2.6533,-2.6533,-2.6533,-2.6533,-2.6533,-2.6533,-2.6533,0.0,0.0,0.0,0.0,0.0,0.0,-2.6533,-2.6533,0.0,0.0,0.0,0.0,0.0,-2.6465,-2.6533,-2.6533,-2.6465,-2.6465,-2.6465,-2.6465,-2.6465,-2.6383,-2.6327,-2.6131,-2.5688,-2.5241,-2.4647,-2.3875,-2.3224,-2.2628,-2.2025,-2.1502,-2.1138,-2.0984,-2.0819,-2.0566,-2.0566,-2.0566,-2.0566,0.0,0.0,-2.6533,-2.6533,-2.6533,-2.6533,-2.6533,-2.6533,-2.6533,-2.6533,-2.6533,-2.6533,-2.6533,-2.6063,-2.5799,-2.5799,-2.5799,-2.5573,-2.5046,-2.4607,-2.4318,-2.4192,-2.364,-2.3339,-2.3339,-2.314,-2.3138,-2.3198,-2.3198,-2.3198,-2.3198,-2.3198,-2.3198,-2.3198,-2.3138,-2.3078,-2.3078,-2.3078,-2.3078,-2.3078,-2.3078,-2.3078,-2.3078,-2.3078,-2.3078,-2.3078,-2.3078,-2.3078,-2.3078,-2.3078,-2.3078,-2.3078,-2.3078,-2.3078,-2.3215,-2.3991,-2.4582,-2.5096,-2.5485,-2.6013,-2.6533,-2.6533,-2.6533,-2.6533,-2.6533,-2.6533,-2.6533,-2.6533,-2.6533,-2.6533,-2.6533,-2.6533,-2.6533,-2.6533,-2.6533,-2.6533,-2.6533,-2.6533,0.0,0.0,-2.6533,-2.6533,-2.6533,-2.6533,-2.6533,0.0,0.0,0.0,0.0,-2.6339,-2.6339,-2.6533,-2.6533,-2.6396,-2.627,-2.627,-2.6119,-2.5828,-2.5676,-2.5523,-2.5535,-2.5087,-2.4731,-2.425,-2.3446,-2.2777,-2.2176,-2.1731,-2.1359,-2.0984,-2.0906,-2.0819,-2.0566,-2.0566,-2.0566,-2.0566,-2.6533,-2.6533,-2.6533,-2.6533,-2.6533,-2.6533,-2.6533,-2.6533,-2.6533,-2.6533,-2.6533,-2.642,-2.6101,-2.5787,-2.5398,-2.4908,-2.5096,-2.5021,-2.4481,-2.4167,-2.3879,-2.3615,-2.3301,-2.3078,-2.3078,-2.3078,-2.3078,-2.3078,-2.3078,-2.3078,-2.3078,-2.3078,-2.3078,-2.3078,-2.3078,-2.3078,-2.3078,-2.3078,-2.3078,-2.3078,-2.3017,-2.3017,-2.3017,-2.2969,-2.2909,-2.2909,-2.2957,-2.3017,-2.3017,-2.3078,-2.3078,-2.3078,-2.3017,-2.3017,-2.308,-2.3343,-2.3879,-2.4556,-2.5096,-2.5649,-2.6126,-2.6458,-2.6533,-2.6533,-2.6533,-2.6533,-2.6533,-2.6533,-2.6533,-2.6533,-2.6533,-2.6533,-2.6533,-2.6533,-2.6533,-2.6533,-2.6533,-2.6533,0.0,-2.6533,-2.6533,-2.6533,-2.6533,-2.6533,-2.6533,-2.6533,0.0,0.0,-2.6339,-2.605,-2.605,-2.6327,-2.6176,-2.6037,-2.591,-2.5758,-2.5535,-2.5158,-2.5087,-2.4945,-2.4802,-2.4443,-2.3948,-2.3372,-2.2703,-2.2101,-2.1502,-2.1195,-2.0964,-2.0741,-2.0741,-2.0731,-2.0566,-2.0566,-2.0566,-2.0566,-2.6533,-2.6533,-2.6533,-2.6533,-2.6533,-2.6533,-2.6533,-2.6533,-2.6533,-2.6533,-2.6533,-2.6239,-2.5661,-2.5523,-2.5084,-2.4079,-2.4343,-2.4368,-2.3904,-2.3866,-2.3653,-2.309,-2.3078,-2.3078,-2.3078,-2.3078,-2.3078,-2.3078,-2.3078,-2.3078,-2.3078,-2.3078,-2.3078,-2.3078,-2.3078,-2.3078,-2.3078,-2.3078,-2.3078,-2.3078,-2.2909,-2.2848,-2.2848,-2.2678,-2.2616,-2.2629,-2.2726,-2.2787,-2.2848,-2.2957,-2.3017,-2.3017,-2.2909,-2.2848,-2.2848,-2.2739,-2.3257,-2.3954,-2.4593,-2.5259,-2.585,-2.6339,-2.6533,-2.6533,-2.6533,-2.6533,-2.6533,-2.6533,-2.6533,-2.6533,-2.6533,-2.6533,-2.6533,-2.6533,-2.6533,-2.6533,-2.6533,0.0,-2.6533,-2.6533,-2.6533,-2.6465,-2.6465,-2.6465,-2.6465,-2.6383,-2.6188,-2.6062,0.0,-2.5618,-2.5535,-2.591,-2.5688,-2.5465,-2.5394,-2.4945,-2.4647,-2.4432,-2.4348,-2.4215,-2.3925,-2.3728,-2.315,-2.2252,-2.1873,-2.1436,-2.0906,-2.0654,-2.0566,-2.0566,-2.0566,-2.0566,-2.0566,-2.0566,-2.0566,-2.0566,-2.6533,-2.6533,-2.6533,-2.6533,-2.6533,-2.6533,-2.6533,-2.6533,-2.6533,-2.6533,-2.6533,-2.6239,-2.5661,-2.5209,-2.4682,-2.4054,-2.3627,-2.3303,-2.3276,-2.3215,-2.3226,-2.3078,-2.3078,-2.3078,-2.3078,-2.3078,-2.3078,-2.3078,-2.3078,-2.3078,-2.3078,-2.3078,-2.3078,-2.3078,-2.2969,-2.2909,-2.2909,-2.28,-2.286,-2.2909,-2.28,-2.2739,-2.269,-2.2371,-2.2259,-2.2259,-2.2309,-2.2359,-2.2482,-2.2678,-2.2739,-2.2739,-2.2739,-2.2739,-2.2739,-2.2678,-2.2861,-2.3331,-2.4364,-2.5494,-2.6352,-2.6508,-2.6533,-2.6533,-2.6533,-2.6533,-2.6533,-2.6533,-2.6533,-2.6533,-2.6533,-2.6533,-2.6533,-2.6533,-2.6533,-2.6533,-2.6533,0.0,-2.6533,-2.6533,-2.6533,-2.6396,-2.627,-2.627,-2.6131,-2.5746,-2.5676,-2.5535,-2.5229,-2.4791,-2.4564,-2.4515,-2.4874,-2.4874,-2.4443,-2.3644,-2.3287,-2.3287,-2.2916,-2.2767,-2.2692,-2.2478,-2.2176,-2.1883,-2.1512,-2.1128,-2.0906,-2.0654,-2.0566,-2.0566,-2.0566,-2.0566,-2.0566,-2.0566,-2.0566,-2.0566,-2.6533,-2.6533,-2.6533,-2.6533,-2.6533,-2.6533,-2.6533,-2.6533,-2.6533,-2.6533,-2.6189,-2.5787,-2.5234,-2.4695,-2.4155,-2.359,-2.3288,-2.3078,-2.3078,-2.3078,-2.3078,-2.3078,-2.3078,-2.3078,-2.3078,-2.3078,-2.3078,-2.3078,-2.3078,-2.3078,-2.3078,-2.3078,-2.3078,-2.2957,-2.2848,-2.2739,-2.2604,-2.2494,-2.2494,-2.2494,-2.2235,-2.2099,-2.1975,-2.16,-2.1411,-2.1348,-2.1537,-2.1714,-2.1901,-2.2161,-2.2359,-2.2432,-2.2309,-2.2371,-2.2432,-2.2309,-2.2751,-2.353,-2.4478,-2.5331,-2.6063,-2.6445,-2.6533,-2.6533,-2.6533,-2.6533,-2.6533,-2.6533,-2.6533,-2.6533,-2.6533,-2.6533,-2.6533,-2.6533,-2.6533,0.0,0.0,-2.6339,-2.6339,-2.6188,-2.6188,-2.6119,-2.591,-2.5758,-2.5606,-2.5312,-2.5028,-2.4731,-2.4587,-2.3998,-2.3559,-2.3423,-2.3717,-2.3644,-2.3054,-2.2692,-2.2478,-2.2327,-2.2187,-2.2025,-2.1883,-2.1807,-2.1578,-2.1282,-2.1128,-2.0896,-2.0731,-2.0644,-2.0566,-2.0566,-2.0566,-2.0566,-2.0566,-2.0566,-2.0566,-2.0566,-2.6533,-2.6533,-2.6533,-2.6533,-2.6533,-2.6533,-2.6533,-2.6533,-2.6533,-2.6533,-2.595,-2.5398,-2.4883,-2.433,-2.3766,-2.3128,-2.3078,-2.3078,-2.3078,-2.3078,-2.3078,-2.3078,-2.3078,-2.3078,-2.3078,-2.3078,-2.3078,-2.3078,-2.3078,-2.3078,-2.3078,-2.3078,-2.2969,-2.2848,-2.2616,-2.2359,-2.2161,-2.1987,-2.1937,-2.1925,-2.16,-2.14,-2.1273,-2.0828,-2.0571,-2.0442,-2.0677,-2.0933,-2.1135,-2.1502,-2.1714,-2.1874,-2.1737,-2.1862,-2.2061,-2.1925,-2.265,-2.3691,-2.4568,-2.5197,-2.5737,-2.6382,-2.6533,-2.6533,-2.6533,-2.6533,-2.6533,-2.6533,-2.6533,-2.6533,-2.6533,-2.6533,-2.6533,-2.6533,0.0,0.0,0.0,-2.6213,-2.6131,-2.584,-2.5758,-2.5606,-2.5382,-2.5158,-2.4874,-2.4576,-2.4143,-2.3863,-2.3706,-2.3065,-2.2553,-2.2327,-2.2553,-2.2402,-2.1959,-2.1883,-2.1731,-2.1578,-2.1578,-2.1425,-2.1272,-2.1272,-2.1118,-2.0819,-2.0819,-2.0731,-2.0566,-2.0566,-2.0566,-2.0566,-2.0566,-2.0566,-2.0566,-2.0566,-2.0566,-2.0489,-2.6533,-2.6533,-2.6533,-2.6533,-2.6533,-2.6533,-2.6533,-2.6533,-2.6533,-2.6533,-2.595,-2.5398,-2.4883,-2.433,-2.3766,-2.3128,-2.3078,-2.3078,-2.3078,-2.3078,-2.3078,-2.3078,-2.3078,-2.3078,-2.3078,-2.3078,-2.3078,-2.3078,-2.3078,-2.3078,-2.3078,-2.2969,-2.286,-2.2678,-2.2211,-2.1765,-2.1451,-2.1146,-2.1083,-2.1135,-2.0828,-2.0764,-2.0828,-2.0172,-1.9911,-1.9933,-1.9911,-2.0042,-2.0226,-2.0571,-2.0828,-2.0967,-2.0967,-2.1336,-2.1714,-2.1714,-2.2197,-2.3096,-2.4404,-2.5197,-2.5737,-2.6382,-2.6533,-2.6533,-2.6533,-2.6533,-2.6533,-2.6533,-2.6533,-2.6533,-2.6533,-2.6533,-2.6533,-2.6533,0.0,0.0,-2.6201,-2.6213,-2.6062,-2.5676,-2.5453,-2.5087,-2.4552,-2.436,-2.3936,-2.3213,-2.315,-2.2852,-2.2252,-2.2025,-2.1655,-2.1061,-2.1436,-2.1578,-2.1502,-2.1205,-2.0984,-2.0984,-2.0809,-2.0644,-2.0644,-2.0644,-2.0644,-2.0644,-2.0644,-2.0644,-2.0566,-2.0566,-2.0566,-2.0566,-2.0566,-2.0566,-2.0566,-2.0566,-2.0489,-2.0264,-2.6533,-2.6533,-2.6533,-2.6533,-2.6533,-2.6533,-2.6533,-2.6533,-2.6533,-2.6533,-2.5674,-2.5046,-2.4845,-2.4004,-2.3376,-2.309,-2.3078,-2.3078,-2.3078,-2.3078,-2.3078,-2.3078,-2.3078,-2.3078,-2.3078,-2.3017,-2.2969,-2.2969,-2.2909,-2.2848,-2.2848,-2.2665,-2.2469,-2.2149,-2.1628,-2.1187,-2.0752,-2.0442,-2.0248,-2.0172,-1.9911,-1.9781,-1.9726,-1.932,-1.9142,-1.9008,-1.9131,-1.933,-1.9518,-1.9704,-1.9977,-2.0259,-2.0259,-2.0711,-2.1336,-2.1975,-2.242,-2.2911,-2.4042,-2.4707,-2.5335,-2.6239,-2.6533,-2.6533,-2.6533,-2.6533,-2.6533,-2.6533,-2.6533,-2.6533,-2.6533,-2.6396,-2.6339,-2.6339,0.0,-2.5886,-2.5676,-2.5465,-2.517,-2.4754,-2.4539,-2.4166,-2.357,-2.335,-2.3065,-2.2478,-2.2176,-2.1959,-2.1731,-2.1436,-2.1051,-2.0731,-2.0876,-2.0954,-2.0954,-2.0809,-2.0731,-2.0731,-2.0644,-2.0566,-2.0566,-2.0566,-2.0566,-2.0566,-2.0566,-2.0566,-2.0566,-2.0566,-2.0566,-2.0566,-2.0566,-2.0566,-2.0566,-2.0566,-2.0489,-2.0264,-2.6533,-2.6533,-2.6533,-2.6533,-2.6533,-2.6533,-2.6533,-2.6533,-2.6458,-2.6214,-2.5385,-2.4757,-2.4582,-2.3715,-2.3078,-2.3078,-2.3078,-2.3078,-2.3078,-2.3078,-2.3078,-2.3017,-2.3017,-2.3017,-2.2969,-2.2848,-2.2787,-2.2726,-2.2678,-2.2555,-2.2567,-2.2297,-2.1963,-2.1628,-2.106,-2.0484,-2.0031,-1.9726,-1.9473,-1.9341,-1.9121,-1.9065,-1.9008,-1.8741,-1.8539,-1.8482,-1.8607,-1.8741,-1.8865,-1.8988,-1.9264,-1.9539,-1.9539,-2.0118,-2.0955,-2.1901,-2.2359,-2.2801,-2.3654,-2.433,-2.5046,-2.5963,-2.6395,-2.6533,-2.6533,-2.6533,-2.6533,-2.6533,-2.6533,-2.6465,-2.6396,-2.627,-2.6131,-2.605,-2.5758,-2.5382,-2.5158,-2.4791,-2.4443,-2.4043,-2.3751,-2.3298,-2.2777,-2.2478,-2.2176,-2.1731,-2.1512,-2.1272,-2.1195,-2.0974,-2.0731,-2.0566,-2.0566,-2.0566,-2.0566,-2.0566,-2.0566,-2.0566,-2.0566,-2.0566,-2.0566,-2.0566,-2.0566,-2.0566,-2.0566,-2.0566,-2.0566,-2.0566,-2.0566,-2.0566,-2.0566,-2.0566,-2.0566,-2.0566,-2.0411,-2.0108,-2.6533,-2.6533,-2.6533,-2.6533,-2.6533,-2.6533,-2.6533,-2.6533,-2.6251,-2.5674,-2.5146,-2.4607,-2.4054,-2.3477,-2.3078,-2.3078,-2.3078,-2.3078,-2.3078,-2.3078,-2.3017,-2.2909,-2.2909,-2.286,-2.269,-2.269,-2.2616,-2.242,-2.242,-2.2309,-2.2185,-2.1851,-2.1463,-2.106,-2.0355,-1.977,-1.9299,-1.8931,-1.8808,-1.8808,-1.8549,-1.8617,-1.8741,-1.8405,-1.8269,-1.8269,-1.8269,-1.8269,-1.8337,-1.8482,-1.8607,-1.8808,-1.8808,-1.9518,-2.0549,-2.1365,-2.1963,-2.2591,-2.3442,-2.4254,-2.4946,-2.546,-2.6025,-2.6533,-2.6533,-2.6533,-2.6533,-2.6533,-2.6533,-2.6465,-2.627,-2.6213,-2.6062,-2.5676,-2.5382,-2.5158,-2.4707,-2.4432,-2.4009,-2.3593,-2.3075,-2.2553,-2.2101,-2.1731,-2.1359,-2.0906,-2.0906,-2.0819,-2.0644,-2.0566,-2.0566,-2.0566,-2.0566,-2.0566,-2.0566,-2.0566,-2.0566,-2.0566,-2.0566,-2.0566,-2.0566,-2.0566,-2.0566,-2.0566,-2.0566,-2.0566,-2.0566,-2.0566,-2.0566,-2.0566,-2.0566,-2.0566,-2.0566,-2.0566,-2.0333,-1.9863,-2.6533,-2.6533,-2.6533,-2.6533,-2.6533,-2.6533,-2.6533,-2.6533,-2.6251,-2.5674,-2.5146,-2.4607,-2.4054,-2.3477,-2.3078,-2.3078,-2.3078,-2.3078,-2.3078,-2.3078,-2.3017,-2.28,-2.2848,-2.2787,-2.2494,-2.2285,-2.2087,-2.1913,-2.1526,-2.1348,-2.1285,-2.0944,-2.0549,-2.0161,-1.9704,-1.9243,-1.8741,-1.8539,-1.8337,-1.8212,-1.8144,-1.8212,-1.8212,-1.8144,-1.8076,-1.8076,-1.8076,-1.8076,-1.8076,-1.8144,-1.8269,-1.8539,-1.8988,-1.9507,-2.0161,-2.0996,-2.1577,-2.2011,-2.2503,-2.332,-2.4267,-2.5328,-2.6025,-2.6533,-2.6533,-2.6533,-2.6533,-2.6533,-2.6533,-2.6465,-2.627,-2.598,-2.5606,-2.5087,-2.4599,-2.4105,-2.357,-2.3202,-2.2767,-2.2402,-2.2025,-2.1731,-2.1282,-2.1128,-2.0974,-2.0731,-2.0654,-2.0654,-2.0566,-2.0566,-2.0566,-2.0566,-2.0566,-2.0566,-2.0566,-2.0566,-2.0566,-2.0566,-2.0566,-2.0566,-2.0566,-2.0566,-2.0566,-2.0566,-2.0566,-2.0566,-2.0566,-2.0566,-2.0566,-2.0566,-2.0566,-2.0566,-2.0566,-2.0566,-2.0411,-2.0186,-2.6533,-2.6533,-2.6533,-2.6533,-2.6533,-2.6533,-2.6533,-2.6533,-2.6176,-2.5385,-2.5021,-2.4519,-2.374,-2.3339,-2.3078,-2.3078,-2.3078,-2.3078,-2.3078,-2.3078,-2.3017,-2.28,-2.2726,-2.2543,-2.2099,-2.1765,-2.1514,-2.1273,-2.0828,-2.0571,-2.0518,-2.0096,-1.9835,-1.9518,-1.9121,-1.8798,-1.8414,-1.8279,-1.8144,-1.8008,-1.8008,-1.8008,-1.8008,-1.8008,-1.8008,-1.8008,-1.8008,-1.8008,-1.8008,-1.8008,-1.8076,-1.8269,-1.8721,-1.9187,-1.9649,-2.0302,-2.0944,-2.1463,-2.1726,-2.2609,-2.3676,-2.4457,-2.5388,-2.6176,-2.6245,-2.6258,-2.6245,-2.6176,-2.6176,-2.6025,-2.5676,-2.5382,-2.5016,-2.4371,-2.3948,-2.3446,-2.2852,-2.2402,-2.2025,-2.1731,-2.1425,-2.1205,-2.0906,-2.0819,-2.0731,-2.0644,-2.0566,-2.0566,-2.0566,-2.0566,-2.0566,-2.0566,-2.0566,-2.0566,-2.0566,-2.0566,-2.0566,-2.0566,-2.0566,-2.0566,-2.0566,-2.0566,-2.0566,-2.0566,-2.0566,-2.0566,-2.0566,-2.0566,-2.0566,-2.0566,-2.0566,-2.0566,-2.0566,-2.0566,-2.0411,-2.0108,-2.6533,-2.6533,-2.6533,-2.6533,-2.6533,-2.6533,-2.6533,-2.6533,-2.6063,-2.4971,-2.482,-2.4393,-2.3203,-2.3078,-2.3078,-2.3078,-2.3078,-2.3078,-2.3078,-2.3078,-2.3017,-2.2909,-2.2604,-2.2161,-2.1651,-2.1262,-2.088,-2.0506,-2.0172,-1.9911,-1.9802,-1.9386,-1.9187,-1.9008,-1.8684,-1.8414,-1.8269,-1.8076,-1.8008,-1.8008,-1.8008,-1.8008,-1.8008,-1.8008,-1.8008,-1.8008,-1.8008,-1.8008,-1.8008,-1.8008,-1.8008,-1.8008,-1.8269,-1.8674,-1.9142,-1.9473,-2.0129,-2.0764,-2.0944,-2.1912,-2.2942,-2.3056,-2.422,-2.5405,-2.5746,-2.5828,-2.5758,-2.5606,-2.5535,-2.5312,-2.4779,-2.4636,-2.436,-2.3593,-2.3298,-2.3001,-2.2327,-2.1959,-2.1655,-2.1425,-2.1128,-2.0906,-2.0906,-2.0731,-2.0566,-2.0566,-2.0566,-2.0566,-2.0566,-2.0566,-2.0566,-2.0566,-2.0566,-2.0566,-2.0566,-2.0566,-2.0566,-2.0566,-2.0566,-2.0566,-2.0566,-2.0566,-2.0566,-2.0566,-2.0566,-2.0566,-2.0566,-2.0566,-2.0566,-2.0566,-2.0566,-2.0566,-2.0566,-2.0566,-2.0255,-1.9863,-2.6533,-2.6533,-2.6533,-2.6533,-2.6533,-2.6533,-2.6533,-2.6533,-2.6063,-2.4971,-2.482,-2.4393,-2.3203,-2.3078,-2.3078,-2.3078,-2.3078,-2.3078,-2.3078,-2.3078,-2.3017,-2.2909,-2.2604,-2.2099,-2.1463,-2.088,-2.0366,-2.0064,-1.9396,-1.9075,-1.9008,-1.8808,-1.8607,-1.8472,-1.8405,-1.8269,-1.8076,-1.8008,-1.8008,-1.8008,-1.8008,-1.8008,-1.8008,-1.8008,-1.8008,-1.8008,-1.8008,-1.8008,-1.8008,-1.8008,-1.8008,-1.8008,-1.8269,-1.8472,-1.8674,-1.9075,-1.9386,-1.9704,-1.9857,-2.0411,-2.1057,-2.1796,-2.2481,-2.3376,-2.485,-2.5229,-2.5158,-2.5158,-2.5004,-2.4791,-2.436,-2.4166,-2.3728,-2.2777,-2.2478,-2.2101,-2.1359,-2.1128,-2.1051,-2.0799,-2.0722,-2.0654,-2.0654,-2.0644,-2.0566,-2.0566,-2.0566,-2.0566,-2.0566,-2.0566,-2.0566,-2.0566,-2.0566,-2.0566,-2.0566,-2.0566,-2.0566,-2.0566,-2.0566,-2.0566,-2.0566,-2.0566,-2.0566,-2.0566,-2.0566,-2.0566,-2.0566,-2.0566,-2.0566,-2.0566,-2.0566,-2.0489,-2.0342,-2.0342,-2.0029,-1.9557,-2.6533,-2.6533,-2.6533,-2.6533,-2.6533,-2.6533,-2.6533,-2.6533,-2.6063,-2.4971,-2.482,-2.4393,-2.3203,-2.3078,-2.3078,-2.3078,-2.3078,-2.3078,-2.3017,-2.3017,-2.2969,-2.28,-2.242,-2.1913,-2.1388,-2.056,-1.9987,-1.9605,-1.8942,-1.8607,-1.8539,-1.8347,-1.8212,-1.8144,-1.8144,-1.8076,-1.8008,-1.8008,-1.8008,-1.8008,-1.8008,-1.8008,-1.8008,-1.8008,-1.8008,-1.8008,-1.8008,-1.8008,-1.8008,-1.8008,-1.8008,-1.8008,-1.8144,-1.8279,-1.8482,-1.8674,-1.8865,-1.9054,-1.9208,-1.9599,-2.0197,-2.0871,-2.1482,-2.2317,-2.3967,-2.4299,-2.4299,-2.4082,-2.3925,-2.3779,-2.3265,-2.3139,-2.2777,-2.2111,-2.1883,-2.1578,-2.0984,-2.0906,-2.0819,-2.0644,-2.0566,-2.0566,-2.0566,-2.0566,-2.0566,-2.0566,-2.0566,-2.0566,-2.0566,-2.0566,-2.0566,-2.0566,-2.0566,-2.0566,-2.0566,-2.0566,-2.0566,-2.0566,-2.0566,-2.0566,-2.0566,-2.0566,-2.0566,-2.0566,-2.0566,-2.0566,-2.0566,-2.0566,-2.0566,-2.0498,-2.0498,-2.0264,-1.9951,-1.9863,-1.9301,-1.8505,-2.6533,-2.6533,-2.6533,-2.6533,-2.6533,-2.6533,-2.6533,-2.6533,-2.6063,-2.4971,-2.482,-2.4393,-2.3203,-2.3078,-2.3078,-2.3078,-2.3078,-2.3017,-2.2909,-2.2848,-2.2787,-2.2616,-2.2111,-2.1663,-2.1325,-2.0442,-1.9736,-1.9285,-1.8741,-1.8414,-1.8279,-1.8076,-1.8008,-1.8008,-1.8008,-1.8008,-1.8008,-1.8008,-1.8008,-1.8008,-1.8008,-1.8008,-1.8008,-1.8008,-1.8008,-1.8008,-1.8008,-1.8008,-1.8008,-1.8008,-1.8008,-1.8008,-1.8008,-1.8144,-1.8269,-1.8269,-1.8482,-1.8674,-1.8674,-1.9083,-1.963,-2.0154,-2.071,-2.1429,-2.287,-2.3298,-2.3224,-2.2927,-2.2852,-2.2628,-2.2101,-2.2035,-2.1883,-2.1425,-2.1436,-2.1282,-2.0896,-2.0829,-2.0819,-2.0644,-2.0566,-2.0566,-2.0566,-2.0566,-2.0566,-2.0566,-2.0566,-2.0566,-2.0566,-2.0566,-2.0566,-2.0566,-2.0566,-2.0566,-2.0566,-2.0566,-2.0566,-2.0566,-2.0566,-2.0566,-2.0566,-2.0566,-2.0566,-2.0566,-2.0566,-2.0566,-2.0566,-2.0566,-2.0489,-2.0264,-2.0264,-1.9951,-1.9399,-1.8984,-1.8256,-1.7367,-2.6533,-2.6533,-2.6533,-2.6533,-2.6533,-2.6533,-2.6533,-2.6533,-2.6063,-2.4971,-2.482,-2.4393,-2.3203,-2.3078,-2.3078,-2.3078,-2.3078,-2.3017,-2.2909,-2.28,-2.2616,-2.2247,-2.1913,-2.1463,-2.0967,-2.0366,-1.9781,-1.9142,-1.8607,-1.8212,-1.8008,-1.8008,-1.8008,-1.8008,-1.8008,-1.8008,-1.8008,-1.8008,-1.8008,-1.8008,-1.8008,-1.8008,-1.8008,-1.8008,-1.8008,-1.8008,-1.8008,-1.8008,-1.8008,-1.8008,-1.8008,-1.8008,-1.8008,-1.8008,-1.8008,-1.8008,-1.8076,-1.8144,-1.8144,-1.8183,-1.8498,-1.9441,-1.9753,-2.0169,-2.1232,-2.1949,-2.2252,-2.2252,-2.2101,-2.1873,-2.1655,-2.1578,-2.1425,-2.1061,-2.0984,-2.0896,-2.0644,-2.0644,-2.0644,-2.0566,-2.0566,-2.0566,-2.0566,-2.0566,-2.0566,-2.0566,-2.0566,-2.0566,-2.0566,-2.0566,-2.0566,-2.0566,-2.0566,-2.0566,-2.0566,-2.0566,-2.0566,-2.0566,-2.0566,-2.0566,-2.0566,-2.0566,-2.0566,-2.0566,-2.0566,-2.0566,-2.0566,-2.0566,-2.0489,-2.0264,-2.002,-1.946,-1.8656,-1.7513,-1.687,-1.6476,-2.6533,-2.6533,-2.6533,-2.6533,-2.6533,-2.6533,-2.6533,-2.6189,-2.5699,-2.4921,-2.4556,-2.3992,-2.3117,-2.2909,-2.2909,-2.2969,-2.2957,-2.2896,-2.2665,-2.2494,-2.2173,-2.1588,-2.1273,-2.0892,-2.0431,-1.9901,-1.9441,-1.8942,-1.8607,-1.8279,-1.8008,-1.8008,-1.8008,-1.8008,-1.8008,-1.8008,-1.8008,-1.8008,-1.8008,-1.8008,-1.8008,-1.8008,-1.8008,-1.8008,-1.8008,-1.8008,-1.8008,-1.8008,-1.8008,-1.8008,-1.8008,-1.8008,-1.8008,-1.8008,-1.8008,-1.8008,-1.8008,-1.8008,-1.8008,-1.8008,-1.8213,-1.9216,-1.9423,-1.9659,-2.0688,-2.1031,-2.1262,-2.1425,-2.1359,-2.1282,-2.1031,-2.1041,-2.0964,-2.0731,-2.0731,-2.0731,-2.0644,-2.0566,-2.0566,-2.0566,-2.0566,-2.0566,-2.0566,-2.0566,-2.0566,-2.0566,-2.0566,-2.0566,-2.0566,-2.0566,-2.0566,-2.0566,-2.0566,-2.0566,-2.0566,-2.0566,-2.0566,-2.0566,-2.0566,-2.0566,-2.0566,-2.0566,-2.0566,-2.0566,-2.0566,-2.0566,-2.0566,-2.0566,-2.0342,-1.9872,-1.9627,-1.8736,-1.7448,-1.6378,-1.5809,-1.5575]},{"header":{"parameterUnit":"m.s-1","parameterCategory":1,"la1":30.6,"la2":28.766,"lo1":-90.7593,"lo2":-88.6598,"dy":0.0162,"dx":0.0183,"nx":116,"ny":114,"refTime":"2023-07-21T00:00:00:Z","depth":0,"parameterNumber":3,"parameterNumberName":"V-component_of_WINDS"},"data":[0.0,0.0,0.0,0.0,0.0,0.0,0.0,0.0,0.0,0.0,0.0,0.0,0.0,0.0,0.0,0.0,0.0,0.0,0.0,0.0,0.0,0.0,0.0,0.0,0.0,0.0,0.0,0.0,0.0,0.0,0.0,0.0,0.0,0.0,0.0,0.0,0.0,0.0,0.0,0.0,0.0,0.0,0.0,0.0,0.0,0.0,0.0,0.0,0.0,0.0,0.0,0.0,0.0,0.0,0.0,0.0,0.0,0.0,0.0,0.0,0.0,0.0,0.0,0.0,0.0,0.0,0.0,0.0,0.0,0.0,0.0,0.0,0.0,0.0,0.0,0.0,0.0,0.0,0.0,0.0,0.0,0.0,0.0,0.0,0.0,0.0,0.0,0.0,0.0,0.0,0.0,0.0,0.0,0.0,0.0,0.0,0.0,0.0,0.0,0.0,0.0,0.0,0.0,0.0,0.0,0.0,0.0,0.0,0.0,0.0,0.0,0.0,0.0,0.0,0.0,0.0,0.0,0.0,0.0,0.0,0.0,0.0,0.0,0.0,0.0,0.0,0.0,0.0,0.0,0.0,0.0,0.0,0.0,0.0,0.0,0.0,0.0,0.0,0.0,0.0,0.0,0.0,0.0,0.0,0.0,0.0,0.0,0.0,0.0,0.0,0.0,0.0,0.0,0.0,0.0,0.0,0.0,0.0,0.0,0.0,0.0,0.0,0.0,0.0,0.0,0.0,0.0,0.0,0.0,0.0,0.0,0.0,0.0,0.0,0.0,0.0,0.0,0.0,0.0,0.0,0.0,0.0,0.0,0.0,0.0,0.0,0.0,0.0,0.0,0.0,0.0,0.0,0.0,0.0,0.0,0.0,0.0,0.0,0.0,0.0,0.0,0.0,0.0,0.0,0.0,0.0,0.0,0.0,0.0,0.0,0.0,0.0,0.0,0.0,0.0,0.0,0.0,0.0,0.0,0.0,0.0,0.0,0.0,0.0,0.0,0.0,0.0,0.0,0.0,0.0,0.0,0.0,0.0,0.0,0.0,0.0,0.0,0.0,0.0,0.0,0.0,0.0,0.0,0.0,0.0,0.0,0.0,0.0,0.0,0.0,0.0,0.0,0.0,0.0,0.0,0.0,0.0,0.0,0.0,0.0,0.0,0.0,0.0,0.0,0.0,0.0,0.0,0.0,0.0,0.0,0.0,0.0,0.0,0.0,0.0,0.0,0.0,0.0,0.0,0.0,0.0,0.0,0.0,0.0,0.0,0.0,0.0,0.0,0.0,0.0,0.0,0.0,0.0,0.0,0.0,0.0,0.0,0.0,0.0,0.0,0.0,0.0,0.0,0.0,0.0,0.0,0.0,0.0,0.0,0.0,0.0,0.0,0.0,0.0,0.0,0.0,0.0,0.0,0.0,0.0,0.0,0.0,0.0,0.0,0.0,0.0,0.0,0.0,0.0,0.0,0.0,0.0,0.0,0.0,0.0,0.0,0.0,0.0,0.0,0.0,0.0,0.0,0.0,0.0,0.0,0.0,0.0,0.0,0.0,0.0,0.0,0.0,0.0,0.0,0.0,0.0,0.0,0.0,0.0,0.0,0.0,0.0,0.0,0.0,0.0,0.0,0.0,0.0,0.0,0.0,0.0,0.0,0.0,0.0,0.0,0.0,0.0,0.0,0.0,0.0,0.0,0.0,0.0,0.0,0.0,0.0,0.0,0.0,0.0,0.0,0.0,0.0,0.0,0.0,0.0,0.0,0.0,0.0,0.0,0.0,0.0,0.0,0.0,0.0,0.0,0.0,0.0,0.0,0.0,0.0,0.0,0.0,0.0,0.0,0.0,0.0,0.0,0.0,0.0,0.0,0.0,0.0,0.0,0.0,0.0,0.0,0.0,0.0,0.0,0.0,0.0,0.0,0.0,0.0,0.0,0.0,0.0,0.0,0.0,0.0,0.0,0.0,0.0,0.0,0.0,0.0,0.0,0.0,0.0,0.0,0.0,0.0,0.0,0.0,0.0,0.0,0.0,0.0,0.0,0.0,0.0,0.0,0.0,0.0,0.0,0.0,0.0,0.0,0.0,0.0,0.0,0.0,0.0,0.0,0.0,0.0,0.0,0.0,0.0,0.0,0.0,0.0,0.0,0.0,0.0,0.0,0.0,0.0,0.0,0.0,0.0,0.0,0.0,0.0,0.0,0.0,0.0,0.0,0.0,0.0,0.0,0.0,0.0,0.0,0.0,0.0,0.0,0.0,0.0,0.0,0.0,0.0,0.0,0.0,0.0,0.0,0.0,0.0,0.0,0.0,0.0,0.0,0.0,0.0,0.0,0.0,0.0,0.0,0.0,0.0,0.0,0.0,0.0,0.0,0.0,0.0,0.0,0.0,0.0,0.0,0.0,0.0,0.0,0.0,0.0,0.0,0.0,0.0,0.0,0.0,0.0,0.0,0.0,0.0,0.0,0.0,0.0,0.0,0.0,0.0,0.0,0.0,0.0,0.0,0.0,0.0,0.0,0.0,0.0,0.0,0.0,0.0,0.0,0.0,0.0,0.0,0.0,0.0,0.0,0.0,0.0,0.0,0.0,0.0,0.0,0.0,0.0,0.0,0.0,0.0,0.0,0.0,0.0,0.0,0.0,0.0,0.0,0.0,0.0,0.0,0.0,0.0,0.0,0.0,0.0,0.0,0.0,0.0,0.0,0.0,0.0,0.0,0.0,0.0,0.0,0.0,0.0,0.0,0.0,0.0,0.0,0.0,0.0,0.0,0.0,0.0,0.0,0.0,0.0,0.0,0.0,0.0,0.0,0.0,0.0,0.0,0.0,0.0,0.0,0.0,0.0,0.0,0.0,0.0,0.0,0.0,0.0,0.0,0.0,0.0,0.0,0.0,0.0,0.0,0.0,0.0,0.0,0.0,0.0,0.0,0.0,0.0,0.0,0.0,0.0,0.0,0.0,0.0,0.0,0.0,0.0,0.0,0.0,0.0,0.0,0.0,0.0,0.0,0.0,0.0,0.0,0.0,0.0,0.0,0.0,0.0,0.0,0.0,0.0,0.0,0.0,0.0,0.0,0.0,0.0,0.0,0.0,0.0,0.0,0.0,0.0,0.0,0.0,0.0,0.0,0.0,0.0,0.0,0.0,0.0,0.0,0.0,0.0,0.0,0.0,0.0,0.0,0.0,0.0,0.0,0.0,0.0,0.0,0.0,0.0,0.0,0.0,0.0,0.0,0.0,0.0,0.0,0.0,0.0,0.0,0.0,0.0,0.0,0.0,0.0,0.0,0.0,0.0,0.0,0.0,0.0,0.0,0.0,0.0,0.0,0.0,0.0,0.0,0.0,0.0,0.0,0.0,0.0,0.0,0.0,0.0,0.0,0.0,0.0,0.0,0.0,0.0,0.0,0.0,0.0,0.0,0.0,0.0,0.0,0.0,0.0,0.0,0.0,0.0,0.0,0.0,0.0,0.0,0.0,0.0,0.0,0.0,0.0,0.0,0.0,0.0,0.0,0.0,0.0,0.0,0.0,0.0,0.0,0.0,0.0,0.0,0.0,0.0,0.0,0.0,0.0,0.0,0.0,0.0,0.0,0.0,0.0,0.0,0.0,0.0,0.0,0.0,0.0,0.0,0.0,0.0,0.0,0.0,0.0,0.0,0.0,0.0,0.0,0.0,0.0,0.0,0.0,0.0,0.0,0.0,0.0,0.0,0.0,0.0,0.0,0.0,0.0,0.0,0.0,0.0,0.0,0.0,0.0,0.0,0.0,0.0,0.0,0.0,0.0,0.0,0.0,0.0,0.0,0.0,0.0,0.0,0.0,0.0,0.0,0.0,0.0,0.0,0.0,0.0,0.0,0.0,0.0,0.0,0.0,0.0,0.0,0.0,0.0,0.0,0.0,0.0,0.0,0.0,0.0,0.0,0.0,0.0,0.0,0.0,0.0,0.0,0.0,0.0,0.0,0.0,0.0,0.0,0.0,0.0,0.0,0.0,0.0,0.0,0.0,0.0,0.0,0.0,0.0,0.0,0.0,0.0,0.0,0.0,0.0,0.0,0.0,0.0,0.0,0.0,0.0,0.0,0.0,0.0,0.0,0.0,0.0,0.0,0.0,0.0,0.0,0.0,0.0,0.0,0.0,0.0,0.0,0.0,0.0,0.0,0.0,0.0,0.0,0.0,0.0,0.0,0.0,0.0,0.0,0.0,0.0,0.0,0.0,0.0,0.0,0.0,0.0,0.0,0.0,0.0,0.0,0.0,0.0,0.0,0.0,0.0,0.0,0.0,0.0,0.0,0.0,0.0,0.0,0.0,0.0,0.0,0.0,0.0,0.0,0.0,0.0,0.0,0.0,0.0,0.0,0.0,0.0,0.0,0.0,0.0,0.0,0.0,0.0,0.0,0.0,0.0,0.0,0.0,0.0,0.0,0.0,0.0,0.0,0.0,0.0,0.0,0.0,0.0,0.0,0.0,0.0,0.0,0.0,0.0,0.0,0.0,0.0,0.0,0.0,0.0,0.0,0.0,0.0,0.0,0.0,0.0,0.0,0.0,0.0,0.0,0.0,0.0,0.0,0.0,0.0,0.0,0.0,0.0,0.0,0.0,0.0,0.0,0.0,0.0,0.0,0.0,0.0,0.0,0.0,0.0,0.0,0.0,0.0,0.0,0.0,0.0,0.0,0.0,0.0,0.0,0.0,0.0,0.0,0.0,0.0,0.0,0.0,0.0,0.0,0.0,0.0,0.0,0.0,0.0,0.0,0.0,0.0,0.0,0.0,0.0,0.0,0.0,0.0,0.0,0.0,0.0,0.0,0.0,0.0,0.0,0.0,0.0,0.0,0.0,0.0,0.0,0.0,0.0,0.0,0.0,0.0,0.0,0.0,0.0,0.0,0.0,0.0,0.0,0.0,0.0,0.0,0.0,0.0,0.0,0.0,0.0,0.0,0.0,0.0,0.0,0.0,0.0,0.0,0.0,0.0,0.0,0.0,0.0,0.0,0.0,0.0,0.0,0.0,0.0,0.0,0.0,0.0,0.0,0.0,0.0,0.0,0.0,0.0,0.0,0.0,0.0,0.0,0.0,0.0,0.0,0.0,0.0,0.0,0.0,0.0,0.0,0.0,0.0,0.0,0.0,0.0,0.0,0.0,0.0,0.0,0.0,0.0,0.0,0.0,0.0,0.0,0.0,0.0,0.0,0.0,0.0,0.0,0.0,0.0,0.0,0.0,0.0,0.0,0.0,0.0,0.0,0.0,0.0,0.0,0.0,0.0,0.0,0.0,0.0,0.0,0.0,0.0,0.0,0.0,0.0,0.0,0.0,0.0,0.0,0.0,0.0,0.0,0.0,0.0,0.0,0.0,0.0,0.0,0.0,0.0,0.0,0.0,0.0,0.0,0.0,0.0,0.0,0.0,0.0,0.0,0.0,0.0,0.0,0.0,0.0,0.0,0.0,0.0,0.0,0.0,0.0,0.0,0.0,0.0,0.0,0.0,0.0,0.0,0.0,0.0,0.0,0.0,0.0,0.0,0.0,0.0,0.0,0.0,0.0,0.0,0.0,0.0,0.0,0.0,0.0,0.0,0.0,0.0,0.0,0.0,0.0,0.0,0.0,0.0,0.0,0.0,0.0,0.0,0.0,0.0,0.0,0.0,0.0,0.0,0.0,0.0,0.0,0.0,0.0,0.0,0.0,0.0,0.0,0.0,0.0,0.0,0.0,0.0,0.0,0.0,0.0,0.0,0.0,0.0,0.0,0.0,0.0,0.0,0.0,0.0,0.0,0.0,0.0,0.0,0.0,0.0,0.0,0.0,0.0,0.0,0.0,0.0,0.0,0.0,0.0,0.0,0.0,0.0,0.0,0.0,0.0,0.0,0.0,0.0,0.0,0.0,0.0,0.0,0.0,0.0,0.0,0.0,0.0,0.0,0.0,0.0,0.0,0.0,0.0,0.0,0.0,0.0,0.0,0.0,0.0,0.0,0.0,0.0,0.0,0.0,0.0,0.0,0.0,0.0,0.0,0.0,0.0,0.0,0.0,0.0,0.0,0.0,0.0,0.0,0.0,0.0,0.0,0.0,0.0,0.0,0.0,0.0,0.0,0.0,0.0,0.0,-1.9737,0.0,0.0,0.0,0.0,0.0,0.0,0.0,0.0,0.0,0.0,0.0,0.0,0.0,0.0,0.0,0.0,0.0,0.0,0.0,0.0,0.0,0.0,0.0,0.0,0.0,0.0,0.0,0.0,0.0,0.0,0.0,0.0,0.0,0.0,0.0,0.0,0.0,0.0,0.0,0.0,0.0,0.0,0.0,0.0,0.0,0.0,0.0,0.0,0.0,0.0,0.0,0.0,0.0,0.0,0.0,0.0,0.0,0.0,0.0,0.0,0.0,0.0,0.0,0.0,0.0,0.0,0.0,0.0,0.0,0.0,0.0,0.0,0.0,0.0,0.0,0.0,0.0,0.0,0.0,0.0,0.0,0.0,0.0,0.0,0.0,0.0,0.0,0.0,0.0,0.0,0.0,0.0,0.0,0.0,0.0,0.0,0.0,0.0,0.0,0.0,0.0,0.0,0.0,0.0,0.0,0.0,0.0,0.0,0.0,0.0,0.0,0.0,0.0,0.0,0.0,0.0,-2.1096,0.0,0.0,0.0,0.0,0.0,0.0,0.0,0.0,0.0,0.0,0.0,0.0,0.0,0.0,0.0,0.0,0.0,0.0,0.0,0.0,0.0,0.0,0.0,0.0,0.0,0.0,0.0,0.0,0.0,0.0,0.0,0.0,0.0,0.0,0.0,0.0,0.0,0.0,0.0,0.0,0.0,0.0,0.0,0.0,0.0,0.0,0.0,0.0,0.0,0.0,0.0,0.0,0.0,0.0,0.0,0.0,0.0,0.0,0.0,0.0,0.0,0.0,0.0,0.0,0.0,0.0,0.0,0.0,0.0,0.0,0.0,0.0,0.0,0.0,0.0,0.0,0.0,0.0,0.0,0.0,0.0,0.0,0.0,0.0,0.0,0.0,0.0,0.0,0.0,0.0,0.0,0.0,0.0,0.0,0.0,0.0,0.0,0.0,0.0,0.0,0.0,0.0,0.0,0.0,0.0,0.0,0.0,0.0,-2.0564,-2.0736,-2.1087,-2.1356,-2.1624,-2.1793,-2.1713,-2.19,-2.2274,0.0,0.0,0.0,0.0,0.0,0.0,0.0,0.0,0.0,0.0,0.0,0.0,0.0,0.0,0.0,0.0,0.0,0.0,0.0,0.0,0.0,0.0,0.0,0.0,0.0,0.0,0.0,0.0,0.0,0.0,0.0,0.0,0.0,0.0,0.0,0.0,0.0,0.0,0.0,-0.634,-0.5808,-0.5366,-0.4924,0.0,0.0,0.0,0.0,0.0,0.0,0.0,0.0,0.0,0.0,0.0,0.0,0.0,0.0,0.0,0.0,0.0,0.0,0.0,0.0,0.0,0.0,0.0,0.0,0.0,0.0,0.0,0.0,0.0,0.0,0.0,0.0,0.0,0.0,0.0,0.0,0.0,0.0,0.0,0.0,0.0,0.0,0.0,0.0,-1.535,-1.5737,0.0,0.0,0.0,0.0,0.0,0.0,0.0,0.0,0.0,0.0,0.0,0.0,0.0,-2.0011,-2.0102,-2.0727,-2.1078,-2.1266,-2.1463,-2.1553,-2.1642,-2.1919,-2.2008,-2.2087,-2.2441,0.0,-2.2715,-2.2969,0.0,0.0,0.0,0.0,0.0,0.0,0.0,0.0,0.0,0.0,0.0,0.0,0.0,0.0,0.0,0.0,0.0,0.0,0.0,0.0,0.0,0.0,0.0,0.0,0.0,0.0,0.0,0.0,0.0,0.0,0.0,0.0,0.0,0.0,0.0,0.0,-0.7143,-0.6877,-0.6612,-0.6435,-0.6169,-0.5727,-0.501,-0.4206,-0.3403,-0.3135,0.0,0.0,0.0,0.0,0.0,0.0,0.0,0.0,0.0,0.0,0.0,0.0,0.0,0.0,0.0,0.0,0.0,0.0,0.0,0.0,0.0,0.0,0.0,0.0,0.0,0.0,0.0,0.0,0.0,0.0,0.0,0.0,0.0,0.0,0.0,0.0,0.0,0.0,0.0,-1.4765,-1.5737,-1.6028,-1.6028,-1.6218,0.0,0.0,0.0,0.0,0.0,0.0,0.0,0.0,0.0,-1.9803,-2.0538,-2.1006,-2.1284,-2.1642,-2.1909,-2.2167,-2.2264,-2.2353,-2.253,-2.2618,-2.2618,-2.2706,-2.2882,-2.2969,-2.2969,-2.3047,-2.3135,-2.3135,0.0,0.0,0.0,0.0,-2.3135,-2.3135,0.0,0.0,0.0,0.0,0.0,0.0,0.0,0.0,0.0,0.0,0.0,0.0,0.0,0.0,0.0,0.0,0.0,0.0,0.0,0.0,0.0,0.0,0.0,0.0,0.0,0.0,0.0,0.0,-0.7139,-0.7054,-0.6881,-0.6881,-0.6704,-0.6349,-0.6349,-0.5722,-0.4654,-0.4295,-0.3669,0.0,0.0,0.0,0.0,0.0,0.0,0.0,0.0,0.0,0.0,0.0,0.0,0.0,0.0,0.0,0.0,0.0,0.0,0.0,0.0,0.0,0.0,0.0,0.0,0.0,0.0,0.0,0.0,0.0,0.0,0.0,0.0,0.0,0.0,0.0,0.0,0.0,0.0,-1.5255,-1.6021,-1.6312,-1.6407,-1.669,0.0,0.0,0.0,0.0,0.0,0.0,-1.943,-2.0175,-2.0736,-2.0997,-2.1445,-2.19,-2.2274,-2.2362,-2.2539,-2.2882,-2.2882,-2.2969,-2.3135,-2.3135,-2.3135,-2.3135,-2.3135,-2.3135,-2.3135,-2.3135,-2.3135,-2.3135,-2.3135,-2.3135,-2.3135,-2.3135,-2.3135,-2.3135,0.0,0.0,0.0,0.0,0.0,0.0,0.0,0.0,0.0,0.0,0.0,0.0,0.0,0.0,0.0,0.0,0.0,0.0,0.0,0.0,0.0,0.0,0.0,0.0,0.0,0.0,0.0,-0.7139,-0.7139,0.0,0.0,0.0,0.0,-0.7051,-0.7051,-0.6517,-0.563,-0.5097,0.0,0.0,0.0,0.0,0.0,0.0,0.0,0.0,0.0,0.0,0.0,0.0,0.0,0.0,0.0,0.0,0.0,0.0,0.0,0.0,0.0,0.0,0.0,0.0,0.0,0.0,0.0,0.0,0.0,0.0,0.0,0.0,0.0,0.0,0.0,0.0,0.0,0.0,0.0,0.0,0.0,-1.6588,-1.6958,0.0,0.0,0.0,0.0,-2.0102,-2.0201,-2.0555,-2.1266,-2.1526,-2.1713,-2.2008,-2.2451,-2.2715,-2.2803,-2.2969,-2.3047,-2.3047,-2.3047,-2.3057,-2.3135,-2.3135,-2.3135,-2.3135,-2.3135,-2.3135,-2.3135,-2.3135,-2.3135,-2.3135,-2.3135,-2.3135,-2.3135,-2.3135,-2.3135,-2.3135,0.0,0.0,0.0,0.0,0.0,0.0,0.0,0.0,0.0,0.0,0.0,0.0,0.0,0.0,0.0,0.0,0.0,0.0,0.0,0.0,0.0,0.0,0.0,0.0,0.0,0.0,0.0,0.0,0.0,0.0,0.0,0.0,0.0,0.0,0.0,0.0,0.0,0.0,0.0,0.0,0.0,0.0,0.0,0.0,0.0,0.0,0.0,0.0,0.0,0.0,0.0,0.0,0.0,0.0,0.0,0.0,0.0,0.0,0.0,0.0,0.0,0.0,0.0,0.0,0.0,0.0,0.0,0.0,0.0,0.0,0.0,0.0,0.0,0.0,0.0,0.0,0.0,0.0,0.0,-1.6784,-1.7434,0.0,-1.898,-1.9621,-2.0266,-2.0907,-2.1275,-2.1553,-2.182,-2.2167,-2.2441,-2.2539,-2.2794,-2.2969,-2.2969,-2.3047,-2.3135,-2.3135,-2.3135,-2.3135,-2.3135,-2.3135,-2.3135,-2.3135,-2.3135,-2.3135,-2.3135,-2.3135,-2.3135,-2.3135,-2.3135,-2.3135,-2.3135,-2.3135,-2.3135,-2.3135,0.0,0.0,0.0,0.0,0.0,0.0,0.0,0.0,0.0,0.0,0.0,0.0,0.0,0.0,0.0,0.0,0.0,0.0,0.0,0.0,0.0,0.0,0.0,0.0,0.0,0.0,0.0,0.0,0.0,0.0,0.0,0.0,0.0,0.0,0.0,0.0,0.0,0.0,0.0,0.0,0.0,0.0,-0.2332,0.0,0.0,0.0,0.0,0.0,0.0,0.0,0.0,0.0,0.0,0.0,0.0,0.0,0.0,0.0,0.0,0.0,0.0,0.0,0.0,0.0,0.0,0.0,0.0,0.0,0.0,0.0,0.0,0.0,0.0,0.0,0.0,0.0,0.0,0.0,-1.6595,-1.7153,-1.7994,-1.8904,-1.9894,-2.0628,-2.1177,-2.1811,-2.2176,-2.2362,-2.2441,-2.285,-2.3104,-2.3104,-2.3407,-2.3564,-2.3564,-2.3564,-2.3564,-2.3564,-2.3564,-2.3564,-2.3564,-2.3564,-2.3496,-2.3359,-2.3359,-2.3271,-2.3135,-2.3135,-2.3135,-2.3135,-2.3135,-2.3135,-2.3135,-2.3135,-2.3135,-2.3135,0.0,0.0,0.0,0.0,0.0,0.0,0.0,0.0,0.0,0.0,0.0,0.0,0.0,0.0,0.0,0.0,0.0,0.0,0.0,0.0,0.0,0.0,0.0,0.0,0.0,0.0,0.0,0.0,0.0,0.0,0.0,0.0,0.0,0.0,0.0,0.0,0.0,0.0,0.0,0.0,0.0,0.0,-0.2777,0.0,0.0,0.0,0.0,0.0,0.0,0.0,0.0,0.0,0.0,0.0,0.0,0.0,0.0,0.0,0.0,0.0,0.0,0.0,0.0,0.0,0.0,0.0,0.0,0.0,0.0,0.0,0.0,0.0,0.0,0.0,0.0,0.0,-1.4592,-1.5832,-1.6864,-1.7598,-1.8627,-1.9637,-2.0907,-2.1454,-2.1998,-2.2706,-2.2813,-2.2901,-2.3067,-2.3574,-2.3809,-2.3809,-2.4209,-2.4414,-2.4414,-2.4414,-2.4414,-2.4414,-2.4414,-2.4414,-2.4414,-2.4414,-2.4199,-2.3809,-2.3799,-2.3545,-2.3154,-2.3144,-2.3135,-2.3135,-2.3135,-2.3135,-2.3135,-2.3135,-2.3135,-2.3135,0.0,0.0,0.0,0.0,0.0,0.0,0.0,0.0,0.0,0.0,0.0,0.0,0.0,0.0,0.0,0.0,0.0,0.0,0.0,0.0,0.0,0.0,0.0,0.0,0.0,0.0,0.0,0.0,0.0,0.0,0.0,0.0,0.0,0.0,0.0,0.0,0.0,0.0,0.0,0.0,0.0,0.0,-0.2242,0.0,0.0,0.0,0.0,0.0,0.0,0.0,0.0,0.0,0.0,0.0,0.0,0.0,0.0,0.0,0.0,0.0,0.0,0.0,0.0,0.0,0.0,0.0,0.0,0.0,0.0,0.0,0.0,0.0,0.0,0.0,0.0,-1.4314,-1.4617,-1.5832,-1.6864,-1.7598,-1.8703,-1.9903,-2.1177,-2.1811,-2.2432,-2.2969,-2.3349,-2.3524,-2.3613,-2.4014,-2.4248,-2.4248,-2.4355,-2.4414,-2.4414,-2.4414,-2.4414,-2.4414,-2.4414,-2.4414,-2.4414,-2.4414,-2.4355,-2.4228,-2.3926,-2.3721,-2.3584,-2.3271,-2.3135,-2.3135,-2.3135,-2.3135,-2.3135,-2.3135,-2.3135,-2.3135,0.0,0.0,0.0,0.0,0.0,0.0,0.0,0.0,0.0,0.0,0.0,0.0,0.0,0.0,0.0,0.0,0.0,0.0,0.0,0.0,0.0,0.0,0.0,0.0,0.0,0.0,0.0,0.0,0.0,0.0,0.0,0.0,0.0,0.0,0.0,0.0,0.0,0.0,0.0,0.0,0.0,0.0,-0.2064,-0.0897,0.009,0.0989,0.2202,0.3647,0.5147,0.612,0.0,0.0,0.0,0.0,0.0,0.0,0.0,0.0,0.0,0.0,0.0,0.0,0.0,0.0,0.0,0.0,0.0,0.0,0.0,0.0,0.0,0.0,0.0,0.0,-1.3893,-1.4594,-1.5108,-1.6116,-1.7145,-1.8056,-1.9171,-2.0365,-2.1544,-2.2264,-2.2782,-2.331,-2.3652,-2.3867,-2.4043,-2.4453,-2.4687,-2.4687,-2.4873,-2.4971,-2.4971,-2.4971,-2.4971,-2.4971,-2.4971,-2.4971,-2.4971,-2.4971,-2.4863,0.0,-2.4434,-2.4121,-2.3769,-2.3516,-2.3301,0.0,0.0,0.0,0.0,0.0,-2.3135,-2.3135,0.0,0.0,0.0,0.0,0.0,0.0,0.0,0.0,0.0,0.0,0.0,0.0,0.0,0.0,0.0,0.0,0.0,0.0,0.0,0.0,0.0,0.0,0.0,0.0,0.0,0.0,0.0,0.0,0.0,0.0,0.0,0.0,0.0,0.0,0.0,0.0,0.0,0.0,0.0,0.0,0.0,0.0,-0.1974,-0.0538,0.0538,0.135,0.2575,0.4122,0.5623,0.6429,0.0,0.0,0.0,0.0,0.0,0.0,0.0,0.0,0.0,0.0,0.0,0.0,0.0,0.0,0.0,0.0,0.0,0.0,0.0,0.0,0.0,0.0,0.0,0.0,-1.4056,-1.5035,-1.5823,-1.6616,-1.7434,-1.8703,-1.9729,-2.0744,-2.2008,-2.2577,-2.3113,-2.376,-2.3877,-2.4092,-2.4473,0.0,0.0,0.0,0.0,-2.5742,-2.5742,-2.5742,-2.5742,-2.5742,-2.5742,-2.5742,-2.5742,-2.5742,-2.5518,-2.5137,-2.5088,-2.4639,-2.3926,-2.3887,-2.3603,-2.3213,-2.3154,-2.3135,-2.3135,-2.3135,-2.3135,-2.3135,0.0,0.0,0.0,0.0,0.0,0.0,0.0,0.0,0.0,0.0,0.0,0.0,0.0,0.0,0.0,0.0,0.0,0.0,0.0,0.0,0.0,0.0,0.0,0.0,0.0,0.0,0.0,0.0,0.0,0.0,0.0,0.0,0.0,0.0,0.0,0.0,0.0,0.0,0.0,0.0,0.0,0.0,-0.1436,-0.0179,0.0897,0.1803,0.2801,0.4263,0.5828,0.653,0.7319,0.8038,0.8038,0.0,0.0,0.0,0.0,0.0,0.0,0.0,0.0,0.0,0.0,0.0,0.0,0.0,0.0,0.0,0.0,0.0,0.0,0.0,0.0,-1.4025,-1.464,-1.5326,-1.6607,-1.702,-1.7606,-1.8703,-1.9729,-2.0744,-2.2008,-2.2834,-2.3422,-2.3779,-2.4434,-2.4853,-2.4941,-2.5371,-2.5605,-2.5605,-2.5693,-2.5742,-2.5742,-2.5742,-2.5742,-2.5742,0.0,0.0,-2.5742,-2.5742,-2.5693,-2.5586,-2.5225,-2.4971,-2.4795,-2.4443,-2.4043,-2.3633,-2.3271,-2.3135,-2.3135,-2.3135,-2.3135,-2.3135,0.0,0.0,0.0,0.0,0.0,0.0,0.0,0.0,0.0,0.0,0.0,0.0,0.0,0.0,0.0,0.0,0.0,0.0,0.0,0.0,-0.9938,0.0,0.0,0.0,0.0,0.0,0.0,0.0,0.0,0.0,0.0,0.0,0.0,0.0,0.0,0.0,0.0,0.0,0.0,0.0,0.0,0.0,-0.1076,0.0269,0.1345,0.2343,0.3561,0.4847,0.6121,0.7051,0.7739,0.8237,0.8538,0.8535,0.8464,0.0,0.0,0.0,0.0,0.0,0.0,0.0,0.0,0.0,0.0,0.0,0.0,0.0,0.0,-0.6816,0.0,0.0,-1.2149,-1.3841,-1.4752,-1.5555,-1.6626,-1.7198,-1.7973,-1.9004,-1.9994,-2.1096,-2.2176,-2.3089,-2.3787,-2.4092,-2.4707,-2.5166,-2.5391,-2.5615,-2.5742,-2.5742,-2.5742,-2.5742,-2.5742,-2.5742,-2.5742,-2.5742,-2.5742,-2.5742,-2.5742,-2.5742,-2.5742,-2.5723,-2.5508,-2.5273,-2.5029,-2.459,-2.417,-2.3769,-2.3545,-2.333,-2.3135,-2.3135,-2.3135,-2.3135,0.0,0.0,0.0,0.0,0.0,0.0,0.0,0.0,0.0,0.0,0.0,0.0,0.0,0.0,0.0,0.0,0.0,0.0,0.0,-0.9092,-0.8899,0.0,0.0,0.0,0.0,0.0,0.0,0.0,0.0,0.0,0.0,0.0,0.0,0.0,0.0,0.0,0.0,0.0,0.0,0.0,0.0,0.0,-0.0897,0.0628,0.1792,0.2792,0.4217,0.5419,0.6406,0.7645,0.8137,0.8531,0.9034,0.9031,0.8862,0.9368,0.9224,0.0,0.0,0.0,0.0,0.0,0.0,0.0,0.0,0.0,-0.2019,-0.2576,-0.4587,-0.6705,-0.8247,-1.0127,-1.2054,-1.3593,-1.4681,-1.5626,-1.6531,-1.7369,-1.8255,-1.9387,-2.0357,-2.1356,-2.2353,-2.3335,-2.4053,-2.4394,-2.4902,-2.5361,-2.5723,-2.5742,-2.5742,-2.5742,-2.5742,-2.5742,-2.5742,-2.5742,-2.5742,-2.5742,-2.5742,-2.5742,-2.5742,-2.5742,-2.5742,-2.5742,-2.5742,-2.5527,-2.5166,-2.4717,-2.4297,-2.3906,-2.3828,-2.3525,-2.3135,-2.3135,-2.3135,-2.3135,0.0,0.0,0.0,0.0,0.0,0.0,0.0,0.0,0.0,0.0,0.0,0.0,0.0,0.0,0.0,0.0,0.0,0.0,0.0,-0.8187,-0.7888,0.0,0.0,0.0,0.0,0.0,0.0,0.0,0.0,0.0,0.0,0.0,0.0,0.0,0.0,0.0,0.0,0.0,0.0,0.0,0.0,0.0,-0.0628,0.0807,0.1973,0.3063,0.4502,0.5703,0.6593,0.7641,0.8137,0.8531,0.9034,0.9031,0.8885,0.9515,0.0,0.8977,0.9272,0.8146,0.649,0.4925,0.336,0.2017,0.0,0.0,-0.2019,-0.2576,-0.4587,-0.6705,-0.8247,-0.9908,-1.1773,-1.3809,-1.469,-1.5482,-1.6807,-1.7595,-1.843,-1.9387,-2.0357,-2.1356,-2.2353,-2.3596,-2.4365,-2.4414,-2.5195,-2.5684,-2.5742,-2.5742,-2.5742,-2.5742,-2.5742,-2.5742,-2.5742,-2.5742,-2.5742,-2.5742,-2.5742,-2.5742,-2.5742,-2.5742,-2.5742,-2.5742,-2.5742,-2.5713,-2.5625,-2.5185,-2.4736,-2.4307,-2.3935,-2.3525,-2.3135,-2.3135,-2.3135,-2.3135,0.0,0.0,0.0,0.0,0.0,0.0,0.0,0.0,0.0,0.0,0.0,0.0,0.0,0.0,0.0,0.0,0.0,0.0,-0.794,-0.771,-0.7435,0.0,0.0,0.0,0.0,0.0,0.0,0.0,0.0,0.0,0.0,0.0,0.0,0.0,0.0,0.0,0.0,0.0,0.0,0.0,0.0,0.0,-0.0718,0.0807,0.2062,0.3244,0.4969,0.6081,0.0,0.0,0.8528,0.8829,0.9624,0.9693,0.952,1.0182,0.9809,0.0,0.8656,0.7712,0.6379,0.0,0.336,0.2017,0.1121,-0.0449,-0.2019,-0.2576,-0.4587,-0.6594,-0.7811,-0.9688,-1.1559,0.0,-1.4393,-1.567,-1.6666,-1.7668,-1.8747,-1.9795,-2.0727,-2.1626,-2.2692,-2.3789,-2.4521,-2.4775,-2.5381,-2.5742,-2.5742,-2.5742,-2.5742,-2.5742,-2.5742,-2.5742,-2.5742,-2.5742,-2.5742,-2.5742,-2.5742,-2.5742,-2.5742,-2.5742,-2.5742,-2.5742,-2.5742,-2.5742,-2.5723,-2.5537,-2.5049,-2.4394,-2.4219,-2.374,-2.3135,-2.3135,-2.3135,-2.3135,0.0,0.0,0.0,0.0,0.0,0.0,0.0,0.0,0.0,0.0,0.0,0.0,0.0,0.0,0.0,0.0,0.0,0.0,0.0,-0.7249,-0.7022,0.0,0.0,0.0,0.0,0.0,0.0,0.0,0.0,0.0,0.0,0.0,0.0,0.0,0.0,0.0,0.0,0.0,0.0,0.0,0.0,0.0,-0.0987,0.0538,0.1883,0.3243,0.5062,0.6178,0.0,0.0,0.8627,0.8825,0.9817,0.9846,0.9819,1.0414,0.9997,0.9222,0.8238,0.0,0.0,0.4815,0.336,0.2017,0.1121,-0.0449,-0.2019,-0.2576,-0.4587,-0.6594,-0.759,-0.9471,-1.1341,-1.2417,-1.4099,-1.5608,-1.6566,-1.781,-1.9,-2.0178,-2.1006,-2.2014,-2.3271,-2.3963,-2.46,-2.5029,-2.5488,-2.5742,-2.5742,-2.5742,-2.5742,-2.5742,-2.5742,-2.5742,-2.5742,-2.5742,-2.5742,-2.5742,-2.5742,-2.5742,-2.5742,-2.5742,-2.5742,-2.5742,-2.5742,-2.5742,-2.5742,-2.5742,-2.5215,-2.4414,-2.4414,-2.3896,-2.3135,-2.3135,-2.3135,-2.3135,0.0,0.0,0.0,0.0,0.0,0.0,0.0,0.0,0.0,0.0,0.0,0.0,0.0,0.0,0.0,0.0,0.0,0.0,0.0,-0.6714,-0.6563,-0.6338,0.0,0.0,0.0,0.0,0.0,0.0,0.0,0.0,0.0,0.0,0.0,0.0,0.0,0.0,0.0,0.0,0.0,0.0,0.0,0.0,-0.1256,0.0,0.1344,0.2792,0.4691,0.0,0.0,0.0,0.8237,0.8531,0.9034,0.9149,0.0,0.9588,0.9555,0.0,0.0,0.0,0.6379,0.4815,0.336,0.2017,0.1121,-0.0449,-0.2019,-0.2576,-0.4587,-0.6594,-0.7808,-0.9471,-1.1236,-1.2965,-1.4066,-1.5184,-1.6747,-1.7826,-1.8934,-2.0152,-2.1105,-2.2323,0.0,-2.4229,-2.46,-2.5029,-2.5488,-2.5742,-2.5742,-2.5742,-2.5742,-2.5742,-2.5742,-2.5742,-2.5742,-2.5742,-2.5742,-2.5742,-2.5742,-2.5742,-2.5742,-2.5742,-2.5742,-2.5742,-2.5742,-2.5742,-2.5742,-2.5742,-2.5215,-2.4414,-2.4414,-2.3896,-2.3135,-2.3135,-2.3135,-2.3135,0.0,0.0,0.0,0.0,0.0,0.0,0.0,0.0,0.0,0.0,0.0,0.0,0.0,0.0,0.0,0.0,0.0,0.0,0.0,-0.6641,-0.6486,-0.6338,-0.6338,0.0,0.0,0.0,0.0,0.0,0.0,0.0,0.0,0.0,0.0,0.0,0.0,0.0,0.0,0.0,0.0,0.0,0.0,0.0,-0.1972,-0.0628,0.0628,0.1983,0.0,0.0,0.0,0.0,0.7633,0.7932,0.8531,0.0,0.0,0.8987,0.8882,0.8598,0.7709,0.0,0.604,0.4364,0.3023,0.1904,0.0785,-0.0673,-0.2019,-0.2576,-0.4587,-0.6594,-0.7593,-0.9361,-1.1126,-1.2526,-1.3736,-1.5166,-1.672,-1.7804,-1.9012,-2.059,-2.1608,0.0,0.0,0.0,0.0,-2.5459,-2.5654,-2.5742,-2.5742,-2.5742,-2.5742,-2.5742,-2.5742,-2.5742,-2.5742,-2.5742,-2.5742,-2.5742,-2.5742,-2.5742,-2.5742,-2.5742,-2.5742,-2.5742,-2.5742,-2.5742,-2.5742,-2.5742,-2.5215,-2.4414,-2.4414,-2.3896,-2.3135,-2.3135,-2.3135,-2.3135,0.0,0.0,0.0,0.0,0.0,0.0,0.0,0.0,0.0,0.0,0.0,0.0,0.0,0.0,0.0,0.0,0.0,0.0,0.0,0.0,-0.6572,-0.6417,-0.6366,0.0,0.0,0.0,0.0,0.0,0.0,0.0,0.0,0.0,0.0,0.0,0.0,0.0,0.0,0.0,0.0,0.0,0.0,0.0,-0.2509,-0.1255,0.0,0.0,0.0,0.0,0.0,0.0,0.0,0.0,0.0,0.7733,0.8011,0.8084,0.801,0.7868,0.7143,0.6485,0.5592,0.4027,0.2799,0.1793,0.0673,-0.0785,-0.2019,-0.2576,-0.4587,-0.6594,-0.759,-0.9361,-1.1101,-1.2323,-1.3614,-1.5029,-1.6659,-1.7734,-1.8964,-2.0753,-2.1817,-2.2962,0.0,0.0,0.0,-2.5684,-2.5742,-2.5742,-2.5742,-2.5742,-2.5742,-2.5742,-2.5742,-2.5742,-2.5742,-2.5742,-2.5742,-2.5742,-2.5742,-2.5742,-2.5742,-2.5742,-2.5742,-2.5742,-2.5742,-2.5742,-2.5723,-2.5566,-2.5068,-2.4404,-2.4248,-2.376,-2.3135,-2.3135,-2.3135,-2.3135,0.0,0.0,0.0,0.0,0.0,0.0,0.0,0.0,0.0,0.0,0.0,0.0,0.0,0.0,0.0,0.0,0.0,0.0,0.0,0.0,0.0,-0.6702,-0.6563,-0.6481,0.0,0.0,0.0,0.0,0.0,0.0,0.0,0.0,0.0,0.0,0.0,0.0,0.0,0.0,0.0,0.0,0.0,0.0,-0.2867,-0.1883,0.0,0.0,0.0,0.0,0.0,0.0,0.0,0.0,0.0,0.622,0.6665,0.6786,0.6859,0.6891,0.6682,0.5931,0.5035,0.3804,0.2688,0.157,0.0561,-0.0785,-0.2019,-0.2576,-0.4587,-0.6594,0.0,0.0,-1.1176,-1.2578,-1.3604,-1.4773,-1.6683,-1.7632,-1.8812,0.0,0.0,0.0,0.0,0.0,0.0,-2.5703,0.0,-2.5742,-2.5742,-2.5742,-2.5742,-2.5742,-2.5742,-2.5742,-2.5742,-2.5742,-2.5742,-2.5742,-2.5742,-2.5742,-2.5742,-2.5742,-2.5742,-2.5742,-2.5742,-2.5723,-2.5674,-2.5244,-2.4795,-2.4346,-2.3945,-2.3525,-2.3135,-2.3135,-2.3135,-2.3135,0.0,0.0,0.0,0.0,0.0,0.0,0.0,0.0,0.0,0.0,0.0,0.0,0.0,0.0,0.0,0.0,0.0,0.0,0.0,0.0,0.0,0.0,0.0,0.0,0.0,0.0,0.0,0.0,0.0,0.0,0.0,0.0,0.0,0.0,0.0,0.0,0.0,0.0,0.0,0.0,0.0,0.0,-0.3851,0.0,0.0,0.0,0.0,0.0,0.0,0.0,0.0,0.0,0.0,0.4995,0.4988,0.5417,0.5506,0.5368,0.5127,0.47,0.4029,0.2911,0.2017,0.1234,0.0336,-0.0897,-0.2019,-0.2576,-0.4587,-0.6594,0.0,0.0,0.0,-1.2153,-1.3288,0.0,-1.6481,-1.753,0.0,-2.0808,0.0,-2.3289,-2.4312,-2.5117,0.0,0.0,-2.5742,-2.5742,-2.5742,-2.5742,-2.5742,-2.5742,-2.5742,-2.5742,-2.5742,-2.5742,-2.5742,-2.5742,-2.5742,-2.5742,-2.5742,-2.5742,-2.5742,-2.5742,-2.5742,-2.5547,-2.5234,-2.5117,-2.4629,-2.3935,-2.3828,-2.3525,-2.3135,-2.3135,-2.3135,-2.3135,0.0,0.0,0.0,0.0,0.0,0.0,0.0,0.0,0.0,0.0,0.0,0.0,0.0,0.0,0.0,0.0,0.0,0.0,0.0,0.0,0.0,0.0,0.0,0.0,0.0,0.0,0.0,0.0,0.0,0.0,0.0,0.0,0.0,0.0,0.0,0.0,0.0,0.0,0.0,0.0,0.0,0.0,0.0,0.0,0.0,0.0,0.0,0.0,0.0,0.0,0.0,0.3126,0.3426,0.3449,0.3491,0.3868,0.0,0.401,0.3969,0.3786,0.336,0.2241,0.1682,0.1121,0.0224,-0.0897,-0.2019,-0.2576,-0.4587,0.0,0.0,0.0,0.0,0.0,0.0,0.0,-1.6388,-1.7443,-1.8812,0.0,-2.2152,0.0,-2.4322,-2.5215,-2.5742,0.0,-2.5742,-2.5742,-2.5742,-2.5742,-2.5742,-2.5742,-2.5742,-2.5742,-2.5742,-2.5742,-2.5742,-2.5742,-2.5742,-2.5742,-2.5742,-2.5742,-2.5742,-2.5723,0.0,-2.5303,-2.5039,-2.4658,-2.4228,-2.3769,-2.3574,-2.335,-2.3135,-2.3135,-2.3135,-2.3135,0.0,0.0,0.0,0.0,0.0,0.0,0.0,0.0,0.0,0.0,0.0,0.0,0.0,0.0,0.0,0.0,0.0,0.0,0.0,0.0,0.0,0.0,0.0,0.0,0.0,0.0,0.0,0.0,0.0,0.0,0.0,0.0,0.0,0.0,0.0,0.0,0.0,0.0,0.0,0.0,0.0,0.0,0.0,0.0,0.0,0.0,0.0,0.0,0.0,0.0,0.1211,0.1816,0.1917,0.2017,0.2227,0.2373,0.262,0.2769,0.2825,0.2871,0.2682,0.1905,0.1346,0.0897,0.0112,-0.1009,-0.213,-0.2688,0.0,-0.6707,-0.7811,-0.9338,-1.0886,-1.2156,0.0,-1.4496,-1.6238,-1.7426,-1.8812,-2.0727,-2.2115,-2.3345,-2.4229,-2.5166,-2.5674,-2.5732,-2.5742,-2.5742,-2.5742,-2.5742,-2.5742,-2.5742,-2.5742,-2.5742,-2.5742,-2.5742,-2.5742,-2.5742,-2.5742,-2.5742,-2.5742,-2.5674,-2.5644,-2.5625,0.0,0.0,-2.4844,-2.4102,-2.375,-2.3662,-2.3291,-2.3135,-2.3135,-2.3135,-2.3135,-2.3135,0.0,0.0,0.0,0.0,0.0,0.0,0.0,0.0,0.0,0.0,0.0,0.0,0.0,0.0,0.0,0.0,0.0,0.0,0.0,0.0,0.0,0.0,0.0,0.0,0.0,0.0,0.0,0.0,0.0,0.0,0.0,0.0,0.0,0.0,0.0,0.0,0.0,0.0,0.0,0.0,0.0,0.0,0.0,0.0,0.0,0.0,0.0,0.0,0.0,0.0,0.0303,0.101,0.1313,0.1212,0.1114,0.1444,0.1558,0.1573,0.1625,0.1643,0.1542,0.1118,0.0673,0.0112,-0.0224,-0.1457,0.0,0.0,0.0,-0.6935,-0.782,-0.945,-1.0992,-1.1737,0.0,0.0,0.0,0.0,-1.8635,0.0,0.0,0.0,0.0,0.0,0.0,0.0,0.0,-2.5742,-2.5742,-2.5742,-2.5742,-2.5742,-2.5742,-2.5742,-2.5742,-2.5742,-2.5742,-2.5742,-2.5742,-2.5742,-2.5723,-2.5352,-2.5185,-2.5166,-2.4717,0.0,-2.3994,-2.3857,-2.3574,-2.3242,-2.3164,-2.3135,-2.3135,-2.3135,-2.3135,-2.3135,0.0,0.0,0.0,0.0,0.0,0.0,0.0,0.0,0.0,0.0,0.0,0.0,0.0,0.0,0.0,0.0,0.0,0.0,0.0,0.0,0.0,0.0,0.0,0.0,0.0,0.0,0.0,0.0,0.0,0.0,0.0,0.0,0.0,0.0,0.0,0.0,0.0,0.0,0.0,0.0,0.0,0.0,0.0,0.0,0.0,0.0,0.0,0.0,0.0,0.0,-0.1009,-0.0605,-0.0202,-0.0202,-0.0404,-0.0102,0.0103,0.0208,0.0424,0.0539,0.0548,0.011,-0.0223,-0.0673,-0.1233,0.0,0.0,0.0,0.0,-0.7246,-0.8163,0.0,0.0,0.0,0.0,0.0,0.0,0.0,0.0,0.0,0.0,0.0,0.0,0.0,0.0,0.0,0.0,-2.5488,-2.5723,-2.5742,-2.5742,-2.5742,-2.5742,-2.5742,-2.5742,-2.5742,-2.5615,-2.5391,-2.5391,-2.5264,-2.5039,-2.4824,-2.4727,-2.4707,-2.4277,0.0,-2.3769,-2.3545,-2.333,-2.3135,-2.3135,-2.3135,-2.3135,-2.3135,-2.3135,-2.3135,0.0,0.0,0.0,0.0,0.0,0.0,0.0,0.0,-0.6526,-0.608,-0.5186,-0.4565,-0.448,-0.4656,0.0,0.0,0.0,0.0,0.0,0.0,0.0,0.0,0.0,0.0,0.0,0.0,0.0,0.0,0.0,0.0,0.0,0.0,0.0,0.0,0.0,0.0,0.0,0.0,0.0,0.0,0.0,0.0,0.0,0.0,0.0,0.0,0.0,0.0,0.0,0.0,-0.242,-0.252,-0.2119,-0.1917,-0.1715,-0.1515,-0.1223,-0.1032,-0.0829,-0.0635,-0.0541,-0.0977,-0.1322,-0.1561,-0.2339,-0.3239,0.0,0.0,-0.6132,-0.7633,-0.8605,0.0,0.0,0.0,0.0,0.0,0.0,0.0,0.0,0.0,0.0,0.0,0.0,0.0,0.0,0.0,0.0,0.0,-2.5713,-2.5742,-2.5693,-2.5596,-2.5596,-2.5547,-2.5459,-2.5459,-2.5273,-2.4922,-2.4922,-2.4746,-2.4414,-2.4326,-2.4277,-2.4258,-2.3828,0.0,0.0,-2.3281,-2.3135,-2.3135,-2.3135,-2.3135,-2.3135,-2.3135,-2.3135,-2.3135,0.0,0.0,0.0,0.0,0.0,0.0,0.0,0.0,-0.6251,-0.5808,-0.4921,-0.421,-0.3765,-0.3851,0.0,0.0,0.0,0.0,0.0,0.0,0.0,0.0,0.0,0.0,0.0,0.0,0.0,0.0,0.0,0.0,0.0,0.0,0.0,0.0,0.0,0.0,0.0,0.0,0.0,0.0,0.0,0.0,0.0,0.0,0.0,0.0,0.0,0.0,0.0,0.0,0.0,-0.4533,-0.4533,-0.3528,-0.232,-0.2321,0.0,0.0,-0.1858,-0.1871,-0.1779,-0.1914,-0.2487,-0.3176,-0.3285,0.0,0.0,-0.604,-0.6955,-0.8069,-0.9241,-1.0028,0.0,0.0,0.0,0.0,0.0,0.0,0.0,0.0,0.0,0.0,0.0,0.0,0.0,0.0,0.0,0.0,-2.5693,-2.5742,-2.5557,-2.5137,-2.5127,-2.4941,-2.4541,-2.4541,-2.4512,-2.4473,-2.4473,-2.4453,-2.4404,-2.4023,-2.3848,-2.3828,-2.3389,0.0,0.0,-2.3154,-2.3135,-2.3135,-2.3135,-2.3135,-2.3135,-2.3135,-2.3135,-2.3135,0.0,0.0,0.0,0.0,0.0,0.0,0.0,0.0,-0.6435,-0.5991,-0.5097,-0.4385,-0.3851,-0.3849,0.0,0.0,0.0,0.0,0.0,0.0,0.0,0.0,0.0,0.0,0.0,0.0,0.0,0.0,0.0,0.0,0.0,0.0,0.0,0.0,0.0,0.0,0.0,0.0,0.0,0.0,0.0,0.0,0.0,0.0,0.0,0.0,0.0,0.0,0.0,0.0,0.0,0.0,-0.5737,-0.5334,0.0,0.0,-0.3728,-0.3633,-0.3255,-0.3185,-0.3319,-0.3658,-0.403,-0.4511,-0.5048,0.0,-0.6398,-0.6721,-0.7541,-0.8434,-0.9283,-1.0382,-1.1549,0.0,0.0,0.0,0.0,0.0,0.0,0.0,0.0,0.0,0.0,0.0,0.0,0.0,0.0,0.0,-2.4922,-2.4941,-2.4863,-2.4678,-2.4678,-2.459,-2.4414,-2.4414,-2.4287,-2.4043,-2.4043,-2.3906,-2.3643,-2.3477,-2.3398,-2.3389,-2.3213,0.0,0.0,-2.3135,-2.3135,-2.3135,-2.3135,-2.3135,-2.3135,-2.3135,-2.3135,-2.3135,0.0,0.0,0.0,0.0,0.0,0.0,-0.7319,-0.6969,-0.6615,-0.6171,-0.5366,-0.4741,-0.4208,-0.4206,-0.4295,0.0,0.0,0.0,0.0,0.0,0.0,0.0,0.0,0.0,0.0,0.0,0.0,0.0,0.0,0.0,0.0,0.0,0.0,0.0,0.0,0.0,0.0,0.0,0.0,0.0,0.0,0.0,0.0,0.0,0.0,0.0,0.0,0.0,0.0,0.0,0.0,0.0,0.0,0.0,0.0,0.0,-0.5236,-0.5035,-0.4736,-0.4575,-0.4722,-0.5135,-0.541,-0.5791,0.0,0.0,-0.7115,-0.7431,-0.8027,-0.8691,-0.9497,-1.0541,-1.1845,0.0,0.0,0.0,0.0,0.0,0.0,0.0,0.0,0.0,0.0,0.0,0.0,0.0,0.0,0.0,0.0,-2.4043,-2.4102,-2.4228,-2.4228,-2.417,-2.4043,-2.4043,-2.3887,-2.3594,-2.3594,-2.3437,-2.3135,-2.3135,-2.3135,-2.3135,0.0,0.0,0.0,-2.3135,-2.3135,-2.3135,-2.3135,-2.3135,-2.3135,-2.3135,-2.3135,-2.3135,0.0,0.0,0.0,0.0,0.0,0.0,0.0,0.0,-0.6615,-0.6171,-0.5727,-0.5193,0.0,0.0,0.0,0.0,0.0,0.0,0.0,0.0,0.0,0.0,0.0,0.0,0.0,0.0,0.0,0.0,0.0,0.0,0.0,0.0,0.0,0.0,0.0,0.0,0.0,0.0,0.0,0.0,0.0,0.0,0.0,0.0,0.0,0.0,0.0,0.0,0.0,0.0,0.0,0.0,0.0,0.0,0.0,0.0,-0.6239,-0.5942,-0.5942,-0.5942,-0.5942,-0.5942,-0.6529,-0.7027,0.0,0.0,-0.7957,-0.796,-0.8367,-0.898,-0.9981,-1.0735,-1.1775,-1.3613,0.0,0.0,0.0,0.0,0.0,0.0,0.0,0.0,0.0,0.0,0.0,0.0,0.0,0.0,0.0,-2.3154,-2.335,-2.3779,-2.3799,-2.3584,-2.3154,-2.3154,-2.3154,-2.3144,-2.3144,-2.3144,-2.3135,-2.3135,-2.3135,0.0,0.0,0.0,0.0,-2.3135,-2.3135,-2.3135,-2.3135,-2.3135,-2.3135,-2.3135,-2.3135,-2.3135,0.0,0.0,0.0,0.0,0.0,0.0,0.0,0.0,-0.6913,-0.6747,0.0,0.0,0.0,0.0,0.0,0.0,0.0,0.0,0.0,0.0,0.0,0.0,0.0,0.0,0.0,0.0,0.0,0.0,0.0,0.0,0.0,0.0,0.0,0.0,0.0,0.0,0.0,0.0,0.0,0.0,0.0,0.0,0.0,0.0,0.0,0.0,0.0,0.0,0.0,0.0,0.0,0.0,0.0,0.0,0.0,0.0,0.0,0.0,-0.6839,-0.6839,-0.6839,-0.7045,-0.7275,-0.7507,-0.7604,-0.7841,-0.7978,-0.7978,-0.8546,-0.9214,-0.9904,-1.1227,-1.2543,-1.3709,-1.4675,0.0,0.0,0.0,0.0,0.0,0.0,0.0,0.0,0.0,0.0,0.0,0.0,0.0,0.0,-2.3135,-2.3203,-2.334,-2.335,-2.3281,-2.3135,-2.3135,-2.3135,-2.3135,-2.3135,-2.3135,-2.3135,-2.3135,0.0,0.0,0.0,0.0,0.0,-2.3135,-2.3135,-2.3135,-2.3135,-2.3135,-2.3135,-2.3135,-2.3135,-2.3135,0.0,0.0,0.0,0.0,0.0,0.0,0.0,0.0,-0.7282,-0.7066,0.0,0.0,0.0,0.0,0.0,0.0,0.0,0.0,0.0,0.0,0.0,0.0,0.0,0.0,0.0,0.0,0.0,0.0,0.0,0.0,0.0,0.0,0.0,0.0,0.0,0.0,0.0,0.0,0.0,0.0,0.0,0.0,-0.7146,0.0,0.0,0.0,0.0,0.0,0.0,0.0,0.0,0.0,0.0,0.0,0.0,0.0,-0.7842,0.0,0.0,-0.7537,-0.7537,-0.7743,-0.7743,0.0,0.0,-0.8038,-0.8038,-0.8137,-0.8737,-0.943,-1.0314,-1.1668,-1.3022,-1.4004,-1.4968,0.0,0.0,0.0,0.0,0.0,0.0,0.0,0.0,0.0,0.0,0.0,0.0,0.0,0.0,-2.3135,-2.3135,-2.3135,-2.3135,-2.3135,-2.3135,-2.3135,-2.3135,-2.3135,-2.3135,-2.3135,-2.3135,-2.3135,0.0,0.0,0.0,0.0,0.0,-2.3135,-2.3135,-2.3135,-2.3135,-2.3135,-2.3135,-2.3135,-2.3135,-2.3135,0.0,0.0,0.0,0.0,0.0,0.0,0.0,0.0,0.0,0.0,0.0,0.0,0.0,0.0,0.0,0.0,0.0,0.0,0.0,0.0,0.0,0.0,0.0,0.0,0.0,0.0,0.0,0.0,-0.7139,-0.7139,-0.7139,0.0,0.0,0.0,0.0,0.0,0.0,0.0,0.0,0.0,0.0,0.0,0.0,0.0,0.0,0.0,0.0,0.0,0.0,0.0,0.0,0.0,0.0,0.0,0.0,0.0,0.0,0.0,0.0,0.0,0.0,0.0,0.0,0.0,0.0,-0.8041,0.0,-0.8333,-0.8931,-0.9727,-1.0998,-1.2058,-1.3216,-1.449,-1.5166,0.0,0.0,0.0,0.0,0.0,0.0,0.0,0.0,0.0,0.0,0.0,0.0,0.0,0.0,-2.3135,-2.3135,-2.3135,-2.3135,-2.3135,-2.3135,-2.3135,-2.3135,-2.3135,-2.3135,-2.3135,-2.3135,-2.3135,0.0,0.0,0.0,0.0,0.0,-2.3135,-2.3135,-2.3135,-2.3135,-2.3135,-2.3135,-2.3135,-2.3135,-2.3135,0.0,0.0,0.0,0.0,0.0,0.0,0.0,0.0,0.0,0.0,0.0,0.0,0.0,0.0,0.0,0.0,0.0,0.0,0.0,0.0,0.0,0.0,0.0,0.0,0.0,0.0,0.0,-0.7139,-0.7139,-0.7139,-0.7139,-0.7139,0.0,0.0,0.0,0.0,0.0,0.0,0.0,0.0,0.0,0.0,0.0,0.0,0.0,0.0,-0.7797,-0.7909,0.0,0.0,0.0,0.0,0.0,0.0,0.0,0.0,-0.8038,-0.8038,-0.8038,0.0,-0.8038,-0.8038,-0.8038,-0.8038,0.0,-0.8137,-0.8432,-0.8627,0.0,0.0,-1.1292,-1.2646,-1.3902,-1.4592,-1.5261,0.0,0.0,0.0,0.0,0.0,0.0,0.0,0.0,0.0,0.0,0.0,0.0,0.0,0.0,-2.3135,-2.3135,-2.3135,-2.3135,-2.3135,-2.3135,-2.3135,-2.3135,-2.3135,-2.3135,-2.3135,-2.3135,-2.3135,0.0,0.0,0.0,0.0,-2.3135,-2.3135,-2.3135,-2.3135,-2.3135,-2.3135,-2.3135,-2.3135,-2.3135,-2.3135,0.0,0.0,0.0,0.0,0.0,0.0,0.0,0.0,0.0,0.0,0.0,0.0,0.0,0.0,0.0,0.0,0.0,0.0,0.0,0.0,0.0,0.0,0.0,0.0,0.0,0.0,0.0,0.0,0.0,-0.7323,0.0,0.0,0.0,0.0,0.0,0.0,0.0,0.0,0.0,0.0,-0.8882,0.0,0.0,0.0,0.0,0.0,-0.8575,-0.8656,0.0,-0.8733,-0.8634,-0.8538,0.0,0.0,0.0,0.0,-0.8137,-0.8137,-0.8137,-0.8137,-0.8038,-0.8038,-0.8137,-0.8137,-0.8137,0.0,0.0,0.0,0.0,0.0,0.0,0.0,0.0,0.0,-1.5445,0.0,0.0,0.0,0.0,0.0,0.0,0.0,0.0,0.0,0.0,0.0,0.0,0.0,0.0,-2.3135,-2.3135,-2.3135,-2.3135,-2.3135,-2.3135,-2.3135,-2.3135,-2.3135,-2.3135,-2.3135,-2.3135,-2.3135,-2.3135,0.0,0.0,0.0,-2.3135,-2.3135,-2.3135,-2.3135,-2.3135,-2.3135,-2.3135,-2.3135,-2.3135,-2.3135,0.0,0.0,0.0,0.0,0.0,0.0,0.0,0.0,0.0,0.0,0.0,0.0,0.0,0.0,0.0,0.0,0.0,0.0,0.0,0.0,0.0,0.0,0.0,0.0,0.0,0.0,0.0,0.0,0.0,0.0,0.0,0.0,0.0,0.0,0.0,0.0,0.0,0.0,0.0,0.0,-1.0098,0.0,0.0,0.0,0.0,0.0,0.0,0.0,0.0,-0.9727,-0.9529,-0.9335,-0.9335,0.0,0.0,0.0,0.0,0.0,-0.863,-0.8435,-0.8237,-0.8237,-0.8336,-0.863,-0.863,0.0,0.0,0.0,0.0,0.0,0.0,0.0,0.0,0.0,0.0,0.0,0.0,0.0,0.0,0.0,0.0,0.0,0.0,0.0,0.0,0.0,0.0,0.0,0.0,-2.3135,-2.3135,-2.3135,-2.3135,-2.3135,-2.3135,-2.3135,-2.3135,-2.3135,-2.3135,-2.3135,-2.3135,-2.3135,-2.3135,0.0,0.0,0.0,-2.3135,-2.3135,-2.3135,-2.3135,-2.3135,-2.3135,-2.3135,-2.3135,-2.3135,-2.3125,0.0,0.0,0.0,0.0,0.0,0.0,0.0,0.0,0.0,0.0,0.0,0.0,0.0,0.0,0.0,0.0,0.0,0.0,0.0,0.0,0.0,0.0,0.0,0.0,0.0,0.0,0.0,0.0,0.0,0.0,-0.891,-0.9276,-0.9732,0.0,0.0,0.0,-1.1796,-1.1828,-1.1844,-1.1844,-1.1844,0.0,0.0,0.0,0.0,0.0,0.0,0.0,0.0,-1.0314,-1.0216,-1.0216,-0.992,0.0,0.0,0.0,0.0,0.0,-0.9723,-0.9723,-0.9624,-0.9133,-0.9232,-0.943,-0.9723,0.0,0.0,0.0,0.0,0.0,0.0,0.0,0.0,0.0,0.0,0.0,0.0,0.0,0.0,0.0,0.0,0.0,0.0,0.0,0.0,0.0,0.0,0.0,0.0,-2.3135,-2.3135,-2.3135,-2.3135,-2.3135,-2.3135,-2.3135,-2.3135,-2.3135,-2.3135,-2.3135,-2.3135,-2.3135,-2.3135,0.0,0.0,-2.3135,-2.3135,-2.3135,-2.3135,-2.3135,-2.3135,-2.3135,-2.3135,-2.3135,-2.3135,-2.3086,0.0,0.0,0.0,0.0,0.0,0.0,0.0,0.0,0.0,0.0,0.0,0.0,0.0,0.0,0.0,0.0,0.0,0.0,0.0,0.0,0.0,0.0,0.0,0.0,0.0,0.0,0.0,0.0,0.0,-0.9266,-0.982,-1.0648,-1.1293,-1.1941,0.0,0.0,-1.2985,-1.321,-1.3356,-1.3362,0.0,0.0,0.0,0.0,0.0,0.0,0.0,0.0,0.0,0.0,-1.1863,-1.157,-1.1473,0.0,0.0,0.0,0.0,0.0,-1.0609,-1.1091,-1.1375,-1.1179,-1.0797,-1.0511,-1.0605,0.0,0.0,0.0,0.0,0.0,0.0,0.0,0.0,0.0,0.0,0.0,0.0,0.0,0.0,0.0,0.0,0.0,0.0,0.0,0.0,0.0,0.0,0.0,0.0,0.0,-2.3135,-2.3135,-2.3135,-2.3135,-2.3135,-2.3135,-2.3135,-2.3135,-2.3135,-2.3135,-2.3135,-2.3135,-2.3135,-2.3135,0.0,-2.3135,-2.3135,-2.3135,-2.3135,-2.3135,-2.3135,-2.3135,-2.3105,-2.2881,-2.2803,-2.2734,0.0,0.0,0.0,0.0,0.0,0.0,0.0,0.0,0.0,0.0,0.0,0.0,0.0,0.0,0.0,0.0,0.0,0.0,0.0,0.0,0.0,0.0,0.0,0.0,0.0,0.0,-0.8455,-0.8836,-0.9465,-1.0238,-1.1071,-1.2194,-1.294,0.0,0.0,0.0,-1.4102,-1.4404,-1.4586,-1.4586,0.0,0.0,0.0,0.0,0.0,0.0,0.0,0.0,0.0,0.0,0.0,0.0,0.0,0.0,0.0,-1.1775,-1.1775,-1.1775,-1.1775,-1.2355,-1.3022,-1.3022,0.0,-1.1775,-1.1775,0.0,0.0,0.0,0.0,0.0,0.0,0.0,0.0,0.0,0.0,0.0,0.0,0.0,0.0,0.0,0.0,0.0,0.0,0.0,0.0,0.0,0.0,0.0,0.0,0.0,-2.3057,-2.3057,-2.3057,-2.3135,-2.3135,-2.3135,-2.3135,-2.3135,-2.3135,-2.3135,-2.3135,-2.3135,-2.3135,-2.3135,-2.3135,-2.3135,-2.3135,-2.3135,-2.3135,-2.3135,-2.3135,-2.3076,-2.2949,-2.2627,-2.2383,-2.2168,0.0,0.0,0.0,0.0,0.0,0.0,0.0,0.0,0.0,0.0,0.0,0.0,0.0,0.0,0.0,0.0,0.0,0.0,0.0,0.0,0.0,0.0,0.0,0.0,0.0,-0.8226,-0.8806,-0.9493,-1.0271,-1.1628,-1.3267,-1.3849,-1.4339,-1.453,0.0,0.0,-1.5419,-1.5439,-1.5445,-1.5445,-1.535,0.0,0.0,0.0,0.0,0.0,0.0,0.0,0.0,0.0,0.0,0.0,0.0,0.0,-1.3613,-1.3414,-1.3318,-1.342,-1.3613,-1.3806,-1.3902,-1.41,-1.3806,0.0,-1.3613,-1.3908,0.0,0.0,0.0,0.0,0.0,0.0,0.0,0.0,0.0,0.0,0.0,0.0,0.0,0.0,0.0,0.0,0.0,0.0,0.0,0.0,0.0,0.0,0.0,0.0,0.0,-2.2803,-2.2969,-2.3135,-2.3135,-2.3135,-2.3135,-2.3135,-2.3135,-2.3135,-2.3135,-2.3135,-2.3135,-2.3135,-2.3135,-2.3135,-2.3135,-2.3135,-2.3135,-2.3135,-2.3135,-2.29,-2.2549,-2.2519,-2.2012,-2.1318,0.0,0.0,0.0,0.0,0.0,0.0,0.0,0.0,0.0,0.0,0.0,0.0,0.0,0.0,0.0,0.0,0.0,0.0,0.0,0.0,0.0,0.0,0.0,-0.9221,-0.9229,-0.9327,-0.9813,-1.06,-1.2063,-1.3323,-1.4496,-1.4873,0.0,0.0,0.0,0.0,-1.5737,-1.5737,-1.5737,-1.5737,-1.5737,-1.554,0.0,0.0,0.0,0.0,0.0,0.0,0.0,0.0,-1.5159,-1.5064,0.0,0.0,-1.4394,-1.4298,-1.4292,-1.4298,-1.4394,-1.4675,-1.4962,-1.5064,-1.4962,0.0,0.0,0.0,0.0,0.0,0.0,0.0,0.0,0.0,0.0,0.0,0.0,0.0,0.0,0.0,0.0,0.0,0.0,0.0,0.0,0.0,0.0,0.0,0.0,0.0,0.0,0.0,0.0,-2.253,-2.2794,-2.2969,-2.3135,-2.3135,-2.3135,-2.3135,-2.3135,-2.3135,-2.3135,-2.3135,-2.3135,-2.3135,-2.3135,-2.3135,-2.3135,-2.3135,-2.3135,-2.3115,-2.2852,-2.2656,-2.2451,-2.1914,-2.1514,-2.1191,0.0,0.0,0.0,0.0,0.0,0.0,0.0,0.0,0.0,0.0,0.0,0.0,0.0,0.0,0.0,0.0,0.0,0.0,0.0,0.0,0.0,0.0,0.0,-1.0207,-1.0703,-1.0895,-1.1091,-1.1487,-1.3232,-1.449,-1.5267,0.0,0.0,0.0,0.0,0.0,0.0,-1.5832,-1.5832,-1.5832,-1.5832,-1.5832,0.0,0.0,0.0,0.0,0.0,0.0,0.0,0.0,0.0,0.0,0.0,0.0,0.0,0.0,-1.507,-1.507,-1.507,-1.535,-1.5635,0.0,0.0,0.0,0.0,0.0,0.0,0.0,0.0,0.0,0.0,0.0,0.0,0.0,0.0,0.0,0.0,0.0,0.0,0.0,0.0,0.0,0.0,0.0,0.0,0.0,0.0,0.0,0.0,0.0,0.0,0.0,-2.2618,-2.2891,-2.3135,-2.3135,-2.3135,-2.3135,-2.3135,-2.3135,-2.3135,-2.3135,-2.3135,-2.3135,-2.3135,-2.3135,-2.3135,-2.3135,-2.3057,-2.29,-2.248,-2.2227,-2.2041,-2.1526,-2.1222,-2.1145,0.0,0.0,0.0,0.0,0.0,0.0,0.0,0.0,0.0,0.0,0.0,0.0,0.0,0.0,0.0,0.0,0.0,0.0,0.0,0.0,0.0,0.0,0.0,-1.1292,-1.237,-1.284,-1.2743,-1.2078,-1.3817,-1.4975,-1.554,-1.573,0.0,0.0,0.0,0.0,0.0,0.0,-1.5832,-1.5832,-1.5832,-1.5832,-1.5832,0.0,0.0,0.0,0.0,0.0,0.0,0.0,-1.5832,0.0,0.0,0.0,0.0,0.0,-1.5832,-1.5832,-1.5832,-1.5832,-1.5825,0.0,0.0,0.0,0.0,0.0,0.0,0.0,0.0,0.0,0.0,0.0,0.0,0.0,0.0,0.0,0.0,0.0,0.0,0.0,0.0,0.0,0.0,0.0,0.0,0.0,0.0,0.0,0.0,0.0,0.0,0.0,-2.2539,-2.2882,-2.3135,-2.3135,-2.3135,-2.3135,-2.3135,-2.3135,-2.3135,-2.3135,-2.3135,-2.3135,-2.3135,-2.3135,-2.3135,-2.3125,-2.2881,-2.2461,-2.2041,-2.1611,-2.123,-2.1461,-2.1273,-2.1061,0.0,0.0,0.0,0.0,0.0,0.0,0.0,0.0,0.0,0.0,0.0,0.0,0.0,0.0,0.0,0.0,0.0,0.0,0.0,0.0,0.0,0.0,0.0,0.0,0.0,0.0,-1.4202,-1.4208,-1.4873,-1.5445,0.0,0.0,0.0,-1.5832,0.0,0.0,0.0,0.0,-1.5832,-1.5832,-1.5832,-1.5832,-1.5832,0.0,0.0,0.0,0.0,0.0,0.0,0.0,0.0,0.0,0.0,0.0,0.0,-1.6123,-1.6312,-1.6595,-1.6595,-1.6777,0.0,-1.6864,0.0,0.0,0.0,0.0,0.0,0.0,0.0,0.0,0.0,0.0,0.0,0.0,0.0,0.0,0.0,0.0,0.0,0.0,0.0,0.0,0.0,0.0,0.0,0.0,0.0,0.0,0.0,0.0,0.0,0.0,-2.2264,-2.2706,-2.3135,-2.3135,-2.3135,-2.3135,-2.3135,-2.3135,-2.3135,-2.3135,-2.3135,-2.3135,-2.3135,-2.2969,-2.2676,-2.2383,-2.2261,-2.2271,-2.1826,-2.174,-2.1819,-2.1585,-2.1614,-2.1807,0.0,0.0,0.0,0.0,0.0,0.0,0.0,0.0,0.0,0.0,0.0,0.0,0.0,0.0,0.0,0.0,0.0,0.0,0.0,0.0,0.0,0.0,0.0,0.0,0.0,-1.4873,-1.5261,0.0,0.0,0.0,0.0,0.0,0.0,-1.5832,0.0,-1.5832,0.0,0.0,-1.5927,-1.6021,-1.6211,-1.6305,-1.6312,0.0,0.0,0.0,0.0,0.0,0.0,0.0,0.0,0.0,0.0,0.0,0.0,-1.6777,-1.7059,-1.734,-1.7441,-1.7527,0.0,-1.7613,-1.7527,-1.7441,-1.734,0.0,0.0,0.0,0.0,0.0,0.0,0.0,0.0,0.0,0.0,0.0,0.0,0.0,0.0,0.0,0.0,0.0,0.0,0.0,0.0,0.0,0.0,0.0,0.0,0.0,0.0,0.0,-2.2353,-2.2706,-2.3135,-2.3135,-2.3135,-2.3135,-2.3135,-2.3135,-2.3135,-2.3135,-2.3135,-2.3125,-2.2959,-2.2646,-2.2236,-2.1807,-2.1703,-2.1897,-2.1541,-2.1597,-2.1947,-2.1977,-2.2176,-2.2553,0.0,0.0,0.0,0.0,0.0,0.0,0.0,0.0,0.0,0.0,0.0,0.0,0.0,0.0,0.0,0.0,0.0,0.0,0.0,0.0,0.0,0.0,0.0,0.0,0.0,0.0,0.0,0.0,0.0,0.0,0.0,0.0,-1.5832,-1.5832,0.0,-1.5832,0.0,-1.6123,-1.6218,-1.6312,-1.6878,-1.7073,-1.7167,-1.7333,0.0,0.0,0.0,0.0,0.0,0.0,0.0,0.0,-1.7326,0.0,-1.7512,-1.7692,-1.7878,-1.7971,-1.8265,0.0,0.0,-1.8357,-1.8357,0.0,-1.7878,0.0,0.0,0.0,0.0,0.0,0.0,0.0,0.0,0.0,0.0,0.0,0.0,0.0,0.0,0.0,0.0,0.0,0.0,0.0,0.0,0.0,0.0,0.0,0.0,0.0,0.0,-2.2008,-2.2539,-2.2882,-2.3135,-2.3135,-2.3135,0.0,-2.3135,-2.3115,-2.3086,-2.3086,-2.3057,-2.2998,-2.2578,-2.2178,-2.1787,-2.1357,-2.1252,-2.1441,-2.1278,-2.1502,-2.1959,-2.2553,-2.2927,-2.3287,0.0,0.0,0.0,0.0,0.0,0.0,0.0,0.0,0.0,0.0,0.0,0.0,0.0,0.0,0.0,0.0,0.0,0.0,0.0,0.0,0.0,0.0,0.0,0.0,0.0,0.0,0.0,0.0,0.0,0.0,0.0,0.0,0.0,-1.5832,0.0,-1.5927,-1.6123,-1.64,-1.6777,-1.7052,-1.7419,-1.7707,-1.79,-1.79,-1.7893,0.0,0.0,0.0,0.0,0.0,0.0,0.0,-1.7893,-1.8164,-1.8519,-1.8519,-1.9072,-1.9729,-1.9828,-2.0093,0.0,0.0,-2.0093,-1.9646,0.0,0.0,0.0,0.0,0.0,0.0,0.0,0.0,0.0,0.0,0.0,0.0,0.0,0.0,0.0,0.0,0.0,0.0,0.0,0.0,0.0,0.0,0.0,0.0,0.0,0.0,0.0,-2.1731,-2.2264,-2.2696,-2.3135,-2.3135,-2.3135,0.0,-2.3135,-2.2969,-2.2646,-2.2646,-2.2471,-2.2129,-2.1699,-2.1455,-2.1348,-2.0889,-2.0947,-2.1258,-2.1543,-2.2101,-2.2852,-2.3446,-2.3948,-2.4432,0.0,0.0,0.0,0.0,0.0,0.0,0.0,0.0,0.0,0.0,0.0,0.0,0.0,0.0,0.0,0.0,0.0,0.0,0.0,0.0,0.0,0.0,0.0,0.0,0.0,0.0,0.0,0.0,0.0,0.0,0.0,0.0,0.0,-1.5832,0.0,-1.5927,-1.6218,-1.6777,-1.7239,-1.7707,-1.8427,-1.8896,-1.9188,-1.9363,-1.9446,-1.9446,-1.9446,0.0,0.0,0.0,0.0,0.0,0.0,0.0,-1.9894,-1.9977,-2.0447,-2.0826,0.0,0.0,0.0,0.0,0.0,0.0,0.0,0.0,0.0,0.0,0.0,0.0,0.0,0.0,0.0,0.0,0.0,0.0,0.0,0.0,0.0,0.0,0.0,0.0,0.0,0.0,0.0,0.0,0.0,0.0,0.0,-1.992,-2.0916,-2.183,-2.2353,-2.2794,-2.3135,-2.3135,-2.3037,-2.2832,-2.2832,-2.251,-2.1914,-2.2119,-2.1982,-2.1562,-2.1338,-2.1113,-2.0898,-2.0752,-2.0964,-2.1359,-2.1883,-2.2553,-2.3372,-2.402,-2.4587,-2.5087,0.0,0.0,0.0,0.0,0.0,0.0,0.0,0.0,0.0,0.0,0.0,0.0,0.0,0.0,0.0,0.0,0.0,0.0,0.0,0.0,0.0,0.0,0.0,0.0,0.0,0.0,0.0,0.0,0.0,0.0,0.0,0.0,0.0,-1.5832,0.0,0.0,-1.6407,-1.7145,-1.7885,-1.8542,-1.9621,-2.0266,-2.0555,-2.0997,-2.1087,-2.1087,-2.1087,-2.1087,-2.1087,-2.1087,0.0,0.0,0.0,0.0,-2.1266,-2.1445,-2.1544,-2.1722,0.0,0.0,0.0,0.0,0.0,0.0,0.0,0.0,0.0,0.0,0.0,0.0,0.0,0.0,0.0,0.0,0.0,0.0,0.0,0.0,0.0,0.0,0.0,0.0,0.0,0.0,0.0,0.0,0.0,0.0,-1.9096,-2.0093,-2.1006,-2.2097,-2.2539,-2.2853,-2.3027,-2.3027,-2.2822,-2.2402,-2.2324,-2.1924,-2.125,-2.1533,-2.1465,-2.1123,-2.1123,-2.0997,-2.0644,-2.0896,-2.1205,-2.1655,-2.2327,-2.3065,-2.3801,-2.4576,-2.5087,-2.5535,0.0,0.0,0.0,0.0,0.0,0.0,0.0,0.0,0.0,0.0,0.0,0.0,0.0,0.0,0.0,0.0,0.0,0.0,-1.6286,0.0,0.0,-1.573,-1.5825,0.0,0.0,0.0,0.0,0.0,0.0,0.0,0.0,0.0,0.0,-1.613,0.0,0.0,0.0,-1.7971,-1.8796,-1.9712,-2.0538,-2.1096,-2.1553,-2.1553,-2.1642,-2.1642,-2.1642,-2.1642,-2.1642,-2.1642,-2.1642,0.0,0.0,0.0,-2.2008,-2.2008,-2.2264,-2.2618,0.0,0.0,0.0,0.0,0.0,0.0,0.0,0.0,0.0,0.0,0.0,0.0,0.0,0.0,0.0,0.0,0.0,0.0,0.0,0.0,0.0,0.0,0.0,0.0,0.0,0.0,0.0,0.0,0.0,0.0,-1.9096,-1.992,-2.0916,-2.2097,-2.2353,-2.2533,-2.2598,-2.2598,-2.2383,-2.1963,-2.1592,-2.1348,-2.1221,-2.0889,-2.0713,-2.0654,-2.083,-2.0878,-2.0906,-2.1282,-2.1655,-2.2101,-2.2852,-2.3644,-2.442,-2.5158,-2.5758,-2.6131,0.0,0.0,0.0,0.0,0.0,0.0,0.0,0.0,0.0,0.0,0.0,0.0,0.0,0.0,0.0,-1.7181,-1.7048,-1.676,-1.6299,-1.5999,-1.5832,-1.5832,-1.5832,-1.5832,0.0,0.0,0.0,0.0,0.0,0.0,0.0,-1.6414,-1.6595,0.0,0.0,0.0,0.0,0.0,-1.953,-2.0357,-2.1275,-2.1909,-2.2362,-2.2441,-2.252,-2.252,-2.252,-2.252,-2.252,-2.252,-2.252,-2.252,-2.252,0.0,0.0,0.0,-2.2794,0.0,-2.2679,0.0,0.0,0.0,0.0,0.0,0.0,0.0,0.0,0.0,0.0,0.0,0.0,0.0,0.0,0.0,0.0,0.0,0.0,0.0,0.0,0.0,0.0,0.0,0.0,0.0,0.0,0.0,0.0,-1.8045,-1.9121,-1.9825,-2.0611,-2.1569,-2.175,-2.2005,-2.2168,-2.2158,-2.1943,-2.1514,-2.1074,-2.0859,-2.0859,-2.0654,-2.0654,-2.0819,-2.0974,-2.1205,-2.1436,-2.1949,-2.2402,-2.2841,-2.3644,-2.4288,-2.4791,-2.5535,-2.598,-2.6201,0.0,0.0,0.0,0.0,0.0,0.0,0.0,0.0,0.0,0.0,0.0,0.0,0.0,0.0,0.0,0.0,-1.7315,-1.6901,-1.6313,-1.5999,-1.5832,-1.5832,-1.5832,-1.5832,-1.5832,0.0,0.0,0.0,0.0,0.0,-1.6312,-1.6878,-1.7153,0.0,-1.752,0.0,0.0,0.0,0.0,0.0,0.0,0.0,0.0,0.0,0.0,-2.3135,-2.3135,-2.3135,-2.3135,-2.3135,-2.3135,-2.3135,-2.3135,-2.3135,0.0,0.0,0.0,0.0,0.0,0.0,0.0,0.0,0.0,0.0,0.0,0.0,0.0,0.0,0.0,0.0,0.0,0.0,0.0,0.0,0.0,0.0,0.0,0.0,0.0,0.0,0.0,0.0,0.0,0.0,0.0,0.0,0.0,-1.8189,-1.923,-1.975,-2.0428,-2.1275,-2.1451,-2.1578,-2.1719,-2.1611,-2.1387,-2.1064,-2.0723,-2.0566,-2.0566,-2.0566,-2.0731,-2.1061,-2.1282,-2.1578,-2.2025,-2.2703,-2.3213,-2.3655,-2.4348,-2.4862,-2.5312,-2.5758,-2.6119,-2.627,0.0,0.0,0.0,0.0,0.0,0.0,0.0,0.0,0.0,0.0,0.0,0.0,0.0,-1.6974,-1.7268,-1.7555,-1.7315,-1.6901,-1.6313,-1.5999,-1.5832,-1.5832,-1.5832,0.0,-1.5832,0.0,0.0,0.0,0.0,0.0,-1.6588,-1.7318,-1.8056,-1.8696,-1.8727,-1.9004,-1.9546,0.0,0.0,0.0,0.0,0.0,0.0,0.0,0.0,0.0,0.0,0.0,-2.3135,-2.3135,-2.3135,-2.3135,-2.3135,-2.3135,-2.3057,0.0,0.0,0.0,0.0,0.0,0.0,0.0,0.0,0.0,0.0,0.0,0.0,0.0,0.0,0.0,0.0,0.0,0.0,0.0,0.0,0.0,0.0,0.0,0.0,0.0,0.0,0.0,0.0,0.0,0.0,0.0,0.0,-1.8448,-1.963,-1.9903,-2.0521,-2.146,-2.146,-2.1433,-2.1279,-2.085,-2.0625,-2.0596,-2.0576,-2.0566,-2.0566,-2.0566,-2.0954,-2.1502,-2.1655,-2.2035,-2.2478,-2.3446,-2.402,-2.442,-2.5004,-2.5535,-2.591,-2.6131,-2.6339,-2.6465,0.0,0.0,0.0,0.0,0.0,0.0,0.0,0.0,0.0,0.0,0.0,0.0,0.0,-1.6794,-1.6907,-1.7007,-1.6754,-1.6493,-1.6286,-1.5999,-1.5832,-1.5832,-1.5832,-1.5832,-1.5832,0.0,0.0,0.0,0.0,-1.677,-1.7318,-1.8056,-1.8888,-1.9729,-1.9737,-2.0011,-2.0546,-2.1365,0.0,0.0,0.0,0.0,0.0,0.0,0.0,0.0,0.0,0.0,0.0,-2.3851,-2.3851,-2.3714,-2.3423,-2.3172,-2.2837,-2.232,-2.1807,0.0,0.0,0.0,0.0,0.0,0.0,0.0,0.0,0.0,0.0,0.0,0.0,0.0,0.0,0.0,0.0,0.0,0.0,0.0,0.0,0.0,0.0,0.0,0.0,0.0,0.0,0.0,0.0,0.0,0.0,0.0,-1.9804,-2.0056,-2.0476,-2.0876,-2.0956,-2.0887,-2.081,-2.0644,-2.0566,-2.0566,-2.0566,-2.0566,-2.0566,-2.0731,-2.1051,-2.1502,-2.2252,-2.2852,-2.3446,-2.4154,-2.4731,-2.5241,-2.5688,-2.598,-2.6131,-2.6327,-2.6465,-2.6533,0.0,0.0,0.0,0.0,0.0,0.0,0.0,0.0,0.0,0.0,0.0,0.0,0.0,0.0,-1.6857,-1.6666,-1.6582,-1.6427,-1.6229,-1.6041,-1.6021,-1.6211,-1.6211,-1.6204,-1.6298,0.0,0.0,0.0,0.0,0.0,0.0,0.0,-1.9812,-2.0645,-2.0916,-2.1096,0.0,0.0,0.0,-2.253,0.0,0.0,-2.3232,0.0,0.0,0.0,0.0,0.0,0.0,0.0,-2.399,-2.3938,-2.3556,-2.3103,-2.2529,-2.2066,0.0,0.0,0.0,0.0,0.0,0.0,0.0,0.0,0.0,0.0,0.0,0.0,0.0,0.0,0.0,0.0,0.0,0.0,0.0,0.0,0.0,0.0,0.0,0.0,0.0,0.0,0.0,0.0,0.0,0.0,0.0,0.0,-2.002,-2.0186,-2.042,-2.0566,-2.0566,-2.0566,-2.0566,-2.0566,-2.0566,-2.0566,-2.0566,-2.0566,-2.0644,-2.0819,-2.1205,-2.1731,-2.2628,-2.3361,-2.4032,-2.4731,-2.5312,-2.5828,-2.6201,-2.627,-2.6339,-2.6465,-2.6533,-2.6533,0.0,0.0,0.0,0.0,0.0,0.0,0.0,0.0,0.0,0.0,0.0,0.0,0.0,0.0,0.0,-1.6759,-1.6662,-1.6539,-1.6238,-1.6224,-1.6508,-1.6979,-1.7073,-1.716,-1.7326,0.0,0.0,0.0,0.0,0.0,0.0,0.0,-2.0736,0.0,-2.2078,-2.2255,-2.2167,0.0,-2.2794,-2.2872,0.0,-2.3474,-2.3551,0.0,0.0,0.0,-2.3992,-2.3864,0.0,-2.3716,0.0,0.0,0.0,0.0,0.0,0.0,0.0,0.0,0.0,0.0,0.0,0.0,0.0,0.0,0.0,0.0,0.0,0.0,0.0,0.0,0.0,0.0,0.0,0.0,0.0,0.0,0.0,0.0,0.0,0.0,0.0,0.0,0.0,0.0,0.0,0.0,0.0,-1.9794,-2.0264,-2.0342,-2.042,-2.0566,-2.0566,-2.0566,-2.0566,-2.0566,-2.0566,-2.0566,-2.0644,-2.0644,-2.0644,-2.0819,-2.1359,-2.2176,-2.2777,-2.3497,-2.4299,-2.5241,-2.5828,-2.6201,-2.6396,-2.6533,-2.6533,-2.6533,-2.6533,-2.6533,0.0,0.0,0.0,0.0,0.0,0.0,0.0,0.0,0.0,0.0,0.0,0.0,0.0,0.0,-1.7457,-1.7188,-1.7006,-1.6883,-1.6798,-1.6871,-1.7145,-1.7512,-1.7707,-1.7807,0.0,0.0,0.0,0.0,0.0,0.0,0.0,0.0,0.0,0.0,-2.253,-2.2543,-2.2447,-2.2843,0.0,0.0,-2.3103,-2.3251,0.0,0.0,0.0,0.0,0.0,-2.4541,-2.4971,0.0,-2.5049,-2.4915,0.0,0.0,0.0,0.0,0.0,0.0,-2.1436,0.0,0.0,0.0,0.0,0.0,0.0,0.0,0.0,0.0,0.0,0.0,0.0,0.0,0.0,0.0,0.0,0.0,0.0,0.0,0.0,0.0,0.0,0.0,0.0,0.0,0.0,0.0,-2.0333,-2.0411,-2.0489,-2.0489,-2.0566,-2.0566,-2.0566,-2.0566,-2.0566,-2.0566,-2.0566,-2.0566,-2.0741,-2.0819,-2.0819,-2.1502,-2.2025,-2.2628,-2.3559,-2.436,-2.5016,-2.5465,-2.5898,-2.6396,-2.6465,-2.6533,-2.6533,-2.6533,-2.6533,-2.6533,0.0,0.0,0.0,0.0,0.0,0.0,0.0,0.0,0.0,0.0,0.0,0.0,0.0,0.0,0.0,-1.7971,-1.7699,-1.7613,-1.7707,-1.7878,-1.8156,-1.8804,-1.8904,-1.9096,0.0,0.0,0.0,0.0,0.0,0.0,0.0,0.0,0.0,0.0,0.0,0.0,0.0,0.0,0.0,0.0,-2.2978,0.0,0.0,-2.3945,-2.429,0.0,0.0,0.0,-2.5338,-2.5413,-2.5413,0.0,0.0,0.0,0.0,0.0,0.0,0.0,0.0,0.0,0.0,0.0,0.0,0.0,-2.1807,-2.2111,0.0,0.0,0.0,0.0,0.0,0.0,0.0,0.0,0.0,0.0,0.0,0.0,0.0,0.0,0.0,0.0,0.0,0.0,0.0,-2.0566,-2.0566,-2.0566,-2.0566,-2.0566,-2.0566,-2.0566,-2.0566,-2.0566,-2.0566,-2.0566,-2.0644,-2.0731,-2.0896,-2.1138,-2.1282,-2.2025,-2.2628,-2.315,-2.407,-2.4862,-2.5453,-2.5758,-2.6107,-2.6533,-2.6533,-2.6533,-2.6533,-2.6533,-2.6521,-2.6589,0.0,0.0,0.0,0.0,0.0,0.0,0.0,0.0,0.0,0.0,0.0,0.0,0.0,0.0,0.0,0.0,0.0,-1.8703,-1.898,-1.898,0.0,0.0,0.0,-2.0645,0.0,0.0,0.0,0.0,0.0,0.0,0.0,0.0,0.0,0.0,0.0,0.0,0.0,0.0,0.0,-2.2219,-2.2828,-2.337,0.0,0.0,-2.5059,0.0,-2.5486,-2.5481,-2.5158,-2.5312,-2.53,0.0,0.0,0.0,0.0,0.0,-2.379,0.0,0.0,0.0,0.0,0.0,0.0,0.0,-2.2703,-2.315,-2.3446,0.0,0.0,0.0,0.0,0.0,0.0,0.0,0.0,0.0,0.0,0.0,0.0,0.0,0.0,0.0,0.0,-2.0566,-2.0566,-2.0566,-2.0566,-2.0566,-2.0566,-2.0566,-2.0566,-2.0566,-2.0566,-2.0644,-2.0644,-2.0644,-2.0731,-2.0984,-2.1205,-2.1502,-2.1959,-2.2553,-2.315,-2.374,-2.4504,-2.5158,-2.5688,-2.605,-2.6339,-2.6533,-2.6533,-2.6533,-2.6521,-2.6521,-2.6658,-2.6782,-2.7971,0.0,0.0,0.0,0.0,0.0,0.0,0.0,0.0,0.0,0.0,0.0,0.0,0.0,0.0,0.0,0.0,0.0,0.0,0.0,0.0,0.0,-2.1374,-2.1463,0.0,0.0,0.0,0.0,0.0,0.0,0.0,0.0,0.0,0.0,0.0,0.0,0.0,0.0,0.0,-2.1953,-2.2917,0.0,-2.3958,-2.4588,-2.511,-2.5468,-2.561,-2.5773,-2.598,0.0,-2.598,-2.591,0.0,0.0,0.0,0.0,0.0,0.0,0.0,0.0,0.0,0.0,0.0,0.0,-2.3224,-2.3717,-2.4215,0.0,0.0,0.0,0.0,0.0,0.0,0.0,0.0,0.0,0.0,0.0,0.0,0.0,0.0,0.0,0.0,-2.0566,-2.0566,-2.0566,-2.0566,-2.0566,-2.0566,-2.0566,-2.0566,-2.0566,-2.0566,-2.0654,-2.0829,-2.0829,-2.1051,-2.1359,-2.1731,-2.2111,-2.2553,-2.3446,-2.4105,-2.4504,-2.5312,-2.5828,-2.6131,-2.6327,-2.6465,-2.6533,-2.6533,-2.6589,-2.6658,-2.6658,-2.6863,-2.7201,-2.8063,0.0,0.0,0.0,0.0,0.0,0.0,0.0,0.0,0.0,0.0,0.0,0.0,0.0,0.0,0.0,0.0,0.0,0.0,0.0,0.0,0.0,-2.2176,-2.2264,-2.2441,0.0,0.0,0.0,0.0,0.0,0.0,0.0,0.0,0.0,0.0,0.0,0.0,0.0,-2.1937,-2.2273,-2.2875,0.0,-2.4227,-2.4874,-2.5453,-2.591,-2.6037,-2.6176,-2.6339,-2.6339,-2.6339,0.0,0.0,-2.5968,-2.584,0.0,-2.5465,-2.5229,0.0,0.0,0.0,-2.4082,0.0,0.0,0.0,-2.4659,-2.5016,0.0,0.0,0.0,0.0,0.0,0.0,0.0,0.0,0.0,0.0,0.0,0.0,0.0,0.0,0.0,0.0,-2.0741,-2.0731,-2.0644,-2.0566,-2.0566,-2.0566,-2.0566,-2.0566,-2.0566,-2.0566,-2.0731,-2.0906,-2.0984,-2.1359,-2.1959,-2.2327,-2.2916,-2.3559,-2.4311,-2.4814,-2.5158,-2.5758,-2.6131,-2.6201,-2.6396,-2.6521,-2.6589,-2.6589,-2.6714,-2.6837,-2.7053,-2.739,-2.7842,-2.8339,0.0,0.0,0.0,0.0,0.0,0.0,0.0,0.0,0.0,0.0,0.0,0.0,0.0,0.0,0.0,0.0,0.0,0.0,0.0,0.0,0.0,0.0,-2.2969,-2.3135,-2.3057,0.0,0.0,0.0,0.0,0.0,0.0,0.0,0.0,0.0,0.0,0.0,0.0,0.0,-2.2927,0.0,-2.3779,-2.4636,-2.5382,-2.598,-2.627,-2.6465,-2.6533,-2.6533,-2.6533,0.0,-2.6533,-2.6533,-2.6396,0.0,0.0,0.0,0.0,0.0,0.0,0.0,0.0,0.0,-2.5229,0.0,0.0,0.0,0.0,0.0,0.0,0.0,0.0,0.0,0.0,0.0,0.0,0.0,0.0,0.0,0.0,0.0,0.0,0.0,-2.0984,-2.0896,-2.0644,-2.0722,-2.0722,-2.0722,-2.0722,-2.0722,-2.0654,-2.0731,-2.0809,-2.0984,-2.1282,-2.1807,-2.2628,-2.3065,-2.3717,-2.4564,-2.5016,-2.5382,-2.5758,-2.6119,-2.627,-2.627,-2.6465,-2.6658,-2.6782,-2.6782,-2.6918,-2.7175,-2.7523,-2.8039,-2.8546,-2.8578,-2.7846,0.0,0.0,0.0,0.0,0.0,0.0,0.0,0.0,0.0,0.0,0.0,0.0,0.0,0.0,0.0,0.0,-2.3329,0.0,0.0,0.0,0.0,0.0,-2.3135,-2.2773,-2.2578,0.0,0.0,0.0,0.0,0.0,0.0,0.0,-2.2087,0.0,0.0,0.0,-2.2927,0.0,-2.407,-2.4647,0.0,-2.5898,-2.627,-2.6465,-2.6465,-2.6533,-2.6533,0.0,-2.6533,-2.6533,0.0,-2.6465,-2.6465,0.0,0.0,0.0,0.0,0.0,0.0,0.0,-2.5688,0.0,0.0,0.0,0.0,0.0,0.0,0.0,0.0,0.0,0.0,0.0,0.0,0.0,0.0,0.0,0.0,0.0,0.0,0.0,0.0,0.0,-2.1061,-2.0906,-2.1205,-2.1349,-2.1128,-2.1272,-2.1205,-2.0906,-2.1051,-2.1205,-2.1436,-2.1959,-2.2703,-2.3446,-2.3998,-2.4564,-2.5229,-2.5606,-2.591,-2.6131,-2.6396,-2.6465,-2.6465,-2.6589,-2.6782,-2.6973,-2.6973,-2.7242,-2.7776,-2.8105,-2.861,-2.9233,-2.8973,-2.8339,0.0,0.0,0.0,0.0,0.0,0.0,0.0,0.0,0.0,0.0,0.0,0.0,0.0,0.0,0.0,-2.4176,0.0,0.0,0.0,0.0,0.0,0.0,0.0,-2.2532,-2.2306,0.0,-2.1719,0.0,0.0,0.0,0.0,0.0,-2.2185,0.0,-2.2927,0.0,0.0,0.0,0.0,0.0,0.0,-2.6131,-2.6339,-2.6533,-2.6533,-2.6533,-2.6533,0.0,-2.6533,0.0,0.0,0.0,0.0,0.0,0.0,0.0,0.0,0.0,0.0,0.0,0.0,0.0,-2.6176,0.0,-2.6396,0.0,0.0,0.0,0.0,0.0,0.0,0.0,0.0,0.0,0.0,0.0,0.0,0.0,0.0,0.0,0.0,0.0,0.0,0.0,0.0,-2.1883,-2.1883,-2.1883,-2.1807,-2.1578,-2.1578,-2.1731,-2.2025,-2.2478,-2.3213,-2.407,-2.4504,-2.5158,-2.584,-2.5992,-2.6201,-2.6396,-2.6521,-2.6589,-2.6658,-2.693,-2.7188,-2.751,-2.7776,-2.8052,-2.8314,-2.8894,-2.9387,-2.9931,-2.9378,0.0,0.0,0.0,0.0,0.0,0.0,0.0,0.0,0.0,0.0,0.0,-2.3677,-2.4013,0.0,0.0,-2.5105,-2.5221,0.0,0.0,-2.444,0.0,0.0,0.0,0.0,0.0,-2.2026,0.0,0.0,0.0,0.0,0.0,0.0,0.0,0.0,-2.3065,-2.3728,0.0,0.0,-2.5016,-2.5312,-2.5828,-2.6339,-2.6339,-2.6465,-2.6726,-2.6726,-2.6726,-2.6794,-2.6794,-2.6794,0.0,-2.6794,0.0,0.0,0.0,0.0,0.0,-2.6671,0.0,0.0,0.0,0.0,0.0,0.0,0.0,0.0,0.0,0.0,0.0,0.0,0.0,0.0,0.0,0.0,0.0,0.0,0.0,0.0,0.0,0.0,0.0,0.0,0.0,0.0,-2.2327,-2.2542,-2.2692,-2.2703,-2.2692,-2.2542,-2.2327,-2.2327,-2.2402,-2.2628,-2.3213,-2.3852,-2.4636,-2.5087,-2.5676,-2.627,-2.627,-2.6396,-2.6589,-2.6714,-2.685,-2.6918,-2.739,-2.7776,-2.8091,-2.8702,-2.8958,-2.9149,-2.9588,-3.0083,-3.0553,-2.9792,-2.9209,0.0,0.0,0.0,0.0,0.0,0.0,0.0,0.0,0.0,0.0,0.0,0.0,0.0,0.0,0.0,-2.5903,-2.544,0.0,-2.4388,0.0,0.0,-2.2625,0.0,0.0,0.0,0.0,0.0,0.0,0.0,0.0,0.0,0.0,0.0,-2.3936,-2.4636,-2.4636,-2.5016,-2.5606,-2.5828,-2.6176,-2.6658,0.0,-2.693,-2.7268,-2.7268,0.0,0.0,-2.7469,-2.7469,0.0,0.0,0.0,0.0,0.0,0.0,0.0,0.0,0.0,0.0,-2.6726,0.0,0.0,0.0,0.0,-2.6533,0.0,0.0,0.0,0.0,0.0,0.0,0.0,0.0,0.0,0.0,0.0,0.0,0.0,0.0,0.0,0.0,0.0,0.0,-2.3001,-2.3717,-2.3936,-2.3593,-2.3936,-2.379,-2.3001,-2.3372,-2.3446,-2.3298,-2.4215,-2.4862,-2.53,-2.591,-2.627,-2.6465,-2.6465,-2.6589,-2.6714,-2.6905,-2.7175,-2.7523,-2.8039,-2.8481,-2.8867,-2.9498,-2.9931,-3.0266,-3.0251,-3.0553,-3.1029,0.0,0.0,0.0,0.0,0.0,0.0,0.0,-2.5359,0.0,0.0,0.0,0.0,0.0,-2.5146,-2.5425,0.0,0.0,-2.6094,-2.5945,-2.5699,0.0,0.0,0.0,-2.3339,0.0,0.0,0.0,0.0,0.0,0.0,0.0,0.0,0.0,0.0,0.0,-2.4576,0.0,0.0,0.0,0.0,0.0,-2.7121,-2.751,0.0,0.0,-2.7469,-2.759,-2.7723,0.0,-2.7842,-2.7842,-2.7842,-2.7842,-2.7842,-2.7842,-2.7776,-2.7789,0.0,0.0,0.0,-2.7456,-2.7201,0.0,0.0,0.0,0.0,0.0,0.0,0.0,0.0,0.0,0.0,0.0,0.0,0.0,0.0,0.0,0.0,0.0,0.0,0.0,0.0,0.0,0.0,0.0,-2.4288,-2.4587,-2.4731,0.0,-2.4731,-2.4576,-2.436,-2.4299,-2.436,-2.4443,-2.4862,-2.5312,-2.5688,-2.6062,-2.6339,-2.6533,-2.6589,-2.6714,-2.6905,-2.7377,-2.7709,-2.8105,-2.8675,-2.917,-2.9498,-3.0129,-3.0493,-3.0792,-3.0792,-3.097,-3.1219,-2.9353,0.0,0.0,0.0,0.0,0.0,0.0,0.0,0.0,0.0,-2.5267,0.0,-2.5245,0.0,-2.5947,0.0,-2.6434,-2.6427,-2.6186,-2.5948,0.0,-2.4774,-2.4243,0.0,0.0,0.0,0.0,0.0,0.0,-2.3054,0.0,0.0,0.0,0.0,0.0,0.0,0.0,0.0,-2.6302,0.0,0.0,-2.7789,0.0,0.0,-2.7829,-2.8157,0.0,-2.8546,-2.8739,-2.8739,-2.8739,-2.8739,-2.8739,-2.8739,-2.8739,-2.861,-2.8546,-2.8546,-2.83,-2.8235,0.0,-2.7855,-2.7723,0.0,-2.7188,0.0,0.0,0.0,0.0,0.0,0.0,0.0,0.0,0.0,0.0,0.0,0.0,-2.6533,0.0,0.0,0.0,0.0,0.0,0.0,-2.5158,-2.5229,-2.5382,-2.5453,0.0,0.0,-2.5382,-2.5229,-2.5158,-2.5158,-2.5229,-2.5465,-2.5758,-2.5992,-2.6258,-2.6465,-2.6589,-2.6794,-2.7053,-2.731,-2.7842,-2.8365,-2.8817,-2.9435,-2.987,-3.019,-3.0687,-3.0984,-3.1087,-3.1087,-3.1219,-3.1409,0.0,0.0,0.0,0.0,-2.759,0.0,0.0,0.0,-2.5504,0.0,-2.5426,-2.567,-2.5647,-2.6171,-2.6602,-2.674,-2.6976,-2.6833,-2.6166,-2.5912,0.0,0.0,-2.4116,-2.374,-2.315,0.0,0.0,0.0,0.0,0.0,0.0,0.0,0.0,0.0,-2.5535,0.0,-2.6201,-2.6371,-2.6701,-2.7108,-2.7643,-2.8157,-2.861,-2.8803,-2.9107,-2.9435,-2.956,-2.9808,-3.0129,-3.0129,-3.0129,-3.0129,-3.0129,-3.0129,-3.0068,-2.9747,-2.9623,-2.9574,-2.9275,-2.9162,-2.9085,-2.8675,0.0,0.0,0.0,0.0,-2.759,0.0,0.0,0.0,0.0,0.0,0.0,0.0,0.0,0.0,0.0,0.0,0.0,0.0,0.0,0.0,0.0,-2.5828,-2.5828,-2.5676,-2.598,0.0,0.0,0.0,-2.605,-2.5676,-2.5828,-2.5828,-2.5676,-2.605,-2.6213,-2.627,-2.6589,-2.6714,-2.6782,-2.7134,-2.7523,-2.7908,-2.8444,-2.9035,-2.9665,-3.0144,-3.0507,-3.0881,-3.1161,-3.1278,-3.1278,-3.1278,-3.1409,-3.1482,-2.8499,-2.794,-2.7616,0.0,-2.7776,-2.757,0.0,0.0,0.0,0.0,-2.6875,-2.6805,-2.6566,-2.6591,-2.6565,-2.6528,-2.6457,0.0,0.0,0.0,0.0,-2.5265,-2.5182,-2.4957,-2.4515,-2.4587,0.0,-2.4515,0.0,0.0,-2.5241,0.0,0.0,0.0,0.0,0.0,-2.6465,-2.6739,-2.7403,-2.8249,-2.8739,-2.9233,0.0,0.0,-3.0297,-3.0539,-3.0115,-3.019,-3.0447,-3.0447,-3.0447,-3.0447,-3.0447,-3.0447,-3.0447,-3.0387,-3.0326,-3.0312,-3.0083,-3.0007,-2.9884,-2.9435,-2.931,-2.9107,0.0,0.0,0.0,0.0,0.0,0.0,0.0,0.0,0.0,0.0,0.0,0.0,0.0,0.0,0.0,0.0,0.0,0.0,-2.6245,-2.6327,-2.6383,-2.644,-2.6521,0.0,0.0,0.0,0.0,-2.6671,-2.6521,-2.6521,-2.6671,-2.6739,-2.682,-2.682,-2.6998,-2.7201,-2.7323,-2.7842,-2.8222,-2.861,-2.9247,-2.9761,-3.0144,-3.0613,-3.0984,-3.1161,-3.1351,-3.1467,-3.1467,-3.1467,-3.1467,-3.1539,-2.8296,0.0,0.0,-2.7208,0.0,0.0,-2.7272,0.0,0.0,-2.7272,-2.7272,0.0,-2.7069,-2.7031,-2.6974,-2.6807,-2.6726,0.0,-2.6314,0.0,0.0,-2.5758,-2.5758,-2.5606,-2.5241,-2.5382,0.0,-2.5241,0.0,0.0,-2.5828,0.0,0.0,0.0,0.0,-2.6396,0.0,-2.7201,-2.7987,-2.8844,-2.9324,0.0,0.0,-3.0568,-3.0866,-3.1102,-3.0732,-3.0792,-3.0984,-3.0984,-3.0984,-3.0984,-3.0984,-3.0984,-3.0984,-3.0925,-3.0925,-3.0866,-3.0702,-3.0642,-3.0568,-3.019,-3.0068,-2.9931,-2.9435,-2.9449,-2.9449,0.0,0.0,0.0,0.0,0.0,0.0,0.0,0.0,0.0,0.0,0.0,0.0,0.0,-2.693,0.0,-2.693,-2.6658,-2.6589,-2.6714,0.0,0.0,0.0,0.0,0.0,-2.7011,-2.6794,-2.6863,-2.7146,-2.7146,-2.7214,-2.7335,-2.759,-2.7776,-2.7973,-2.861,-2.898,-2.9247,-2.987,-3.0312,-3.0613,-3.097,-3.1219,-3.1409,-3.1597,-3.1597,-3.167,-3.1754,-3.1697,-3.1655,0.0,0.0,0.0,0.0,0.0,0.0,0.0,-2.7364,0.0,-2.731,0.0,-2.743,-2.743,-2.7577,-2.759,-2.7469,0.0,-2.7121,-2.6633,-2.6564,-2.6427,-2.6107,-2.6107,-2.6037,-2.5816,-2.5968,-2.5968,0.0,0.0,0.0,0.0,0.0,0.0,0.0,0.0,0.0,0.0,-2.7776,-2.8495,0.0,-2.9761,-3.0251,-3.0702,-3.0821,-3.1058,-3.1351,-3.1351,-3.1409,-3.1482,-3.1482,-3.1482,-3.1482,-3.1482,-3.1482,-3.1467,-3.1351,-3.1351,-3.1292,-3.119,-3.1132,-3.1132,-3.0881,-3.0762,-3.0628,-3.0447,-3.0312,-3.019,-3.019,-3.0068,-2.9808,0.0,0.0,0.0,0.0,0.0,0.0,0.0,0.0,0.0,0.0,0.0,0.0,0.0,-2.6985,-2.6658,0.0,0.0,0.0,0.0,0.0,0.0,-2.7079,-2.693,0.0,-2.7403,0.0,-2.7656,-2.7908,-2.8287,-2.8546,-2.8675,-2.9435,-2.9808,-2.9931,-3.0447,-3.0807,-3.1029,-3.1219,-3.1409,-3.1539,-3.1727,-3.1841,-3.1883,-3.2191,-3.215,-3.1996,0.0,0.0,0.0,0.0,0.0,-2.83,-2.8688,-2.861,-2.8546,-2.8688,-2.8766,-2.8766,-2.8766,-2.8495,-2.8287,-2.8287,-2.7908,0.0,0.0,0.0,0.0,-2.7188,-2.7188,-2.7121,-2.6998,-2.7066,-2.6863,0.0,0.0,0.0,0.0,0.0,0.0,0.0,0.0,0.0,-2.7643,-2.8352,0.0,-2.9747,-3.0387,-3.0866,-3.1161,-3.1351,-3.1409,-3.1467,-3.1467,-3.1467,-3.1482,-3.1482,-3.1482,-3.1482,-3.1482,-3.1482,-3.1482,-3.1467,-3.1467,-3.1467,-3.1424,-3.1424,-3.1409,-3.1234,-3.1161,-3.1117,-3.0747,-3.0821,-3.0895,-3.0702,-3.0642,-3.0507,-3.019,0.0,0.0,0.0,0.0,0.0,0.0,0.0,0.0,0.0,0.0,0.0,0.0,0.0,0.0,0.0,0.0,0.0,0.0,0.0,0.0,0.0,-2.7656,0.0,0.0,0.0,-2.8546,-2.861,-2.9107,-2.9435,-2.9623,-3.019,-3.0507,-3.0642,-3.1043,-3.1219,-3.1278,-3.1409,-3.1597,-3.1784,-3.1883,-3.2094,-3.2342,-3.2749,-3.2911,-3.2926,0.0,0.0,0.0,0.0,0.0,0.0,0.0,-2.9637,0.0,-2.9651,-2.9651,-2.9651,-2.9651,-2.9435,-2.9233,-2.9107,-2.8853,-2.8546,-2.8157,-2.8105,-2.7908,-2.7776,-2.7789,0.0,-2.759,-2.759,-2.739,-2.6998,0.0,0.0,0.0,0.0,0.0,0.0,0.0,-2.6686,0.0,0.0,0.0,-2.9097,-2.9697,-3.0041,-3.0268,-3.0451,-3.0717,-3.1001,-3.1001,-3.1225,-3.1482,-3.1482,-3.1482,-3.1482,-3.1482,-3.1482,-3.1482,-3.1482,-3.1482,-3.1482,-3.1482,-3.1482,-3.1467,-3.1409,-3.1409,-3.1351,-3.1176,-3.1249,-3.1307,-3.1176,-3.1117,-3.0925,-3.0372,-2.9651,0.0,0.0,0.0,0.0,0.0,0.0,0.0,0.0,0.0,0.0,0.0,0.0,0.0,0.0,0.0,0.0,0.0,0.0,0.0,0.0,0.0,0.0,0.0,0.0,0.0,-2.9498,-2.9931,-3.019,-3.0312,-3.0747,-3.0984,-3.1058,-3.1292,-3.1409,-3.1409,-3.1597,-3.1784,-3.194,-3.2191,-3.2492,-3.2803,-3.3282,-3.361,-3.3764,0.0,-2.856,0.0,0.0,-2.8739,0.0,-2.987,-3.0433,-3.0628,-3.0326,-3.0312,-3.0312,-3.0312,-3.0251,-3.0129,-2.987,-2.9808,-2.9498,-2.8917,-2.8853,-2.8739,-2.8481,-2.8481,-2.8352,-2.8157,-2.8157,-2.7908,0.0,0.0,0.0,0.0,0.0,0.0,0.0,0.0,0.0,0.0,0.0,-2.814,-2.8595,-2.8987,-2.9222,-2.9401,-2.9525,-2.9879,-3.0313,-3.0313,-3.0657,-3.115,-3.127,-3.1347,-3.1482,-3.1482,-3.1482,-3.1482,-3.1482,-3.1482,-3.1482,-3.1482,-3.1482,-3.1482,-3.1482,-3.1482,-3.1482,-3.1482,-3.1482,-3.1482,-3.1482,-3.1409,-3.1102,-3.0507,-3.0021,0.0,0.0,0.0,0.0,0.0,0.0,0.0,0.0,0.0,0.0,0.0,0.0,0.0,0.0,0.0,0.0,0.0,0.0,0.0,0.0,0.0,-2.8867,-2.9275,0.0,-3.0007,0.0,-3.0568,-3.0807,-3.094,-3.1234,-3.1351,-3.1351,-3.1467,-3.1539,-3.1597,-3.1784,-3.194,-3.215,-3.2617,-3.2964,-3.3319,-3.3882,-3.425,-3.4448,0.0,0.0,0.0,0.0,0.0,0.0,0.0,-3.0925,-3.1176,-3.1014,-3.1014,-3.1014,-3.1014,-3.0821,-3.0702,-3.0702,-3.0387,-3.019,-3.0129,-3.0007,-2.9931,-2.987,-2.987,-2.9747,-2.9435,-2.9233,-2.8853,0.0,0.0,0.0,0.0,0.0,0.0,0.0,0.0,0.0,0.0,-2.814,-2.861,-2.9042,-2.9222,-2.9401,-2.9579,-2.9579,-2.9624,-2.9669,-2.9669,-2.9699,-2.9849,-3.0417,-3.1016,-3.1482,-3.1482,-3.1482,-3.1482,-3.1482,-3.1482,-3.1482,-3.1482,-3.1482,-3.1482,-3.1482,-3.1482,-3.1482,-3.1482,-3.1482,-3.1482,-3.1482,-3.1409,-3.1161,-3.0821,-3.0447,-3.0129,0.0,0.0,0.0,0.0,0.0,0.0,0.0,0.0,0.0,0.0,0.0,0.0,0.0,0.0,0.0,0.0,0.0,0.0,-2.917,0.0,-2.9747,-3.0007,-3.0447,-3.0702,-3.0762,-3.1043,-3.1219,-3.1292,-3.1409,-3.1467,-3.1467,-3.1482,-3.1597,-3.1784,-3.194,-3.2191,-3.2602,-3.3065,-3.3539,-3.405,-3.4448,-3.4787,-3.5041,0.0,0.0,0.0,0.0,0.0,0.0,0.0,-3.1102,-3.1292,-3.1366,-3.1366,-3.1366,-3.1366,-3.1249,-3.1176,-3.1117,-3.0984,-3.0807,-3.0628,-3.0568,-3.0507,-3.0387,-3.0387,-3.0251,-2.9931,-2.944,-2.889,0.0,0.0,0.0,0.0,0.0,0.0,0.0,0.0,-2.6554,-2.6999,-2.7451,-2.7842,-2.8106,-2.8211,-2.8316,-2.8382,-2.8382,-2.8637,-2.8996,-2.8996,-2.925,-2.9624,-2.9864,-3.0372,-3.0986,-3.1347,-3.1482,-3.1482,-3.1482,-3.1482,-3.1482,-3.1482,-3.1482,-3.1482,-3.1482,-3.1482,-3.1482,-3.1482,-3.1482,-3.1482,-3.1482,-3.1409,-3.1292,-3.1102,-3.094,-3.0762,0.0,0.0,0.0,0.0,0.0,0.0,0.0,0.0,0.0,0.0,0.0,0.0,0.0,0.0,0.0,0.0,0.0,0.0,-2.987,0.0,-3.0387,-3.0507,-3.0925,-3.1117,-3.1117,-3.1292,-3.1409,-3.1409,-3.1467,-3.1482,-3.1482,-3.1482,-3.1597,-3.1841,-3.215,-3.2492,-3.2895,-3.3523,-3.405,-3.4497,-3.4899,-3.5198,-3.5337,-3.0866,0.0,-3.0507,0.0,-3.0687,-3.0866,-3.1029,-3.1219,-3.1409,-3.1482,-3.1482,-3.1482,-3.1482,-3.1482,-3.1467,-3.1351,-3.1351,-3.1234,-3.0999,-3.0999,-3.094,-3.0881,-3.069,0.0,-3.0158,-2.9478,-2.8795,-2.8288,-2.7527,0.0,0.0,0.0,0.0,0.0,-2.6056,-2.6418,-2.6736,-2.7115,-2.7335,-2.7488,-2.7575,-2.7625,-2.7625,-2.7625,-2.7874,-2.8308,-2.8308,-2.8592,-2.9026,-2.922,-2.9579,-3.0088,-3.0956,-3.124,-3.127,-3.1422,-3.1482,-3.1482,-3.1482,-3.1482,-3.1482,-3.1482,-3.1482,-3.1482,-3.1482,-3.1482,-3.1482,-3.1482,-3.1409,-3.1351,-3.1278,-3.1234,-3.1132,-3.1087,0.0,0.0,0.0,0.0,0.0,0.0,-3.1409,-3.1482,-3.1482,0.0,0.0,0.0,0.0,0.0,0.0,0.0,0.0,0.0,0.0,0.0,0.0,-3.1234,-3.1351,-3.1351,-3.1467,-3.1482,-3.1482,-3.1539,-3.1597,-3.1597,-3.164,-3.1811,-3.2038,-3.2468,-3.2926,-3.3371,-3.4034,-3.4497,-3.4899,-3.5245,-3.5429,-3.552,-3.1278,-3.1176,-3.1087,-3.1087,-3.1176,-3.1278,-3.1278,-3.1409,-3.1482,-3.1482,-3.1482,-3.1482,-3.1482,-3.1482,-3.1482,-3.1482,-3.1482,-3.1482,-3.1482,-3.1482,-3.1482,0.0,0.0,-3.041,-3.0327,-2.9507,-2.889,-2.8397,0.0,0.0,-2.6566,0.0,-2.5962,-2.6111,-2.6525,-2.6893,-2.7181,-2.735,-2.7488,-2.7625,-2.7625,-2.7625,-2.7625,-2.7625,-2.7625,-2.7625,-2.7625,-2.764,-2.7745,-2.8382,-2.8622,-2.8846,-3.0118,-3.0507,-3.0657,-3.1345,-3.1482,-3.1482,-3.1482,-3.1482,-3.1482,-3.1482,-3.1482,-3.1482,-3.1482,-3.1482,-3.1482,-3.1482,-3.1482,-3.1467,-3.1351,-3.1278,-3.1234,-3.1132,0.0,0.0,0.0,0.0,0.0,0.0,-3.1482,-3.1482,-3.1482,0.0,0.0,0.0,0.0,0.0,0.0,0.0,0.0,-3.1087,-3.1234,0.0,-3.1278,-3.1409,-3.1482,-3.1482,-3.1482,-3.1482,-3.1539,-3.1727,-3.1799,-3.1784,-3.2094,-3.2342,-3.2656,-3.3118,-3.3591,-3.4151,-3.4546,-3.4947,-3.5291,-3.5446,-3.552,-3.5622,-3.1409,-3.1424,-3.1366,-3.1366,-3.1424,-3.1409,-3.1409,-3.1467,-3.1482,-3.1482,-3.1482,-3.1482,-3.1482,-3.1482,-3.1482,0.0,-3.1482,-3.1482,0.0,-3.1091,-3.0836,-3.0836,-3.0223,-2.9824,-2.9644,-2.8951,-2.8449,-2.8053,0.0,0.0,0.0,-2.6519,-2.6539,-2.6727,-2.7026,-2.7233,-2.735,-2.7488,-2.7575,-2.7625,-2.7625,-2.7625,-2.7625,-2.7625,-2.7625,-2.7625,-2.7625,-2.7625,-2.7655,-2.7829,-2.7904,-2.8053,-2.8921,-2.952,-2.9998,-3.0642,-3.0836,-3.0941,-3.1347,-3.1482,-3.1482,-3.1482,-3.1482,-3.1482,-3.1482,-3.1482,-3.1482,-3.1482,-3.1482,-3.1482,-3.1409,-3.1409,-3.1409,-3.1366,-3.1424,0.0,0.0,0.0,0.0,0.0,-3.1482,-3.1482,0.0,-3.1482,0.0,0.0,0.0,0.0,0.0,0.0,0.0,0.0,-3.1409,0.0,-3.1409,-3.1467,-3.1482,-3.1482,-3.1482,-3.1482,-3.1539,-3.1727,-3.1841,-3.194,-3.2247,-3.2547,-3.2895,-3.3366,-3.3899,-3.4399,-3.4804,-3.5152,-3.5446,-3.5566,-3.5577,-3.5622,-3.1482,-3.1482,-3.1482,-3.1482,-3.1482,-3.1482,-3.1482,-3.1482,-3.1482,-3.1482,-3.1482,-3.1482,-3.1482,-3.1482,0.0,-3.1482,-3.1482,-3.1362,-3.1165,-3.0746,-3.0402,-3.0163,-2.9549,-2.9152,-2.9029,0.0,0.0,-2.7718,-2.7284,-2.7026,-2.6893,-2.6959,-2.7026,-2.7159,-2.7386,-2.7488,-2.7488,-2.7575,-2.7625,-2.7625,-2.7625,-2.7625,-2.7625,-2.7625,-2.7625,-2.7625,-2.7625,-2.7625,-2.7625,-2.7625,-2.7625,-2.7649,-2.8068,-2.8487,-2.8996,-2.9894,-3.0313,-3.0597,-3.1031,-3.1345,-3.1482,-3.1482,-3.1482,-3.1482,-3.1482,-3.1482,-3.1482,-3.1482,-3.1482,-3.1482,-3.1482,-3.1482,-3.1482,-3.1482,-3.1482,-3.1482,-3.1482,0.0,0.0,0.0,0.0,0.0,0.0,-3.1482,0.0,0.0,0.0,0.0,0.0,0.0,0.0,-3.1482,-3.1482,0.0,-3.1482,-3.1482,-3.1482,-3.1482,-3.1482,-3.1539,-3.1597,-3.1826,-3.2094,-3.2342,-3.2726,-3.314,-3.3527,-3.3984,-3.4399,-3.4851,-3.5135,-3.5383,-3.5566,-3.5577,-3.5622,-3.5622,-3.1482,-3.1482,0.0,0.0,-3.1482,0.0,-3.1482,-3.1482,-3.1482,-3.1482,-3.1482,-3.1482,-3.1482,-3.1437,-3.1407,-3.1407,0.0,0.0,0.0,-3.0387,-3.0118,-2.9549,-2.8891,-2.8532,-2.8532,-2.7904,-2.7524,-2.7401,-2.7284,-2.7233,-2.7233,-2.735,-2.7401,-2.7401,-2.7524,-2.7625,-2.7625,-2.7625,-2.7625,-2.7625,-2.7625,-2.7625,-2.7625,-2.7625,-2.7625,-2.7625,-2.7625,-2.7625,-2.7625,-2.7625,-2.7625,-2.7625,-2.7625,-2.7625,-2.7829,-2.9131,-2.9953,-3.0447,-3.0492,-3.1001,-3.1482,-3.1482,-3.1482,-3.1482,-3.1482,-3.1482,-3.1482,-3.1482,-3.1482,-3.1482,-3.1482,-3.1482,-3.1482,-3.1482,-3.1482,-3.1482,-3.1482,0.0,0.0,0.0,0.0,0.0,0.0,-3.1482,-3.1482,0.0,0.0,0.0,0.0,0.0,-3.1539,-3.1482,-3.1482,-3.1539,-3.1539,-3.1539,-3.1539,-3.1539,-3.1582,-3.1655,-3.1841,-3.215,-3.2453,-3.2857,-3.3471,-3.3949,-3.4349,-3.4739,-3.5088,-3.5354,-3.5446,-3.552,-3.5622,-3.5622,-3.5622,-3.5622,0.0,0.0,-3.1482,-3.1482,-3.1482,-3.1482,-3.1482,-3.1482,-3.1482,-3.1482,-3.1482,-3.1482,-3.1482,-3.1061,-3.0746,-3.0746,-3.0746,-3.0477,-2.9849,-2.9325,-2.8981,-2.8831,-2.8173,-2.7814,-2.7814,-2.77,-2.7575,-2.7524,-2.7524,-2.7524,-2.7524,-2.7524,-2.7524,-2.7524,-2.7575,-2.7625,-2.7625,-2.7625,-2.7625,-2.7625,-2.7625,-2.7625,-2.7625,-2.7625,-2.7625,-2.7625,-2.7625,-2.7625,-2.7625,-2.7625,-2.7625,-2.7625,-2.7625,-2.7625,-2.779,-2.8592,-2.9295,-2.9909,-3.0372,-3.1001,-3.1482,-3.1482,-3.1482,-3.1482,-3.1482,-3.1482,-3.1482,-3.1482,-3.1482,-3.1482,-3.1482,-3.1482,-3.1482,-3.1482,-3.1482,-3.1482,-3.1482,-3.1482,0.0,0.0,-3.1482,-3.1482,-3.1482,-3.1482,-3.1482,0.0,0.0,0.0,0.0,-3.167,-3.167,-3.1482,-3.1482,-3.1597,-3.1727,-3.1727,-3.1826,-3.2038,-3.2135,-3.2231,-3.2247,-3.2547,-3.2819,-3.3224,-3.3797,-3.425,-3.4643,-3.4947,-3.5198,-3.5446,-3.5492,-3.552,-3.5622,-3.5622,-3.5622,-3.5622,-3.1482,-3.1482,-3.1482,-3.1482,-3.1482,-3.1482,-3.1482,-3.1482,-3.1482,-3.1482,-3.1482,-3.1347,-3.1106,-3.0731,-3.0268,-2.9684,-2.9909,-2.9819,-2.9175,-2.8801,-2.8457,-2.8143,-2.7769,-2.7625,-2.7625,-2.7625,-2.7625,-2.7625,-2.7625,-2.7625,-2.7625,-2.7625,-2.7625,-2.7625,-2.7625,-2.7625,-2.7625,-2.7625,-2.7625,-2.7625,-2.7675,-2.7675,-2.7675,-2.774,-2.779,-2.779,-2.7725,-2.7675,-2.7675,-2.7625,-2.7625,-2.7625,-2.7675,-2.7675,-2.775,-2.8192,-2.8711,-2.9265,-2.9909,-3.0567,-3.1135,-3.1392,-3.1482,-3.1482,-3.1482,-3.1482,-3.1482,-3.1482,-3.1482,-3.1482,-3.1482,-3.1482,-3.1482,-3.1482,-3.1482,-3.1482,-3.1482,-3.1482,0.0,-3.1482,-3.1482,-3.1482,-3.1482,-3.1482,-3.1482,-3.1482,0.0,0.0,-3.167,-3.1883,-3.1883,-3.1655,-3.1754,-3.1868,-3.1996,-3.2094,-3.2247,-3.2492,-3.2547,-3.2656,-3.2765,-3.3033,-3.3419,-3.3848,-3.43,-3.4691,-3.5088,-3.5274,-3.5412,-3.5566,-3.5566,-3.5549,-3.5622,-3.5622,-3.5622,-3.5622,-3.1482,-3.1482,-3.1482,-3.1482,-3.1482,-3.1482,-3.1482,-3.1482,-3.1482,-3.1482,-3.1482,-3.127,-3.0582,-3.0417,-2.9894,-2.8697,-2.9011,-2.9041,-2.8487,-2.8442,-2.8188,-2.764,-2.7625,-2.7625,-2.7625,-2.7625,-2.7625,-2.7625,-2.7625,-2.7625,-2.7625,-2.7625,-2.7625,-2.7625,-2.7625,-2.7625,-2.7625,-2.7625,-2.7625,-2.7625,-2.779,-2.784,-2.784,-2.8005,-2.8054,-2.8069,-2.794,-2.789,-2.784,-2.7725,-2.7675,-2.7675,-2.779,-2.784,-2.784,-2.7955,-2.8212,-2.8674,-2.9439,-3.0103,-3.0806,-3.139,-3.1482,-3.1482,-3.1482,-3.1482,-3.1482,-3.1482,-3.1482,-3.1482,-3.1482,-3.1482,-3.1482,-3.1482,-3.1482,-3.1482,-3.1482,0.0,-3.1482,-3.1482,-3.1482,-3.1539,-3.1539,-3.1539,-3.1539,-3.1582,-3.1769,-3.1898,0.0,-3.2206,-3.2247,-3.1996,-3.215,-3.2302,-3.2358,-3.2656,-3.2857,-3.3018,-3.3055,-3.3177,-3.3387,-3.3575,-3.4,-3.4594,-3.4835,-3.5152,-3.5492,-3.5594,-3.5622,-3.5622,-3.5622,-3.5622,-3.5622,-3.5622,-3.5622,-3.5622,-3.1482,-3.1482,-3.1482,-3.1482,-3.1482,-3.1482,-3.1482,-3.1482,-3.1482,-3.1482,-3.1482,-3.127,-3.0582,-3.0043,-2.9415,-2.8667,-2.8158,-2.7895,-2.7739,-2.779,-2.7679,-2.7625,-2.7625,-2.7625,-2.7625,-2.7625,-2.7625,-2.7625,-2.7625,-2.7625,-2.7625,-2.7625,-2.7625,-2.7625,-2.774,-2.779,-2.779,-2.7905,-2.7855,-2.779,-2.7905,-2.7955,-2.802,-2.825,-2.8363,-2.8363,-2.8299,-2.8235,-2.8137,-2.8005,-2.7955,-2.7955,-2.7955,-2.7955,-2.7955,-2.8005,-2.7981,-2.8177,-2.9425,-3.0518,-3.1405,-3.1452,-3.1482,-3.1482,-3.1482,-3.1482,-3.1482,-3.1482,-3.1482,-3.1482,-3.1482,-3.1482,-3.1482,-3.1482,-3.1482,-3.1482,-3.1482,0.0,-3.1482,-3.1482,-3.1482,-3.1597,-3.1727,-3.1727,-3.1841,-3.2079,-3.2135,-3.2247,-3.2437,-3.2749,-3.2895,-3.298,-3.2711,-3.2711,-3.3033,-3.361,-3.3882,-3.3882,-3.4134,-3.4234,-3.4284,-3.4448,-3.4643,-3.4851,-3.5105,-3.5337,-3.5492,-3.5594,-3.5622,-3.5622,-3.5622,-3.5622,-3.5622,-3.5622,-3.5622,-3.5622,-3.1482,-3.1482,-3.1482,-3.1482,-3.1482,-3.1482,-3.1482,-3.1482,-3.1482,-3.1482,-3.121,-3.0731,-3.0073,-2.943,-2.8786,-2.8113,-2.7754,-2.7625,-2.7625,-2.7625,-2.7625,-2.7625,-2.7625,-2.7625,-2.7625,-2.7625,-2.7625,-2.7625,-2.7625,-2.7625,-2.7625,-2.7625,-2.7625,-2.7725,-2.784,-2.7955,-2.8039,-2.8152,-2.8152,-2.8152,-2.8332,-2.8414,-2.851,-2.8795,-2.8936,-2.8982,-2.8842,-2.8685,-2.8542,-2.8365,-2.8235,-2.8201,-2.8299,-2.825,-2.8201,-2.8299,-2.8347,-2.8544,-2.9432,-3.0323,-3.1061,-3.1377,-3.1482,-3.1482,-3.1482,-3.1482,-3.1482,-3.1482,-3.1482,-3.1482,-3.1482,-3.1482,-3.1482,-3.1482,-3.1482,0.0,0.0,-3.167,-3.167,-3.1769,-3.1769,-3.1826,-3.1996,-3.2094,-3.2191,-3.2398,-3.2617,-3.2819,-3.2926,-3.3335,-3.3646,-3.3764,-3.3559,-3.361,-3.4018,-3.4284,-3.4448,-3.4546,-3.4659,-3.4739,-3.4851,-3.4899,-3.5041,-3.5245,-3.5337,-3.5475,-3.5549,-3.5577,-3.5622,-3.5622,-3.5622,-3.5622,-3.5622,-3.5622,-3.5622,-3.5622,-3.1482,-3.1482,-3.1482,-3.1482,-3.1482,-3.1482,-3.1482,-3.1482,-3.1482,-3.1482,-3.0926,-3.0268,-2.9654,-2.8996,-2.8323,-2.7685,-2.7625,-2.7625,-2.7625,-2.7625,-2.7625,-2.7625,-2.7625,-2.7625,-2.7625,-2.7625,-2.7625,-2.7625,-2.7625,-2.7625,-2.7625,-2.7625,-2.774,-2.784,-2.8054,-2.8235,-2.8365,-2.8525,-2.8589,-2.8573,-2.8795,-2.892,-2.9013,-2.9335,-2.9515,-2.9605,-2.9393,-2.9212,-2.909,-2.8795,-2.8685,-2.8636,-2.8716,-2.8621,-2.8493,-2.8573,-2.8602,-2.874,-2.9409,-3.0028,-3.0672,-3.1302,-3.1482,-3.1482,-3.1482,-3.1482,-3.1482,-3.1482,-3.1482,-3.1482,-3.1482,-3.1482,-3.1482,-3.1482,0.0,0.0,0.0,-3.1799,-3.1841,-3.2053,-3.2094,-3.2191,-3.2342,-3.2492,-3.2711,-3.2911,-3.323,-3.3455,-3.3543,-3.4034,-3.4399,-3.4546,-3.4399,-3.4497,-3.4804,-3.4851,-3.4947,-3.5041,-3.5041,-3.5135,-3.5228,-3.5228,-3.5321,-3.552,-3.552,-3.5549,-3.5622,-3.5622,-3.5622,-3.5622,-3.5622,-3.5622,-3.5622,-3.5622,-3.5622,-3.5667,-3.1482,-3.1482,-3.1482,-3.1482,-3.1482,-3.1482,-3.1482,-3.1482,-3.1482,-3.1482,-3.0926,-3.0268,-2.9654,-2.8996,-2.8323,-2.7685,-2.7625,-2.7625,-2.7625,-2.7625,-2.7625,-2.7625,-2.7625,-2.7625,-2.7625,-2.7625,-2.7625,-2.7625,-2.7625,-2.7625,-2.7625,-2.774,-2.7855,-2.8005,-2.8301,-2.8622,-2.8858,-2.9106,-2.9152,-2.909,-2.9335,-2.938,-2.9335,-2.9766,-2.9941,-2.9973,-2.9941,-2.9853,-2.9705,-2.9515,-2.9335,-2.9259,-2.9259,-2.8967,-2.8685,-2.8685,-2.8411,-2.8268,-2.9342,-3.0028,-3.0672,-3.1302,-3.1482,-3.1482,-3.1482,-3.1482,-3.1482,-3.1482,-3.1482,-3.1482,-3.1482,-3.1482,-3.1482,-3.1482,0.0,0.0,-3.1784,-3.1799,-3.1898,-3.2135,-3.2287,-3.2547,-3.2879,-3.3071,-3.3403,-3.3933,-3.4,-3.4201,-3.4594,-3.4739,-3.4994,-3.54,-3.5152,-3.5041,-3.5088,-3.5291,-3.5446,-3.5446,-3.5503,-3.5577,-3.5577,-3.5577,-3.5577,-3.5577,-3.5577,-3.5577,-3.5622,-3.5622,-3.5622,-3.5622,-3.5622,-3.5622,-3.5622,-3.5622,-3.5667,-3.5817,-3.1482,-3.1482,-3.1482,-3.1482,-3.1482,-3.1482,-3.1482,-3.1482,-3.1482,-3.1482,-3.0597,-2.9849,-2.9609,-2.8607,-2.7859,-2.764,-2.7625,-2.7625,-2.7625,-2.7625,-2.7625,-2.7625,-2.7625,-2.7625,-2.7625,-2.7675,-2.774,-2.774,-2.779,-2.784,-2.784,-2.7989,-2.8122,-2.835,-2.8701,-2.9028,-2.9364,-2.9605,-2.9738,-2.9766,-2.9941,-3.0027,-3.0087,-3.0326,-3.0485,-3.0568,-3.0468,-3.0342,-3.0199,-3.0054,-2.9897,-2.9754,-2.9754,-2.9441,-2.8967,-2.851,-2.8186,-2.8167,-2.8779,-2.9445,-3.0193,-3.127,-3.1482,-3.1482,-3.1482,-3.1482,-3.1482,-3.1482,-3.1482,-3.1482,-3.1482,-3.1597,-3.167,-3.167,0.0,-3.1966,-3.2135,-3.2302,-3.2508,-3.285,-3.3011,-3.3261,-3.3662,-3.3815,-3.4034,-3.4448,-3.4643,-3.4804,-3.4947,-3.5152,-3.5383,-3.5549,-3.5441,-3.5396,-3.5396,-3.5503,-3.5549,-3.5549,-3.5577,-3.5622,-3.5622,-3.5622,-3.5622,-3.5622,-3.5622,-3.5622,-3.5622,-3.5622,-3.5622,-3.5622,-3.5622,-3.5622,-3.5622,-3.5622,-3.5667,-3.5817,-3.1482,-3.1482,-3.1482,-3.1482,-3.1482,-3.1482,-3.1482,-3.1482,-3.1392,-3.124,-3.0253,-2.9505,-2.9295,-2.8263,-2.7625,-2.7625,-2.7625,-2.7625,-2.7625,-2.7625,-2.7625,-2.7675,-2.7675,-2.7675,-2.774,-2.784,-2.789,-2.794,-2.8005,-2.8103,-2.8118,-2.8284,-2.8494,-2.8701,-2.912,-2.9528,-2.9837,-3.0087,-3.0274,-3.0359,-3.0452,-3.051,-3.0568,-3.0733,-3.0855,-3.0912,-3.0814,-3.0733,-3.0634,-3.0535,-3.0384,-3.0231,-3.0231,-2.9826,-2.9243,-2.8542,-2.8235,-2.8156,-2.8568,-2.9124,-2.9849,-3.0941,-3.1317,-3.1482,-3.1482,-3.1482,-3.1482,-3.1482,-3.1482,-3.1539,-3.1597,-3.1727,-3.1841,-3.1883,-3.2094,-3.2342,-3.2492,-3.2749,-3.3033,-3.3398,-3.3607,-3.3899,-3.425,-3.4448,-3.4643,-3.4947,-3.5105,-3.5228,-3.5274,-3.5429,-3.5549,-3.5622,-3.5622,-3.5622,-3.5622,-3.5622,-3.5622,-3.5622,-3.5622,-3.5622,-3.5622,-3.5622,-3.5622,-3.5622,-3.5622,-3.5622,-3.5622,-3.5622,-3.5622,-3.5622,-3.5622,-3.5622,-3.5622,-3.5622,-3.5711,-3.5905,-3.1482,-3.1482,-3.1482,-3.1482,-3.1482,-3.1482,-3.1482,-3.1482,-3.1285,-3.0597,-2.9968,-2.9325,-2.8667,-2.7979,-2.7625,-2.7625,-2.7625,-2.7625,-2.7625,-2.7625,-2.7675,-2.779,-2.779,-2.7855,-2.802,-2.802,-2.8054,-2.8186,-2.8186,-2.8299,-2.8396,-2.8605,-2.8873,-2.912,-2.9617,-3.0011,-3.0293,-3.0593,-3.0692,-3.0692,-3.0871,-3.0831,-3.0733,-3.0935,-3.1015,-3.1015,-3.1015,-3.1015,-3.0975,-3.0912,-3.0814,-3.0692,-3.0692,-3.0199,-2.9483,-2.8873,-2.8494,-2.8274,-2.8692,-2.9162,-2.9729,-3.0342,-3.1016,-3.1482,-3.1482,-3.1482,-3.1482,-3.1482,-3.1482,-3.1539,-3.1727,-3.1799,-3.1898,-3.2135,-3.2342,-3.2492,-3.2788,-3.3018,-3.3351,-3.3694,-3.405,-3.4399,-3.4691,-3.4947,-3.5198,-3.5492,-3.5492,-3.552,-3.5577,-3.5622,-3.5622,-3.5622,-3.5622,-3.5622,-3.5622,-3.5622,-3.5622,-3.5622,-3.5622,-3.5622,-3.5622,-3.5622,-3.5622,-3.5622,-3.5622,-3.5622,-3.5622,-3.5622,-3.5622,-3.5622,-3.5622,-3.5622,-3.5622,-3.5622,-3.5756,-3.6019,-3.1482,-3.1482,-3.1482,-3.1482,-3.1482,-3.1482,-3.1482,-3.1482,-3.1285,-3.0597,-2.9968,-2.9325,-2.8667,-2.7979,-2.7625,-2.7625,-2.7625,-2.7625,-2.7625,-2.7625,-2.7675,-2.7905,-2.784,-2.789,-2.8152,-2.8268,-2.8398,-2.8558,-2.8826,-2.8982,-2.9029,-2.9227,-2.9483,-2.975,-3.0054,-3.0351,-3.0733,-3.0855,-3.0975,-3.1072,-3.1112,-3.1072,-3.1072,-3.1112,-3.1151,-3.1151,-3.1151,-3.1151,-3.1151,-3.1112,-3.1015,-3.0855,-3.0535,-3.0182,-2.975,-2.9166,-2.8764,-2.8556,-2.8544,-2.9317,-3.0236,-3.0453,-3.1016,-3.1482,-3.1482,-3.1482,-3.1482,-3.1482,-3.1482,-3.1539,-3.1727,-3.194,-3.2191,-3.2547,-3.2942,-3.333,-3.3662,-3.3917,-3.4234,-3.4497,-3.4739,-3.4947,-3.5245,-3.5337,-3.5429,-3.5549,-3.5594,-3.5594,-3.5622,-3.5622,-3.5622,-3.5622,-3.5622,-3.5622,-3.5622,-3.5622,-3.5622,-3.5622,-3.5622,-3.5622,-3.5622,-3.5622,-3.5622,-3.5622,-3.5622,-3.5622,-3.5622,-3.5622,-3.5622,-3.5622,-3.5622,-3.5622,-3.5622,-3.5622,-3.5711,-3.5861,-3.1482,-3.1482,-3.1482,-3.1482,-3.1482,-3.1482,-3.1482,-3.1482,-3.1195,-3.0253,-2.9819,-2.922,-2.8293,-2.7814,-2.7625,-2.7625,-2.7625,-2.7625,-2.7625,-2.7625,-2.7675,-2.7905,-2.794,-2.8088,-2.8414,-2.8622,-2.8811,-2.9013,-2.9335,-2.9515,-2.9576,-2.9793,-2.9968,-3.0199,-3.0452,-3.0675,-3.0952,-3.1032,-3.1112,-3.119,-3.119,-3.119,-3.119,-3.119,-3.119,-3.119,-3.119,-3.119,-3.119,-3.119,-3.1151,-3.1015,-3.0699,-3.041,-3.0113,-2.9677,-2.9227,-2.8873,-2.87,-2.9599,-3.0577,-3.0609,-3.1213,-3.1754,-3.1697,-3.1712,-3.1697,-3.1754,-3.1754,-3.1853,-3.2135,-3.2342,-3.2602,-3.3087,-3.3419,-3.3797,-3.4201,-3.4497,-3.4739,-3.4947,-3.5135,-3.5291,-3.5492,-3.552,-3.5549,-3.5577,-3.5622,-3.5622,-3.5622,-3.5622,-3.5622,-3.5622,-3.5622,-3.5622,-3.5622,-3.5622,-3.5622,-3.5622,-3.5622,-3.5622,-3.5622,-3.5622,-3.5622,-3.5622,-3.5622,-3.5622,-3.5622,-3.5622,-3.5622,-3.5622,-3.5622,-3.5622,-3.5622,-3.5622,-3.5711,-3.5905,-3.1482,-3.1482,-3.1482,-3.1482,-3.1482,-3.1482,-3.1482,-3.1482,-3.1061,-2.9759,-2.9579,-2.9071,-2.7775,-2.7625,-2.7625,-2.7625,-2.7625,-2.7625,-2.7625,-2.7625,-2.7675,-2.779,-2.8039,-2.8365,-2.8732,-2.8997,-2.9273,-2.956,-2.9766,-2.9941,-3.006,-3.0284,-3.041,-3.0568,-3.079,-3.0952,-3.1015,-3.1151,-3.119,-3.119,-3.119,-3.119,-3.119,-3.119,-3.119,-3.119,-3.119,-3.119,-3.119,-3.119,-3.119,-3.119,-3.1015,-3.0773,-3.0485,-3.0274,-2.9842,-2.938,-2.9227,-3.0022,-3.0864,-3.0876,-3.1564,-3.2226,-3.2079,-3.2038,-3.2094,-3.2191,-3.2247,-3.2398,-3.2734,-3.2841,-3.3071,-3.3694,-3.3899,-3.4101,-3.4546,-3.4804,-3.4994,-3.5135,-3.5337,-3.5492,-3.5492,-3.5549,-3.5622,-3.5622,-3.5622,-3.5622,-3.5622,-3.5622,-3.5622,-3.5622,-3.5622,-3.5622,-3.5622,-3.5622,-3.5622,-3.5622,-3.5622,-3.5622,-3.5622,-3.5622,-3.5622,-3.5622,-3.5622,-3.5622,-3.5622,-3.5622,-3.5622,-3.5622,-3.5622,-3.5622,-3.5622,-3.5622,-3.58,-3.6019,-3.1482,-3.1482,-3.1482,-3.1482,-3.1482,-3.1482,-3.1482,-3.1482,-3.1061,-2.9759,-2.9579,-2.9071,-2.7775,-2.7625,-2.7625,-2.7625,-2.7625,-2.7625,-2.7625,-2.7625,-2.7675,-2.779,-2.8039,-2.8414,-2.8873,-2.9273,-2.9633,-2.9886,-3.03,-3.0526,-3.0568,-3.0692,-3.0814,-3.0895,-3.0935,-3.1015,-3.1151,-3.119,-3.119,-3.119,-3.119,-3.119,-3.119,-3.119,-3.119,-3.119,-3.119,-3.119,-3.119,-3.119,-3.119,-3.119,-3.1015,-3.0895,-3.0773,-3.0526,-3.0284,-3.0054,-3.0,-3.0547,-3.1218,-3.1565,-3.2255,-3.2771,-3.2532,-3.2437,-3.2492,-3.2492,-3.2586,-3.2749,-3.3071,-3.3261,-3.3575,-3.425,-3.4448,-3.4691,-3.5198,-3.5337,-3.5383,-3.5487,-3.5532,-3.5594,-3.5594,-3.5577,-3.5622,-3.5622,-3.5622,-3.5622,-3.5622,-3.5622,-3.5622,-3.5622,-3.5622,-3.5622,-3.5622,-3.5622,-3.5622,-3.5622,-3.5622,-3.5622,-3.5622,-3.5622,-3.5622,-3.5622,-3.5622,-3.5622,-3.5622,-3.5622,-3.5622,-3.5622,-3.5622,-3.5667,-3.5773,-3.5773,-3.5949,-3.6208,-3.1482,-3.1482,-3.1482,-3.1482,-3.1482,-3.1482,-3.1482,-3.1482,-3.1061,-2.9759,-2.9579,-2.9071,-2.7775,-2.7625,-2.7625,-2.7625,-2.7625,-2.7625,-2.7675,-2.7675,-2.774,-2.7905,-2.8186,-2.8558,-2.8904,-2.9499,-2.9913,-3.0189,-3.0609,-3.0814,-3.0855,-3.0992,-3.1072,-3.1112,-3.1112,-3.1151,-3.119,-3.119,-3.119,-3.119,-3.119,-3.119,-3.119,-3.119,-3.119,-3.119,-3.119,-3.119,-3.119,-3.119,-3.119,-3.119,-3.1112,-3.1032,-3.0912,-3.0773,-3.0634,-3.0493,-3.0443,-3.0912,-3.155,-3.2138,-3.2765,-3.3243,-3.314,-3.314,-3.314,-3.3298,-3.3387,-3.3491,-3.385,-3.3984,-3.425,-3.4707,-3.4851,-3.5041,-3.5446,-3.5492,-3.552,-3.5577,-3.5622,-3.5622,-3.5622,-3.5622,-3.5622,-3.5622,-3.5622,-3.5622,-3.5622,-3.5622,-3.5622,-3.5622,-3.5622,-3.5622,-3.5622,-3.5622,-3.5622,-3.5622,-3.5622,-3.5622,-3.5622,-3.5622,-3.5622,-3.5622,-3.5622,-3.5622,-3.5622,-3.5622,-3.5622,-3.5684,-3.5684,-3.5817,-3.5993,-3.6019,-3.6301,-3.6713,-3.1482,-3.1482,-3.1482,-3.1482,-3.1482,-3.1482,-3.1482,-3.1482,-3.1061,-2.9759,-2.9579,-2.9071,-2.7775,-2.7625,-2.7625,-2.7625,-2.7625,-2.7675,-2.779,-2.784,-2.789,-2.8054,-2.8429,-2.8748,-2.8951,-2.9605,-3.0103,-3.0417,-3.0733,-3.0952,-3.1032,-3.1151,-3.119,-3.119,-3.119,-3.119,-3.119,-3.119,-3.119,-3.119,-3.119,-3.119,-3.119,-3.119,-3.119,-3.119,-3.119,-3.119,-3.119,-3.119,-3.119,-3.119,-3.119,-3.1112,-3.1015,-3.1015,-3.0912,-3.0773,-3.0773,-3.1141,-3.1722,-3.2569,-3.3143,-3.3637,-3.3906,-3.3899,-3.3949,-3.4151,-3.4201,-3.4349,-3.4691,-3.4756,-3.4851,-3.5135,-3.5152,-3.5245,-3.5475,-3.5537,-3.552,-3.5577,-3.5622,-3.5622,-3.5622,-3.5622,-3.5622,-3.5622,-3.5622,-3.5622,-3.5622,-3.5622,-3.5622,-3.5622,-3.5622,-3.5622,-3.5622,-3.5622,-3.5622,-3.5622,-3.5622,-3.5622,-3.5622,-3.5622,-3.5622,-3.5622,-3.5622,-3.5622,-3.5622,-3.5622,-3.5667,-3.5817,-3.5817,-3.5993,-3.6293,-3.6468,-3.6816,-3.7243,-3.1482,-3.1482,-3.1482,-3.1482,-3.1482,-3.1482,-3.1482,-3.1482,-3.1061,-2.9759,-2.9579,-2.9071,-2.7775,-2.7625,-2.7625,-2.7625,-2.7625,-2.7675,-2.779,-2.7905,-2.8054,-2.8348,-2.8558,-2.8873,-2.9259,-2.9633,-3.0027,-3.0485,-3.0814,-3.1072,-3.119,-3.119,-3.119,-3.119,-3.119,-3.119,-3.119,-3.119,-3.119,-3.119,-3.119,-3.119,-3.119,-3.119,-3.119,-3.119,-3.119,-3.119,-3.119,-3.119,-3.119,-3.119,-3.119,-3.119,-3.119,-3.119,-3.1151,-3.1112,-3.1112,-3.1179,-3.1561,-3.2841,-3.3201,-3.3567,-3.4818,-3.4787,-3.4594,-3.4594,-3.4691,-3.4835,-3.4994,-3.5041,-3.5135,-3.54,-3.5446,-3.5475,-3.5577,-3.5577,-3.5577,-3.5622,-3.5622,-3.5622,-3.5622,-3.5622,-3.5622,-3.5622,-3.5622,-3.5622,-3.5622,-3.5622,-3.5622,-3.5622,-3.5622,-3.5622,-3.5622,-3.5622,-3.5622,-3.5622,-3.5622,-3.5622,-3.5622,-3.5622,-3.5622,-3.5622,-3.5622,-3.5622,-3.5622,-3.5622,-3.5667,-3.5817,-3.5932,-3.6216,-3.6615,-3.7132,-3.745,-3.7667,-3.1482,-3.1482,-3.1482,-3.1482,-3.1482,-3.1482,-3.1482,-3.121,-3.0627,-2.9699,-2.9265,-2.8719,-2.7795,-2.779,-2.779,-2.774,-2.7725,-2.7775,-2.7989,-2.8152,-2.8381,-2.8779,-2.9013,-2.9289,-2.9589,-2.9924,-3.0225,-3.0609,-3.0814,-3.1032,-3.119,-3.119,-3.119,-3.119,-3.119,-3.119,-3.119,-3.119,-3.119,-3.119,-3.119,-3.119,-3.119,-3.119,-3.119,-3.119,-3.119,-3.119,-3.119,-3.119,-3.119,-3.119,-3.119,-3.119,-3.119,-3.119,-3.119,-3.119,-3.119,-3.119,-3.1546,-3.2951,-3.3305,-3.371,-3.5121,-3.535,-3.5211,-3.5135,-3.5198,-3.5245,-3.535,-3.5367,-3.5412,-3.5549,-3.5549,-3.5549,-3.5577,-3.5622,-3.5622,-3.5622,-3.5622,-3.5622,-3.5622,-3.5622,-3.5622,-3.5622,-3.5622,-3.5622,-3.5622,-3.5622,-3.5622,-3.5622,-3.5622,-3.5622,-3.5622,-3.5622,-3.5622,-3.5622,-3.5622,-3.5622,-3.5622,-3.5622,-3.5622,-3.5622,-3.5622,-3.5622,-3.5622,-3.5622,-3.5773,-3.6036,-3.6148,-3.6574,-3.7206,-3.7667,-3.7931,-3.807]}]]